[[{"header":{"parameterUnit":"m.s-1","parameterCategory":1,"la1":31.0,"la2":29.5877,"lo1":-88.7671,"lo2":-86.6584,"dy":0.0162,"dx":0.0185,"nx":115,"ny":88,"refTime":"2024-07-22T00:00:00:Z","depth":0,"parameterNumber":2,"parameterNumberName":"U-component_of_WINDS"},"data":[0.0,0.0,0.0,0.0,0.0,0.0,0.0,0.0,0.0,0.0,0.0,0.0,0.0,0.0,0.0,0.0,0.0,0.0,0.0,0.0,0.0,0.0,0.0,0.0,0.0,0.0,0.0,0.0,0.0,0.0,0.0,0.0,0.0,0.0,0.0,0.0,0.0,0.0,0.0,0.0,0.0,0.0,0.0,0.0,0.0,0.0,0.0,0.0,0.0,0.0,0.0,0.0,0.0,0.0,0.0,0.0,0.0,0.0,0.0,0.0,0.0,0.0,0.0,0.0,0.0,0.0,0.0,0.0,0.0,0.0,0.0,0.0,0.0,0.0,0.0,0.0,0.0,0.0,0.0,0.0,0.0,0.0,0.0,0.0,0.0,0.0,0.0,0.0,0.0,0.0,0.0,0.0,0.0,0.0,0.0,0.0,0.0,0.0,0.0,0.0,0.0,0.0,0.0,0.0,0.0,0.0,0.0,0.0,0.0,0.0,0.0,0.0,0.0,0.0,0.0,0.0,0.0,0.0,0.0,0.0,0.0,0.0,0.0,0.0,0.0,0.0,0.0,0.0,0.0,0.0,0.0,0.0,0.0,0.0,0.0,0.0,0.0,0.0,0.0,0.0,0.0,0.0,0.0,0.0,0.0,0.0,0.0,0.0,0.0,0.0,0.0,0.0,0.0,0.0,0.0,0.0,0.0,0.0,0.0,0.0,0.0,0.0,0.0,0.0,0.0,0.0,0.0,0.0,0.0,0.0,0.0,0.0,0.0,0.0,0.0,0.0,0.0,0.0,0.0,0.0,0.0,0.0,0.0,0.0,0.0,0.0,0.0,0.0,0.0,0.0,0.0,0.0,0.0,0.0,0.0,0.0,0.0,0.0,0.0,0.0,0.0,0.0,0.0,0.0,0.0,0.0,0.0,0.0,0.0,0.0,0.0,0.0,0.0,0.0,0.0,0.0,0.0,0.0,0.0,0.0,0.0,0.0,0.0,0.0,0.0,0.0,0.0,0.0,0.0,0.0,0.0,0.0,0.0,0.0,0.0,0.0,0.0,0.0,0.0,0.0,0.0,0.0,0.0,0.0,0.0,0.0,0.0,0.0,0.0,0.0,0.0,0.0,0.0,0.0,0.0,0.0,0.0,0.0,0.0,0.0,0.0,0.0,0.0,0.0,0.0,0.0,0.0,0.0,0.0,0.0,0.0,0.0,0.0,0.0,0.0,0.0,0.0,0.0,0.0,0.0,0.0,0.0,0.0,0.0,0.0,0.0,0.0,0.0,0.0,0.0,0.0,0.0,0.0,0.0,0.0,0.0,0.0,0.0,0.0,0.0,0.0,0.0,0.0,0.0,0.0,0.0,0.0,0.0,0.0,0.0,0.0,0.0,0.0,0.0,0.0,0.0,0.0,0.0,0.0,0.0,0.0,0.0,0.0,0.0,0.0,0.0,0.0,0.0,0.0,0.0,0.0,0.0,0.0,0.0,0.0,0.0,0.0,0.0,0.0,0.0,0.0,0.0,0.0,0.0,0.0,0.0,0.0,0.0,0.0,0.0,0.0,0.0,0.0,0.0,0.0,0.0,0.0,0.0,0.0,0.0,0.0,0.0,0.0,0.0,0.0,0.0,0.0,0.0,0.0,0.0,0.0,0.0,0.0,0.0,0.0,0.0,0.0,0.0,0.0,0.0,0.0,0.0,0.0,0.0,0.0,0.0,0.0,0.0,0.0,0.0,0.0,0.0,0.0,0.0,0.0,0.0,0.0,0.0,0.0,0.0,0.0,0.0,0.0,0.0,0.0,0.0,0.0,0.0,0.0,0.0,0.0,0.0,0.0,0.0,0.0,0.0,0.0,0.0,0.0,0.0,0.0,0.0,0.0,0.0,0.0,0.0,0.0,0.0,0.0,0.0,0.0,0.0,0.0,0.0,0.0,0.0,0.0,0.0,0.0,0.0,0.0,0.0,0.0,0.0,0.0,0.0,0.0,0.0,0.0,0.0,0.0,0.0,0.0,0.0,0.0,0.0,0.0,0.0,0.0,0.0,0.0,0.0,0.0,0.0,0.0,0.0,0.0,0.0,0.0,0.0,0.0,0.0,0.0,0.0,0.0,0.0,0.0,0.0,0.0,0.0,0.0,0.0,0.0,0.0,0.0,0.0,0.0,0.0,0.0,0.0,0.0,0.0,0.0,0.0,0.0,0.0,0.0,0.0,0.0,0.0,0.0,0.0,0.0,0.0,0.0,0.0,0.0,0.0,0.0,0.0,0.0,0.0,0.0,0.0,0.0,0.0,0.0,0.0,0.0,0.0,0.0,0.0,0.0,0.0,0.0,0.0,0.0,0.0,0.0,0.0,0.0,0.0,0.0,0.0,0.0,0.0,0.0,0.0,0.0,0.0,0.0,0.0,0.0,0.0,0.0,0.0,0.0,0.0,0.0,0.0,0.0,0.0,0.0,0.0,0.0,0.0,0.0,0.0,0.0,0.0,0.0,0.0,0.0,0.0,0.0,0.0,0.0,0.0,0.0,0.0,0.0,0.0,0.0,0.0,0.0,0.0,0.0,0.0,0.0,0.0,0.0,0.0,0.0,0.0,0.0,0.0,0.0,0.0,0.0,0.0,0.0,0.0,0.0,0.0,0.0,0.0,0.0,0.0,0.0,0.0,0.0,0.0,0.0,0.0,0.0,0.0,0.0,0.0,0.0,0.0,0.0,0.0,0.0,0.0,0.0,0.0,0.0,0.0,0.0,0.0,0.0,0.0,0.0,0.0,0.0,0.0,0.0,0.0,0.0,0.0,0.0,0.0,0.0,0.0,0.0,0.0,0.0,0.0,0.0,0.0,0.0,0.0,0.0,0.0,0.0,0.0,0.0,0.0,0.0,0.0,0.0,0.0,0.0,0.0,0.0,0.0,0.0,0.0,0.0,0.0,0.0,0.0,0.0,0.0,0.0,0.0,0.0,0.0,0.0,0.0,0.0,0.0,0.0,0.0,0.0,0.0,0.0,0.0,0.0,0.0,0.0,0.0,0.0,0.0,0.0,0.0,0.0,0.0,0.0,0.0,0.0,0.0,0.0,0.0,0.0,0.0,0.0,0.0,0.0,0.0,0.0,0.0,0.0,0.0,0.0,0.0,0.0,0.0,0.0,0.0,0.0,0.0,0.0,0.0,0.0,0.0,0.0,0.0,0.0,0.0,0.0,0.0,0.0,0.0,0.0,0.0,0.0,0.0,0.0,0.0,0.0,0.0,0.0,0.0,0.0,0.0,0.0,0.0,0.0,0.0,0.0,0.0,0.0,0.0,0.0,0.0,0.0,0.0,0.0,0.0,0.0,0.0,0.0,0.0,0.0,0.0,0.0,0.0,0.0,0.0,0.0,0.0,0.0,0.0,0.0,0.0,0.0,0.0,0.0,0.0,0.0,0.0,0.0,0.0,0.0,0.0,0.0,0.0,0.0,0.0,0.0,0.0,0.0,0.0,0.0,0.0,0.0,0.0,0.0,0.0,0.0,0.0,0.0,0.0,0.0,0.0,0.0,0.0,0.0,0.0,0.0,0.0,0.0,0.0,0.0,0.0,0.0,0.0,0.0,0.0,0.0,0.0,0.0,0.0,0.0,0.0,0.0,0.0,0.0,0.0,0.0,0.0,0.0,0.0,0.0,0.0,0.0,0.0,0.0,0.0,0.0,0.0,0.0,0.0,0.0,0.0,0.0,0.0,0.0,0.0,0.0,0.0,0.0,0.0,0.0,0.0,0.0,0.0,0.0,0.0,0.0,0.0,0.0,0.0,0.0,0.0,0.0,0.0,0.0,0.0,0.0,0.0,0.0,0.0,0.0,0.0,0.0,0.0,0.0,0.0,0.0,0.0,0.0,0.0,0.0,0.0,0.0,0.0,0.0,0.0,0.0,0.0,0.0,0.0,0.0,0.0,0.0,0.0,0.0,0.0,0.0,0.0,0.0,0.0,0.0,0.0,0.0,0.0,0.0,0.0,0.0,0.0,0.0,0.0,0.0,0.0,0.0,0.0,0.0,0.0,0.0,0.0,0.0,0.0,0.0,0.0,0.0,0.0,0.0,0.0,0.0,0.0,0.0,0.0,0.0,0.0,0.0,0.0,0.0,0.0,0.0,0.0,0.0,0.0,0.0,0.0,0.0,0.0,0.0,0.0,0.0,0.0,0.0,0.0,0.0,0.0,0.0,0.0,0.0,0.0,0.0,0.0,0.0,0.0,0.0,0.0,0.0,0.0,0.0,0.0,0.0,0.0,0.0,0.0,0.0,0.0,-2.4309,0.0,0.0,0.0,0.0,0.0,0.0,0.0,0.0,0.0,0.0,0.0,0.0,0.0,0.0,0.0,0.0,0.0,0.0,0.0,0.0,0.0,0.0,0.0,0.0,0.0,0.0,0.0,0.0,0.0,0.0,0.0,0.0,0.0,0.0,0.0,0.0,0.0,0.0,0.0,0.0,0.0,0.0,0.0,0.0,0.0,0.0,0.0,0.0,0.0,0.0,0.0,0.0,0.0,0.0,0.0,0.0,0.0,0.0,0.0,0.0,0.0,0.0,0.0,0.0,0.0,0.0,0.0,0.0,0.0,0.0,0.0,0.0,0.0,0.0,0.0,0.0,0.0,0.0,0.0,0.0,0.0,0.0,0.0,0.0,0.0,0.0,0.0,0.0,0.0,0.0,0.0,0.0,0.0,0.0,0.0,0.0,0.0,0.0,0.0,0.0,0.0,0.0,0.0,0.0,0.0,0.0,0.0,0.0,0.0,0.0,-2.98,-2.9849,-2.9324,-2.8143,-2.627,0.0,0.0,0.0,0.0,0.0,0.0,0.0,0.0,0.0,0.0,0.0,0.0,0.0,0.0,0.0,0.0,0.0,0.0,0.0,0.0,0.0,0.0,0.0,0.0,0.0,0.0,0.0,0.0,0.0,0.0,0.0,0.0,0.0,0.0,0.0,0.0,0.0,0.0,0.0,0.0,0.0,0.0,0.0,0.0,0.0,0.0,0.0,0.0,0.0,0.0,0.0,0.0,0.0,0.0,0.0,0.0,0.0,0.0,0.0,0.0,0.0,0.0,0.0,0.0,0.0,0.0,0.0,0.0,0.0,0.0,0.0,0.0,0.0,0.0,0.0,0.0,0.0,0.0,0.0,0.0,0.0,0.0,0.0,0.0,0.0,0.0,0.0,0.0,0.0,0.0,0.0,0.0,0.0,0.0,0.0,0.0,0.0,0.0,0.0,0.0,0.0,0.0,0.0,0.0,0.0,0.0,0.0,0.0,0.0,0.0,0.0,0.0,-3.0332,-2.8997,-2.7616,0.0,0.0,0.0,0.0,0.0,0.0,0.0,0.0,0.0,0.0,0.0,0.0,0.0,0.0,0.0,0.0,0.0,0.0,0.0,0.0,0.0,0.0,0.0,0.0,0.0,0.0,0.0,0.0,0.0,0.0,0.0,0.0,0.0,0.0,0.0,0.0,0.0,0.0,0.0,0.0,0.0,0.0,0.0,0.0,0.0,0.0,0.0,0.0,0.0,0.0,0.0,0.0,0.0,0.0,0.0,0.0,0.0,0.0,0.0,0.0,0.0,0.0,0.0,0.0,0.0,0.0,0.0,0.0,0.0,0.0,0.0,0.0,0.0,0.0,0.0,0.0,0.0,0.0,0.0,0.0,0.0,0.0,0.0,0.0,0.0,0.0,0.0,0.0,0.0,0.0,0.0,0.0,0.0,0.0,0.0,0.0,0.0,0.0,0.0,0.0,0.0,0.0,0.0,0.0,0.0,0.0,0.0,0.0,0.0,0.0,-3.1523,-3.1584,-3.1395,0.0,-2.6898,0.0,0.0,0.0,0.0,0.0,0.0,0.0,0.0,0.0,0.0,0.0,0.0,0.0,0.0,0.0,0.0,0.0,0.0,0.0,0.0,0.0,0.0,0.0,0.0,0.0,0.0,0.0,0.0,0.0,0.0,0.0,0.0,0.0,0.0,0.0,0.0,0.0,0.0,0.0,0.0,0.0,0.0,0.0,0.0,0.0,0.0,0.0,0.0,0.0,0.0,0.0,0.0,0.0,0.0,0.0,0.0,0.0,0.0,0.0,0.0,0.0,0.0,0.0,0.0,0.0,0.0,0.0,0.0,0.0,0.0,0.0,0.0,0.0,0.0,0.0,0.0,0.0,0.0,0.0,0.0,0.0,0.0,0.0,0.0,0.0,0.0,0.0,0.0,0.0,0.0,0.0,0.0,0.0,0.0,0.0,0.0,0.0,0.0,0.0,0.0,0.0,0.0,0.0,0.0,0.0,0.0,0.0,0.0,0.0,0.0,-3.2124,-3.3116,-3.1651,-2.9499,0.0,0.0,0.0,0.0,0.0,0.0,0.0,0.0,0.0,0.0,0.0,0.0,0.0,0.0,0.0,0.0,0.0,0.0,0.0,0.0,0.0,0.0,0.0,0.0,0.0,0.0,0.0,0.0,0.0,0.0,0.0,0.0,0.0,0.0,0.0,0.0,0.0,0.0,0.0,0.0,0.0,0.0,0.0,0.0,0.0,0.0,0.0,0.0,0.0,0.0,0.0,0.0,0.0,0.0,0.0,0.0,0.0,0.0,0.0,0.0,0.0,0.0,0.0,0.0,0.0,0.0,0.0,0.0,0.0,0.0,0.0,0.0,0.0,0.0,0.0,0.0,0.0,0.0,0.0,0.0,0.0,0.0,0.0,0.0,0.0,0.0,0.0,0.0,0.0,0.0,0.0,0.0,0.0,0.0,0.0,0.0,0.0,0.0,0.0,0.0,0.0,0.0,0.0,0.0,0.0,0.0,0.0,0.0,0.0,0.0,-3.1626,-3.2247,-3.332,-3.1693,-2.9451,-2.6717,0.0,0.0,0.0,0.0,0.0,0.0,0.0,0.0,0.0,0.0,0.0,0.0,0.0,0.0,0.0,0.0,0.0,0.0,0.0,0.0,0.0,0.0,0.0,0.0,0.0,0.0,0.0,0.0,0.0,0.0,0.0,0.0,0.0,0.0,0.0,0.0,0.0,0.0,0.0,0.0,0.0,0.0,0.0,0.0,0.0,0.0,0.0,0.0,0.0,0.0,0.0,0.0,0.0,0.0,0.0,0.0,0.0,0.0,0.0,0.0,0.0,0.0,0.0,0.0,0.0,0.0,0.0,0.0,0.0,0.0,0.0,0.0,0.0,0.0,0.0,0.0,0.0,0.0,0.0,0.0,0.0,0.0,0.0,0.0,0.0,0.0,0.0,0.0,0.0,0.0,0.0,0.0,0.0,0.0,0.0,0.0,0.0,0.0,0.0,0.0,0.0,0.0,0.0,0.0,0.0,0.0,0.0,0.0,-3.1396,-3.1592,-3.1653,-3.1757,-3.1609,-3.0028,0.0,0.0,0.0,0.0,0.0,0.0,0.0,0.0,0.0,0.0,0.0,0.0,0.0,0.0,0.0,0.0,0.0,0.0,0.0,0.0,0.0,0.0,0.0,0.0,0.0,0.0,0.0,0.0,0.0,0.0,0.0,0.0,0.0,0.0,0.0,0.0,0.0,0.0,0.0,0.0,0.0,0.0,0.0,0.0,0.0,0.0,0.0,0.0,0.0,0.0,0.0,0.0,0.0,0.0,0.0,0.0,0.0,0.0,0.0,0.0,0.0,0.0,0.0,0.0,0.0,0.0,0.0,0.0,0.0,0.0,0.0,0.0,0.0,0.0,0.0,0.0,0.0,0.0,0.0,0.0,0.0,0.0,0.0,0.0,0.0,0.0,0.0,0.0,0.0,0.0,0.0,0.0,0.0,0.0,0.0,0.0,0.0,0.0,0.0,0.0,0.0,0.0,0.0,0.0,0.0,0.0,0.0,0.0,0.0,-3.1493,-3.2179,-3.2221,-3.1675,-3.1168,-2.9581,0.0,0.0,0.0,0.0,0.0,0.0,0.0,0.0,0.0,0.0,0.0,0.0,0.0,0.0,0.0,0.0,0.0,0.0,0.0,0.0,0.0,0.0,0.0,0.0,0.0,0.0,0.0,0.0,0.0,0.0,0.0,0.0,0.0,0.0,0.0,0.0,0.0,0.0,0.0,0.0,0.0,0.0,0.0,0.0,0.0,0.0,0.0,0.0,0.0,0.0,0.0,0.0,0.0,0.0,0.0,0.0,0.0,0.0,0.0,0.0,0.0,0.0,0.0,0.0,0.0,0.0,0.0,0.0,0.0,0.0,0.0,0.0,0.0,0.0,0.0,0.0,0.0,0.0,0.0,0.0,0.0,0.0,0.0,0.0,0.0,0.0,0.0,0.0,0.0,0.0,0.0,0.0,0.0,0.0,0.0,0.0,0.0,0.0,0.0,0.0,0.0,0.0,0.0,0.0,0.0,0.0,0.0,0.0,0.0,-3.1589,0.0,-3.2878,0.0,-3.1218,-2.9617,0.0,0.0,0.0,0.0,0.0,0.0,0.0,0.0,0.0,0.0,0.0,0.0,0.0,0.0,0.0,0.0,0.0,0.0,0.0,0.0,0.0,0.0,0.0,0.0,0.0,0.0,0.0,0.0,0.0,0.0,0.0,0.0,0.0,0.0,0.0,0.0,0.0,0.0,0.0,0.0,0.0,0.0,0.0,0.0,0.0,0.0,0.0,0.0,0.0,0.0,0.0,0.0,0.0,0.0,0.0,0.0,0.0,0.0,0.0,0.0,0.0,0.0,0.0,0.0,0.0,0.0,0.0,0.0,0.0,0.0,0.0,0.0,0.0,0.0,0.0,0.0,0.0,0.0,0.0,0.0,0.0,0.0,0.0,0.0,0.0,0.0,0.0,0.0,0.0,0.0,0.0,0.0,0.0,0.0,0.0,0.0,0.0,0.0,0.0,0.0,0.0,0.0,0.0,0.0,0.0,0.0,0.0,0.0,-2.9986,-3.1654,-3.3263,-3.3359,-3.1972,-3.1742,-3.0193,0.0,0.0,0.0,0.0,0.0,0.0,0.0,0.0,0.0,0.0,0.0,0.0,0.0,0.0,0.0,0.0,0.0,0.0,0.0,0.0,0.0,0.0,0.0,0.0,0.0,0.0,0.0,0.0,0.0,0.0,0.0,0.0,0.0,0.0,0.0,0.0,0.0,0.0,0.0,0.0,0.0,0.0,0.0,0.0,0.0,0.0,0.0,0.0,0.0,0.0,0.0,0.0,0.0,0.0,0.0,0.0,0.0,0.0,0.0,0.0,0.0,0.0,0.0,0.0,0.0,0.0,0.0,0.0,0.0,0.0,0.0,0.0,0.0,0.0,0.0,0.0,0.0,0.0,0.0,0.0,0.0,0.0,0.0,0.0,0.0,0.0,0.0,0.0,0.0,0.0,0.0,0.0,0.0,0.0,0.0,0.0,0.0,0.0,0.0,0.0,0.0,0.0,0.0,0.0,0.0,0.0,0.0,0.0,0.0,-3.0968,-3.2072,-3.2462,-3.196,-3.0816,-2.969,0.0,0.0,0.0,0.0,0.0,0.0,0.0,0.0,0.0,0.0,0.0,0.0,0.0,0.0,0.0,0.0,0.0,0.0,0.0,0.0,0.0,0.0,0.0,0.0,0.0,0.0,0.0,0.0,0.0,0.0,0.0,0.0,0.0,0.0,0.0,0.0,0.0,0.0,0.0,0.0,0.0,0.0,0.0,0.0,0.0,0.0,0.0,0.0,0.0,0.0,0.0,0.0,0.0,0.0,0.0,0.0,0.0,0.0,0.0,0.0,0.0,0.0,0.0,0.0,0.0,0.0,0.0,0.0,0.0,0.0,0.0,0.0,0.0,0.0,0.0,0.0,0.0,0.0,0.0,0.0,0.0,0.0,0.0,0.0,0.0,0.0,0.0,0.0,0.0,0.0,0.0,0.0,0.0,0.0,0.0,0.0,0.0,0.0,0.0,0.0,0.0,0.0,0.0,0.0,0.0,0.0,0.0,0.0,0.0,-3.0823,-3.1924,-3.2415,-3.2105,-3.0751,-2.98,-2.932,0.0,0.0,0.0,0.0,0.0,0.0,0.0,0.0,0.0,0.0,0.0,0.0,0.0,0.0,0.0,0.0,0.0,0.0,0.0,0.0,0.0,0.0,0.0,0.0,0.0,0.0,0.0,0.0,0.0,0.0,0.0,0.0,0.0,0.0,0.0,0.0,0.0,0.0,0.0,0.0,0.0,0.0,0.0,0.0,0.0,0.0,0.0,0.0,0.0,0.0,0.0,0.0,0.0,0.0,0.0,0.0,0.0,0.0,0.0,0.0,0.0,0.0,0.0,0.0,0.0,0.0,0.0,0.0,0.0,0.0,0.0,0.0,0.0,0.0,0.0,0.0,0.0,0.0,0.0,0.0,0.0,0.0,0.0,0.0,0.0,0.0,0.0,0.0,0.0,0.0,0.0,0.0,0.0,0.0,0.0,0.0,0.0,0.0,0.0,0.0,0.0,0.0,0.0,0.0,0.0,0.0,0.0,0.0,-3.11,-3.2591,-3.3025,-3.2307,-3.1327,-3.0431,0.0,0.0,0.0,0.0,0.0,0.0,0.0,0.0,0.0,0.0,0.0,0.0,0.0,0.0,0.0,0.0,0.0,0.0,0.0,0.0,0.0,0.0,0.0,0.0,0.0,0.0,0.0,0.0,0.0,0.0,0.0,0.0,0.0,0.0,0.0,0.0,0.0,0.0,0.0,0.0,0.0,0.0,0.0,0.0,0.0,0.0,0.0,0.0,0.0,0.0,0.0,0.0,0.0,0.0,0.0,0.0,0.0,0.0,0.0,0.0,0.0,0.0,0.0,0.0,0.0,0.0,0.0,0.0,0.0,0.0,0.0,0.0,0.0,0.0,0.0,0.0,0.0,0.0,0.0,0.0,0.0,0.0,0.0,0.0,0.0,0.0,0.0,0.0,0.0,0.0,0.0,0.0,0.0,0.0,0.0,0.0,0.0,0.0,0.0,0.0,0.0,0.0,0.0,0.0,0.0,0.0,0.0,0.0,0.0,-3.2041,-3.1984,-3.2106,-3.2324,-3.0846,-3.0443,0.0,0.0,0.0,0.0,0.0,0.0,0.0,0.0,0.0,0.0,0.0,0.0,0.0,0.0,0.0,0.0,0.0,0.0,0.0,0.0,0.0,0.0,0.0,0.0,0.0,0.0,0.0,0.0,0.0,0.0,0.0,0.0,0.0,0.0,0.0,0.0,0.0,0.0,0.0,0.0,0.0,0.0,0.0,0.0,0.0,0.0,0.0,0.0,0.0,0.0,0.0,0.0,0.0,0.0,0.0,0.0,0.0,0.0,0.0,0.0,0.0,0.0,0.0,0.0,0.0,0.0,0.0,0.0,0.0,0.0,0.0,0.0,0.0,0.0,0.0,0.0,0.0,0.0,0.0,0.0,0.0,0.0,0.0,0.0,0.0,0.0,0.0,0.0,0.0,0.0,0.0,0.0,0.0,0.0,0.0,0.0,0.0,0.0,0.0,0.0,0.0,0.0,0.0,0.0,0.0,0.0,0.0,0.0,-3.2298,-3.2441,-3.1762,-3.1595,-3.1952,-3.0861,-3.0622,0.0,0.0,0.0,0.0,0.0,0.0,0.0,0.0,0.0,0.0,0.0,0.0,0.0,0.0,0.0,0.0,0.0,0.0,0.0,0.0,0.0,0.0,0.0,0.0,0.0,0.0,0.0,0.0,0.0,0.0,0.0,0.0,0.0,0.0,0.0,0.0,0.0,0.0,0.0,0.0,0.0,0.0,0.0,0.0,0.0,0.0,0.0,0.0,0.0,0.0,0.0,0.0,0.0,0.0,0.0,0.0,0.0,0.0,0.0,0.0,0.0,0.0,0.0,0.0,0.0,0.0,0.0,0.0,0.0,0.0,0.0,0.0,0.0,0.0,0.0,0.0,0.0,0.0,0.0,0.0,0.0,0.0,0.0,0.0,0.0,0.0,0.0,0.0,0.0,0.0,0.0,0.0,0.0,0.0,0.0,0.0,0.0,0.0,0.0,0.0,0.0,0.0,0.0,0.0,0.0,0.0,0.0,0.0,-3.2238,-3.2374,-3.1649,-3.1299,-3.1283,-3.1092,-3.0913,0.0,0.0,0.0,0.0,0.0,0.0,0.0,0.0,0.0,0.0,0.0,0.0,0.0,0.0,0.0,0.0,0.0,0.0,0.0,0.0,0.0,0.0,0.0,0.0,0.0,0.0,0.0,0.0,0.0,0.0,0.0,0.0,0.0,0.0,0.0,0.0,0.0,0.0,0.0,0.0,0.0,0.0,0.0,0.0,0.0,0.0,0.0,0.0,0.0,0.0,0.0,0.0,0.0,0.0,0.0,0.0,0.0,0.0,0.0,0.0,0.0,0.0,0.0,0.0,0.0,0.0,0.0,0.0,0.0,0.0,0.0,0.0,0.0,0.0,0.0,0.0,0.0,0.0,0.0,0.0,0.0,0.0,0.0,0.0,0.0,0.0,0.0,0.0,0.0,0.0,0.0,0.0,0.0,0.0,0.0,0.0,0.0,0.0,0.0,0.0,0.0,0.0,0.0,0.0,0.0,0.0,0.0,0.0,-3.1419,-3.1546,-3.0887,-3.0494,-3.0464,-3.0858,-3.1007,0.0,0.0,0.0,0.0,0.0,0.0,0.0,0.0,0.0,0.0,0.0,0.0,0.0,0.0,0.0,0.0,0.0,0.0,0.0,0.0,0.0,0.0,0.0,0.0,0.0,0.0,0.0,0.0,0.0,0.0,0.0,0.0,0.0,0.0,0.0,0.0,0.0,0.0,0.0,0.0,0.0,0.0,0.0,0.0,0.0,0.0,0.0,0.0,-3.3582,0.0,0.0,0.0,0.0,0.0,0.0,0.0,0.0,0.0,0.0,0.0,0.0,0.0,0.0,0.0,0.0,0.0,0.0,0.0,0.0,0.0,0.0,0.0,0.0,0.0,0.0,0.0,0.0,0.0,0.0,0.0,0.0,0.0,0.0,0.0,0.0,0.0,0.0,0.0,0.0,0.0,0.0,0.0,0.0,0.0,0.0,0.0,0.0,0.0,0.0,0.0,0.0,0.0,0.0,0.0,0.0,0.0,0.0,0.0,-3.1656,-3.1386,-3.0647,-3.0246,-3.0244,-3.12,-3.1315,0.0,0.0,0.0,0.0,0.0,0.0,0.0,0.0,0.0,0.0,0.0,0.0,0.0,0.0,0.0,0.0,0.0,0.0,0.0,0.0,0.0,0.0,0.0,0.0,0.0,0.0,0.0,0.0,0.0,0.0,0.0,0.0,0.0,0.0,0.0,0.0,0.0,0.0,0.0,0.0,0.0,0.0,0.0,0.0,0.0,0.0,0.0,0.0,0.0,0.0,0.0,0.0,0.0,0.0,0.0,0.0,0.0,0.0,0.0,0.0,0.0,0.0,0.0,0.0,0.0,0.0,0.0,0.0,0.0,0.0,0.0,0.0,0.0,0.0,0.0,0.0,0.0,0.0,0.0,0.0,0.0,0.0,0.0,0.0,0.0,0.0,0.0,0.0,0.0,0.0,0.0,0.0,0.0,0.0,0.0,0.0,0.0,0.0,0.0,0.0,0.0,0.0,0.0,0.0,0.0,0.0,0.0,-3.167,-3.1857,-3.1303,-3.0597,-3.0214,-3.0219,-3.1572,-3.149,-2.9811,0.0,0.0,0.0,0.0,0.0,0.0,0.0,0.0,0.0,0.0,0.0,0.0,0.0,0.0,0.0,0.0,0.0,0.0,0.0,0.0,0.0,0.0,0.0,0.0,0.0,0.0,0.0,0.0,0.0,0.0,0.0,0.0,0.0,0.0,0.0,0.0,0.0,0.0,-3.0048,-3.1999,0.0,0.0,0.0,0.0,0.0,0.0,0.0,0.0,-3.7057,0.0,0.0,0.0,0.0,0.0,0.0,0.0,0.0,0.0,0.0,0.0,0.0,0.0,0.0,0.0,0.0,0.0,0.0,0.0,0.0,0.0,0.0,0.0,0.0,0.0,0.0,0.0,0.0,0.0,0.0,0.0,0.0,0.0,0.0,0.0,0.0,0.0,0.0,0.0,0.0,0.0,0.0,0.0,0.0,0.0,0.0,0.0,0.0,0.0,0.0,0.0,0.0,0.0,0.0,0.0,0.0,-2.9915,-3.024,-3.0392,-3.0421,-3.033,-3.0253,-3.0237,-3.0993,-3.0884,-2.984,0.0,0.0,0.0,0.0,0.0,0.0,0.0,0.0,0.0,0.0,0.0,0.0,0.0,0.0,0.0,0.0,0.0,0.0,0.0,0.0,0.0,0.0,0.0,0.0,0.0,0.0,0.0,0.0,0.0,0.0,0.0,0.0,0.0,0.0,0.0,0.0,0.0,0.0,0.0,-3.4222,-3.5584,0.0,0.0,0.0,0.0,0.0,0.0,0.0,0.0,-3.7881,0.0,0.0,0.0,0.0,0.0,0.0,0.0,0.0,0.0,0.0,0.0,0.0,0.0,0.0,0.0,0.0,0.0,0.0,0.0,0.0,0.0,0.0,0.0,0.0,0.0,0.0,0.0,0.0,0.0,0.0,0.0,0.0,0.0,0.0,0.0,0.0,0.0,0.0,0.0,0.0,0.0,0.0,0.0,0.0,0.0,0.0,0.0,0.0,0.0,0.0,0.0,0.0,0.0,0.0,0.0,-2.9746,-3.0273,-3.0413,-3.0169,-3.0185,-3.0166,-3.0176,-3.0828,-3.0715,0.0,0.0,0.0,0.0,0.0,0.0,0.0,0.0,0.0,0.0,0.0,0.0,0.0,0.0,0.0,0.0,0.0,0.0,0.0,0.0,0.0,0.0,0.0,0.0,0.0,0.0,0.0,0.0,0.0,0.0,0.0,0.0,0.0,0.0,0.0,0.0,0.0,0.0,0.0,0.0,-3.5069,-3.6411,-3.794,0.0,0.0,0.0,0.0,0.0,0.0,-3.8174,-3.8245,0.0,0.0,0.0,0.0,0.0,0.0,0.0,0.0,0.0,0.0,0.0,0.0,0.0,0.0,0.0,0.0,0.0,0.0,0.0,0.0,0.0,0.0,0.0,0.0,0.0,0.0,0.0,0.0,0.0,0.0,0.0,0.0,0.0,0.0,0.0,0.0,0.0,0.0,0.0,0.0,0.0,0.0,0.0,0.0,0.0,0.0,0.0,0.0,0.0,0.0,0.0,0.0,0.0,0.0,0.0,-2.9729,-3.0439,-3.057,-3.0087,-3.0064,-3.0064,-3.0057,-3.0593,-3.0503,0.0,0.0,0.0,0.0,0.0,0.0,0.0,0.0,0.0,0.0,0.0,0.0,0.0,0.0,0.0,0.0,0.0,0.0,0.0,0.0,0.0,0.0,0.0,0.0,0.0,0.0,0.0,0.0,0.0,0.0,0.0,0.0,0.0,0.0,0.0,0.0,0.0,0.0,0.0,0.0,0.0,-3.7192,-3.9264,-3.9683,0.0,0.0,0.0,0.0,-3.8579,-3.8449,0.0,0.0,0.0,0.0,0.0,0.0,0.0,0.0,0.0,0.0,0.0,0.0,0.0,0.0,0.0,0.0,0.0,0.0,0.0,0.0,0.0,0.0,0.0,0.0,0.0,0.0,0.0,0.0,0.0,0.0,0.0,0.0,0.0,0.0,0.0,0.0,0.0,0.0,0.0,0.0,0.0,0.0,0.0,0.0,0.0,0.0,0.0,0.0,0.0,0.0,0.0,0.0,0.0,0.0,0.0,0.0,-2.9617,-2.9766,-2.9873,-2.991,-2.9943,-2.9905,-2.991,-2.9901,-2.9757,0.0,0.0,0.0,0.0,0.0,0.0,0.0,0.0,0.0,0.0,0.0,0.0,0.0,0.0,0.0,0.0,0.0,0.0,0.0,0.0,0.0,0.0,0.0,0.0,0.0,0.0,0.0,0.0,0.0,0.0,0.0,0.0,0.0,0.0,0.0,0.0,0.0,0.0,0.0,0.0,0.0,-3.8569,-3.963,-4.0361,-4.0835,0.0,0.0,-3.9518,-3.8771,-3.8666,0.0,0.0,0.0,0.0,0.0,0.0,0.0,0.0,0.0,0.0,0.0,0.0,0.0,0.0,0.0,0.0,0.0,0.0,0.0,0.0,0.0,0.0,0.0,0.0,0.0,0.0,0.0,0.0,0.0,0.0,0.0,0.0,0.0,0.0,0.0,0.0,0.0,0.0,0.0,0.0,0.0,0.0,0.0,0.0,0.0,0.0,0.0,0.0,0.0,0.0,0.0,0.0,0.0,0.0,0.0,-2.9318,-2.9481,-2.956,-2.9673,-2.9801,-2.9782,-2.98,-2.9783,-2.9654,-2.9532,0.0,0.0,0.0,0.0,0.0,0.0,0.0,0.0,0.0,0.0,0.0,0.0,0.0,0.0,0.0,0.0,0.0,0.0,0.0,0.0,0.0,0.0,0.0,0.0,0.0,0.0,0.0,0.0,0.0,0.0,0.0,0.0,0.0,0.0,0.0,0.0,0.0,0.0,0.0,0.0,0.0,0.0,-4.0333,-4.1229,0.0,0.0,0.0,-4.0111,-3.8884,0.0,0.0,0.0,0.0,0.0,0.0,0.0,0.0,0.0,0.0,0.0,0.0,0.0,0.0,0.0,0.0,0.0,0.0,0.0,0.0,0.0,0.0,0.0,0.0,0.0,0.0,0.0,0.0,0.0,0.0,0.0,0.0,0.0,0.0,0.0,0.0,0.0,0.0,0.0,0.0,0.0,0.0,0.0,0.0,0.0,0.0,0.0,0.0,0.0,0.0,0.0,0.0,0.0,0.0,0.0,0.0,0.0,-2.9361,-2.9412,-2.9501,-2.9589,-2.9617,-2.9589,-2.9589,-2.9501,0.0,0.0,0.0,0.0,0.0,0.0,0.0,0.0,0.0,0.0,0.0,0.0,0.0,0.0,0.0,0.0,0.0,0.0,0.0,0.0,0.0,0.0,0.0,0.0,0.0,0.0,0.0,-2.5506,0.0,0.0,0.0,0.0,0.0,0.0,0.0,0.0,0.0,0.0,0.0,0.0,0.0,0.0,-3.9333,-4.0895,-4.1791,-4.2103,0.0,0.0,-4.0653,-3.931,-3.8872,-3.8707,0.0,0.0,0.0,0.0,0.0,0.0,0.0,0.0,0.0,0.0,0.0,0.0,0.0,0.0,0.0,0.0,0.0,0.0,0.0,0.0,0.0,0.0,0.0,0.0,0.0,0.0,0.0,0.0,0.0,0.0,0.0,0.0,0.0,0.0,0.0,0.0,0.0,0.0,0.0,0.0,0.0,0.0,0.0,0.0,0.0,0.0,0.0,0.0,0.0,0.0,0.0,0.0,0.0,0.0,-2.9156,-2.9312,-2.9323,-2.9307,-2.9314,-2.9324,-2.9343,-2.9343,-2.9336,-2.9283,0.0,0.0,0.0,0.0,0.0,0.0,0.0,0.0,0.0,0.0,0.0,0.0,0.0,0.0,0.0,0.0,0.0,0.0,0.0,0.0,0.0,0.0,0.0,0.0,0.0,0.0,0.0,0.0,0.0,0.0,0.0,0.0,0.0,0.0,0.0,0.0,0.0,0.0,0.0,0.0,0.0,-3.9889,-4.095,-4.1791,-4.2286,0.0,-4.1589,-4.0873,-4.0297,-3.9347,-3.8707,-3.8707,0.0,0.0,0.0,0.0,0.0,0.0,0.0,0.0,0.0,0.0,0.0,0.0,0.0,0.0,0.0,0.0,0.0,0.0,0.0,0.0,0.0,0.0,0.0,0.0,0.0,0.0,0.0,0.0,0.0,0.0,0.0,0.0,0.0,0.0,0.0,0.0,0.0,0.0,0.0,0.0,0.0,0.0,0.0,0.0,0.0,0.0,0.0,0.0,0.0,0.0,0.0,0.0,0.0,-2.913,-2.9175,-2.92,-2.9232,-2.9235,-2.9235,-2.9235,-2.9235,-2.9207,-2.9163,0.0,0.0,0.0,0.0,0.0,0.0,0.0,0.0,0.0,0.0,0.0,0.0,0.0,0.0,0.0,0.0,0.0,0.0,0.0,0.0,0.0,0.0,0.0,0.0,0.0,0.0,0.0,0.0,-2.933,-2.9973,-3.0683,0.0,0.0,0.0,0.0,0.0,0.0,0.0,0.0,0.0,0.0,-3.978,-4.029,-4.1479,0.0,0.0,-4.1297,-4.0855,-4.0155,-3.9292,-3.8707,-3.8707,-3.8707,0.0,0.0,0.0,0.0,0.0,0.0,0.0,0.0,0.0,0.0,0.0,0.0,0.0,0.0,0.0,0.0,0.0,0.0,0.0,0.0,0.0,0.0,0.0,0.0,0.0,0.0,0.0,0.0,0.0,0.0,0.0,0.0,0.0,0.0,0.0,0.0,0.0,0.0,0.0,0.0,0.0,0.0,0.0,0.0,0.0,0.0,0.0,0.0,0.0,0.0,0.0,0.0,-2.9085,-2.9085,-2.913,-2.9152,-2.9152,-2.9134,-2.9134,-2.9152,-2.9078,-2.9074,0.0,0.0,0.0,0.0,0.0,0.0,0.0,0.0,0.0,0.0,0.0,0.0,0.0,0.0,0.0,0.0,0.0,0.0,0.0,0.0,0.0,0.0,0.0,0.0,0.0,0.0,0.0,0.0,-3.0313,-3.0632,-3.114,0.0,0.0,0.0,0.0,0.0,0.0,0.0,0.0,0.0,0.0,-3.9396,-3.9848,-4.1075,-4.1735,-4.1168,-4.1297,-4.1093,-4.0047,-3.9499,-3.9135,-3.9074,0.0,0.0,0.0,0.0,0.0,0.0,0.0,0.0,0.0,0.0,0.0,0.0,0.0,0.0,0.0,0.0,0.0,0.0,0.0,0.0,0.0,0.0,0.0,0.0,0.0,0.0,0.0,-2.4801,0.0,0.0,-2.4632,0.0,0.0,0.0,0.0,0.0,0.0,0.0,0.0,0.0,0.0,0.0,0.0,0.0,0.0,0.0,0.0,0.0,0.0,0.0,0.0,0.0,0.0,-2.9005,-2.8987,-2.9017,-2.9005,-2.9005,-2.8987,-2.8998,-2.9017,-2.9005,-2.8987,-2.8987,0.0,0.0,0.0,0.0,0.0,0.0,0.0,0.0,0.0,0.0,0.0,0.0,0.0,0.0,0.0,0.0,0.0,0.0,0.0,0.0,0.0,0.0,0.0,0.0,0.0,0.0,-3.0206,-3.0792,-3.1157,0.0,0.0,0.0,0.0,0.0,0.0,0.0,0.0,0.0,-3.7786,-3.8236,-3.8791,-3.9756,-4.0616,-4.1132,-4.1113,-4.1772,-4.1735,-4.0194,-4.0109,-4.0168,0.0,0.0,0.0,0.0,0.0,0.0,0.0,0.0,0.0,0.0,0.0,0.0,0.0,0.0,0.0,0.0,0.0,0.0,0.0,0.0,0.0,0.0,0.0,0.0,0.0,0.0,0.0,-2.6667,-2.629,0.0,0.0,0.0,0.0,0.0,0.0,0.0,0.0,0.0,0.0,0.0,-2.8205,-2.8676,0.0,0.0,0.0,0.0,0.0,0.0,0.0,0.0,0.0,0.0,0.0,0.0,-2.8987,-2.8987,-2.8987,-2.8987,-2.8987,-2.8987,-2.8987,-2.8987,-2.8987,-2.8987,-2.8987,0.0,0.0,0.0,0.0,0.0,0.0,0.0,0.0,0.0,0.0,0.0,0.0,0.0,0.0,0.0,0.0,0.0,0.0,0.0,0.0,0.0,0.0,0.0,0.0,0.0,-3.1222,0.0,0.0,0.0,0.0,0.0,0.0,0.0,0.0,0.0,0.0,0.0,-3.722,-3.7963,-3.8269,-3.8556,-3.904,-4.0249,-4.1113,0.0,0.0,0.0,0.0,0.0,0.0,0.0,0.0,0.0,0.0,0.0,0.0,0.0,0.0,-3.8615,-3.834,-3.8517,-3.8536,-3.801,0.0,0.0,0.0,0.0,0.0,0.0,0.0,0.0,0.0,0.0,0.0,0.0,0.0,0.0,-2.7688,-2.7497,-2.7208,0.0,0.0,0.0,0.0,0.0,0.0,0.0,0.0,-2.8078,-2.8191,-2.8424,-2.8833,-2.8947,0.0,-2.9071,-2.9065,0.0,0.0,0.0,0.0,0.0,0.0,0.0,0.0,-2.8987,-2.8987,-2.8987,-2.8987,-2.8987,-2.8987,-2.8987,-2.8987,-2.8987,-2.8987,-2.8987,-2.8987,-2.8987,0.0,0.0,0.0,0.0,0.0,0.0,0.0,0.0,0.0,0.0,0.0,0.0,0.0,0.0,0.0,0.0,0.0,0.0,0.0,0.0,0.0,0.0,0.0,-3.1786,0.0,0.0,0.0,0.0,0.0,0.0,0.0,0.0,0.0,-3.6095,-3.7519,-3.8528,-3.8866,-3.8837,-3.8836,-3.9014,0.0,0.0,0.0,0.0,0.0,0.0,0.0,-4.023,-3.9937,-3.9717,-3.946,-3.9166,-3.9129,-3.9019,-3.8744,0.0,0.0,-3.8707,-3.8707,-3.8707,-3.8707,-3.8707,-3.8707,-3.8707,-3.8707,-3.8707,0.0,0.0,0.0,0.0,0.0,0.0,0.0,0.0,-2.7561,-2.771,0.0,-2.7539,0.0,0.0,0.0,0.0,0.0,-2.7654,0.0,0.0,-2.8433,-2.8335,-2.8654,-2.9437,-2.9482,-2.887,-2.9637,-2.9655,-2.9015,-2.9722,0.0,0.0,0.0,0.0,0.0,0.0,-2.9023,-2.9005,-2.8987,-2.8987,-2.8987,-2.8987,-2.8987,-2.8987,-2.8987,-2.8987,-2.8987,-2.8987,-2.8987,-2.8987,-2.8987,0.0,0.0,0.0,0.0,0.0,0.0,0.0,0.0,0.0,0.0,0.0,0.0,0.0,0.0,0.0,0.0,0.0,0.0,0.0,0.0,-3.2283,0.0,0.0,0.0,0.0,0.0,0.0,0.0,0.0,0.0,0.0,-3.7061,-3.908,-4.0383,-4.0366,0.0,0.0,0.0,0.0,-3.9841,-3.9918,-4.0598,-4.0838,-4.0084,-4.0579,-4.0765,-4.001,0.0,0.0,-3.9974,-3.9861,-3.957,-3.8836,-3.8707,-3.8707,-3.8707,-3.8707,-3.8707,-3.8707,-3.8707,-3.8707,-3.8707,-3.8723,-3.8723,-2.7012,0.0,0.0,0.0,0.0,-2.866,-2.8544,-2.8151,-2.8029,-2.7853,-2.7623,-2.7384,0.0,0.0,0.0,0.0,0.0,0.0,-2.7856,-2.829,-2.8326,-2.8458,-2.8687,-2.9016,-2.9101,-2.8965,-2.9197,-2.9495,-2.9837,-3.0057,-2.9892,-2.9372,0.0,0.0,0.0,0.0,-2.9574,-2.9042,-2.8987,-2.8987,-2.8987,-2.8987,-2.8987,-2.8987,-2.8987,-2.8987,-2.8987,-2.8987,-2.8987,-2.8987,-2.8987,0.0,0.0,0.0,0.0,0.0,0.0,0.0,0.0,0.0,0.0,0.0,0.0,0.0,0.0,0.0,0.0,0.0,0.0,0.0,-3.2718,-3.2488,-3.2441,0.0,0.0,0.0,0.0,0.0,0.0,0.0,0.0,0.0,-3.8438,-4.0691,-4.1724,0.0,0.0,-3.9557,-3.9668,-3.9756,-3.9823,-3.99,-4.0579,0.0,-4.0799,-4.0469,-4.0157,-3.9953,-3.9625,-3.9313,-3.9093,-3.9038,-3.8982,-3.8744,-3.8707,-3.8707,-3.8707,-3.8707,-3.8707,-3.8707,-3.8707,-3.8723,-3.8817,-3.8832,-3.8865,-2.6979,-2.7367,-2.735,-2.7638,-2.8079,-2.8184,-2.8203,-2.8168,-2.7943,-2.7851,-2.7842,-2.753,-2.7343,-2.7261,-2.7276,0.0,0.0,0.0,-2.8067,-2.8529,-2.847,-2.8549,-2.8749,-2.8858,-2.8929,-2.8987,-2.8987,-2.9262,-2.9714,-2.9732,-2.9482,-2.906,0.0,0.0,-2.9042,-2.9482,-2.95,-2.9023,-2.8987,-2.8987,-2.8987,-2.8987,-2.8987,-2.8987,-2.8987,-2.8987,-2.8987,-2.8987,-2.8987,-2.8987,-2.8987,-2.8959,0.0,0.0,0.0,0.0,0.0,0.0,0.0,0.0,0.0,0.0,0.0,-3.1679,-3.256,0.0,0.0,0.0,-3.3345,-3.3175,-3.2943,-3.3068,0.0,0.0,0.0,0.0,0.0,0.0,0.0,-3.7247,-3.7291,-3.7756,-3.9137,-4.0416,-4.1068,-4.0635,-4.02,-3.9833,-3.969,0.0,-3.928,-3.9389,-3.9845,-4.0141,-4.0141,-3.9735,-3.9423,-3.9423,-3.9019,-3.8707,-3.8707,-3.8707,-3.8707,-3.867,-3.845,-3.8212,-3.823,-3.8471,-3.8703,-3.8704,-3.8686,-3.8747,-3.888,-3.8947,-3.8958,-2.6708,-2.6708,-2.6708,-2.6708,-2.6725,-2.6842,-2.7401,-2.8132,-2.7492,-2.7739,-2.8523,-2.7809,-2.7496,-2.7511,-2.7587,0.0,-2.8613,-2.8217,-2.8422,-2.9191,-2.8725,-2.8607,-2.8816,-2.887,-2.894,-2.8987,-2.8987,-2.8987,-2.9005,-2.9005,-2.8987,-2.9023,-2.9739,-2.9721,-2.9042,-2.9078,-2.906,-2.8987,-2.8987,-2.8987,-2.8987,-2.8987,-2.8987,-2.8987,-2.8987,-2.8987,-2.8987,-2.8987,-2.8987,-2.8987,-2.8987,-2.8964,-2.8899,0.0,0.0,0.0,0.0,0.0,0.0,0.0,0.0,0.0,0.0,0.0,0.0,0.0,0.0,0.0,-3.3605,0.0,-3.334,-3.3913,0.0,0.0,0.0,-3.6072,-3.6125,-3.6854,-3.7448,-3.7703,0.0,0.0,-3.9271,-3.8996,-3.9141,-4.0377,-4.0471,-4.0218,-3.9679,-3.8946,-3.8481,-3.8713,-3.8726,-3.8726,-3.8854,-3.8799,-3.8726,-3.8634,-3.8615,-3.8524,-3.8432,-3.8432,-3.8487,-3.8414,-3.7896,-3.7415,-3.7415,-3.7962,-3.8524,-3.8456,-3.8596,-3.8711,-3.8634,-3.8711,-3.8732,-2.6708,-2.6708,-2.6708,-2.6708,-2.6708,-2.6825,-2.7061,-2.7296,-2.7219,-2.7398,-2.7683,-2.7552,-2.7526,-2.7587,-2.7704,-2.7851,-2.8024,-2.8096,-2.8285,-2.8537,-2.8621,-2.8712,-2.8798,-2.8935,-2.8994,-2.8987,-2.8987,-2.8987,-2.8987,-2.8987,-2.8987,-2.9023,-2.9189,-2.9207,-2.9012,-2.9592,-2.961,-2.8987,-2.8987,-2.8987,-2.8987,-2.8987,-2.8987,-2.8987,-2.8987,-2.8987,-2.8987,-2.8987,-2.8987,-2.8987,-2.8987,-2.8964,-2.8905,-2.8905,0.0,0.0,0.0,0.0,0.0,0.0,0.0,0.0,0.0,-3.3306,-3.3615,0.0,-3.3671,0.0,-3.3633,-3.38,-3.4316,-3.4459,0.0,0.0,-3.6272,-3.6684,-3.7111,-3.756,-3.7862,-3.7983,-3.8006,-3.8156,-3.8686,-3.8711,-3.8767,-3.9015,-3.9478,-3.979,-3.9668,-3.899,-3.8528,-3.8658,-3.8689,-3.8707,-3.8652,-3.8707,-3.8469,-3.7896,-3.7786,-3.7584,-3.6982,-3.6872,-3.6872,-3.6886,-3.6769,-3.6665,-3.6646,-3.6786,-3.6883,-3.7077,-3.79,-3.8359,-3.7466,-3.7322,-3.7408,-2.6708,-2.6708,-2.6708,-2.6742,-2.6809,-2.6876,-2.6959,-2.7007,-2.7135,-2.7294,-2.7452,-2.7604,-2.7707,-2.778,-2.7896,-2.7968,-2.7993,-2.8191,-2.8327,-2.8406,-2.8637,-2.8773,-2.8798,-2.8947,-2.8987,-2.8987,-2.8987,-2.8987,-2.8987,-2.8987,-2.8987,-2.8987,-2.8987,-2.8987,-2.9023,-2.9445,-2.9445,-2.9005,-2.8987,-2.8987,-2.8987,-2.8987,-2.8987,-2.8987,-2.8987,-2.8987,-2.8987,-2.8987,-2.8987,-2.8987,-2.8987,-2.8982,-2.894,-2.894,-2.8917,0.0,0.0,0.0,0.0,0.0,0.0,0.0,0.0,0.0,0.0,0.0,-3.3739,-3.3753,-3.4041,-3.4388,-3.475,-3.5399,-3.6077,-3.6686,-3.7152,-3.7531,-3.7826,-3.8018,-3.8153,-3.8267,-3.8257,-3.8334,-3.8575,-3.8653,-3.8693,-3.8593,-3.8946,-3.9189,-3.9134,-3.8766,-3.8559,-3.8673,-3.8395,-3.8028,-3.7698,-3.7643,-3.7496,-3.7074,-3.6978,-3.6813,-3.6376,-3.6332,-3.6342,-3.6323,-3.6122,-3.5906,-3.5887,-3.5554,-3.5312,-3.548,-3.6165,-3.6487,-3.5856,-3.5734,-3.593,-2.6708,-2.6708,-2.6708,-2.6792,-2.6876,-2.6926,-2.6958,-2.7024,-2.7166,-2.7373,-2.7557,-2.7815,-2.7961,-2.8011,-2.8099,-2.8154,-2.8241,-2.8358,-2.8445,-2.8536,-2.8712,-2.8798,-2.881,-2.8929,-2.8987,-2.8987,-2.8987,-2.8987,-2.8987,-2.8987,-2.8987,-2.8987,-2.8987,-2.8987,-2.8987,-2.8987,-2.8987,-2.8987,-2.8987,-2.8987,-2.8987,-2.8987,-2.8987,-2.8987,-2.8987,-2.8987,-2.8987,-2.8987,-2.8987,-2.8987,-2.8987,-2.8987,-2.8987,-2.8987,-2.8964,0.0,-2.8899,0.0,0.0,0.0,0.0,0.0,0.0,0.0,0.0,-3.3748,-3.3807,-3.3807,-3.4527,-3.5013,-3.5076,-3.6439,-3.7296,-3.7301,-3.7919,-3.8356,-3.8322,-3.8322,-3.8403,-3.851,-3.8473,-3.8504,-3.8673,-3.8707,-3.8707,-3.8508,-3.849,-3.842,-3.8248,-3.8269,-3.8355,-3.8527,-3.7863,-3.7144,-3.6578,-3.6376,-3.6321,-3.6211,-3.6138,-3.6097,-3.5913,-3.597,-3.6049,-3.5989,-3.5527,-3.5161,-3.5175,-3.4555,-3.4099,-3.4179,-3.4572,-3.4784,-3.4593,-3.4587,-3.4946,-2.6708,-2.6708,-2.6809,-2.6859,-2.6909,-2.7023,-2.707,-2.7103,-2.7341,-2.7572,-2.783,-2.7946,-2.8028,-2.8085,-2.8223,-2.8259,-2.8286,-2.8432,-2.8505,-2.8587,-2.8737,-2.8834,-2.8881,-2.8952,-2.8987,-2.8987,-2.8987,-2.8987,-2.8987,-2.8987,-2.8987,-2.8987,-2.8987,-2.8987,-2.8987,0.0,0.0,0.0,-2.8987,-2.8987,-2.8987,-2.8987,-2.8987,-2.8987,-2.8987,0.0,-2.8987,-2.8987,-2.8987,-2.8987,-2.8987,0.0,0.0,0.0,0.0,0.0,0.0,0.0,0.0,0.0,0.0,0.0,-3.2441,-3.3101,-3.3707,-3.3775,-3.3807,-3.3825,-3.4527,-3.5279,-3.5977,-3.6894,-3.7671,-3.8186,-3.8489,-3.858,-3.8496,-3.858,-3.8627,-3.8658,-3.864,-3.864,-3.8655,-3.8707,-3.8432,-3.7823,-3.7731,-3.7441,-3.6839,-3.7316,-3.7679,-3.7661,-3.7,-3.6486,-3.634,-3.6229,-3.5917,-3.5481,-3.5261,-3.5032,-3.4567,-3.4434,-3.4437,-3.4526,-3.4369,-3.4358,-3.4408,-3.4246,-3.4157,-3.416,-3.4521,-3.4761,-3.447,-3.4539,-3.4742,-2.6792,-2.6809,-2.6892,-2.6957,0.0,-2.7103,-2.7182,-2.7247,-2.7419,-2.7679,-2.7961,-2.8014,-2.8112,-2.8191,-2.8273,-2.834,-2.8388,-2.8466,-2.8543,-2.8644,-2.8749,-2.8846,-2.8905,-2.8964,-2.8987,-2.8987,-2.8987,-2.8987,-2.8987,-2.8987,-2.8987,-2.8987,-2.8987,-2.8987,-2.8987,-2.8987,-2.8987,-2.8987,-2.8987,-2.8987,-2.8987,-2.8987,-2.8987,-2.8987,-2.8987,0.0,0.0,0.0,0.0,0.0,0.0,0.0,0.0,0.0,0.0,-2.8987,-2.8987,-2.9354,-3.0118,-3.021,-3.0558,-3.1342,-3.2137,-3.2944,-3.3733,-3.3807,-3.3807,-3.3825,-3.4527,-3.5353,-3.6211,-3.7033,-3.7774,-3.848,-3.8658,-3.8673,-3.8609,-3.8658,-3.8707,-3.8634,-3.8233,-3.7958,-3.8102,-3.7484,-3.7136,-3.6945,-3.6905,-3.6758,-3.6431,-3.6633,-3.6762,-3.634,-3.5958,-3.5514,-3.5147,-3.5073,-3.4995,-3.4532,-3.4453,-3.4328,-3.4007,-3.3972,-3.4023,-3.4086,-3.4148,-3.4221,-3.43,-3.4298,-3.4307,-3.433,-3.4603,-3.4808,-3.4677,-3.4709,-3.4743,-2.6926,-2.6926,-2.6975,-2.7055,-2.7135,-2.7181,-2.731,-2.7452,0.0,0.0,0.0,-2.8085,-2.8178,-2.83,-2.8327,-2.8388,-2.8492,-2.8518,-2.8594,-2.8706,-2.8785,-2.8846,-2.8935,-2.8964,-2.8987,-2.8987,-2.8987,-2.8987,-2.8987,-2.8987,-2.8987,-2.8987,-2.8987,-2.8987,-2.8987,-2.8987,-2.8987,-2.8987,-2.8987,-2.8987,-2.8987,-2.8987,-2.8987,-2.8987,-2.8987,-2.8987,-2.8987,-2.8987,-2.8987,-2.8987,-2.8987,-2.8987,-2.8987,-2.8987,-2.8987,-2.8987,-2.8987,-2.928,-2.9946,-3.0001,-3.0436,-3.1348,-3.2052,-3.281,-3.3715,-3.3807,-3.3807,-3.3807,-3.4527,-3.5298,-3.6009,-3.6813,-3.7533,-3.8212,-3.8285,-3.8267,-3.8267,-3.8285,-3.8212,-3.8193,-3.7569,-3.7129,-3.7235,-3.6314,-3.5608,-3.5977,-3.6064,-3.5991,-3.5917,-3.5936,-3.5771,-3.5041,-3.4821,-3.4546,-3.4027,-3.3925,-3.3847,-3.3973,-3.3963,-3.3934,-3.4011,-3.4074,-3.4136,-3.4197,-3.4288,-3.4284,-3.4248,-3.43,-3.4383,-3.4446,-3.4402,-3.4415,-3.4478,-3.445,-3.446,-2.6975,-2.7008,-2.7038,-2.7135,-2.7181,-2.7327,-2.7498,-2.7642,-2.7657,-2.7836,-2.8085,-2.8154,-2.8237,-2.8313,-2.8401,-2.8479,-2.8492,-2.8637,-2.8724,-2.8785,-2.8839,-2.8917,-2.8994,-2.8994,-2.8987,-2.8987,-2.8987,-2.8987,-2.8987,-2.8987,-2.8987,-2.8987,-2.8987,-2.8987,-2.8987,-2.8987,-2.8987,-2.8987,-2.8987,-2.8987,-2.8987,-2.8987,-2.8987,-2.8987,-2.8987,-2.8987,-2.8987,-2.8987,-2.8987,-2.8987,-2.8987,-2.8987,-2.8987,-2.8987,-2.8987,-2.8987,-2.8987,-2.9083,-2.9262,-2.9262,-2.9929,-3.1395,-3.1672,-3.2305,-3.3673,-3.3807,-3.3807,-3.3844,-3.4509,-3.5027,-3.5224,-3.5973,-3.6523,-3.667,-3.667,-3.6652,-3.6707,-3.6725,-3.6743,-3.6743,-3.6952,-3.686,-3.645,-3.5842,-3.5314,-3.5229,-3.5188,-3.4968,-3.4559,-3.4729,-3.4784,-3.4192,-3.3954,-3.3917,-3.3857,-3.386,-3.3881,-3.3895,-3.3959,-3.3974,-3.3994,-3.4056,-3.411,-3.4213,-3.4172,-3.4065,-3.3666,-3.403,-3.4235,-3.43,-3.3658,-3.292,-3.2929,-3.2955,-3.3389,-2.707,-2.712,-2.7215,-2.7277,-2.7371,-2.7511,-2.7707,-2.7925,-2.7968,-2.8039,-2.8154,-2.8237,-2.8313,-2.8419,-2.8523,-2.8587,-2.8607,-2.8712,-2.8779,-2.8858,-2.8875,-2.894,-2.9005,-2.8987,-2.8987,-2.8987,-2.8987,-2.8987,-2.8987,-2.8987,-2.8987,-2.8987,-2.8987,-2.8987,-2.8987,-2.8987,-2.8987,-2.8987,-2.8987,-2.8987,-2.8987,-2.8987,-2.8987,-2.8987,-2.8987,-2.8987,-2.8987,-2.8987,-2.8987,-2.8987,-2.8987,-2.8987,-2.8987,-2.8987,-2.9017,-2.9044,-2.9062,-2.9096,-2.9152,-2.9145,-2.9857,-3.1438,-3.1597,-3.2275,-3.3847,-3.3887,-3.386,-3.391,-3.4201,-3.4527,-3.4935,-3.5371,-3.5789,-3.6266,-3.6285,-3.6285,-3.6285,-3.6285,-3.6285,-3.6266,-3.6093,-3.5858,-3.5642,-3.5009,-3.4536,-3.438,-3.4362,-3.4179,-3.3862,-3.4119,-3.4247,-3.3899,-3.3807,-3.3802,-3.386,-3.3868,-3.3921,-3.3998,-3.4061,-3.3938,-3.3684,-3.3613,-3.3496,-3.3175,-3.3144,-3.3047,-3.2794,-3.3033,-3.3251,-3.3185,-3.2135,-3.1321,-3.1299,-3.1958,-3.2888,-2.7198,-2.7293,-2.7405,-2.7498,-2.7569,-2.7748,-2.7922,-2.8126,-2.8227,-2.825,-2.8277,-2.8327,-2.8419,-2.8536,-2.8587,-2.8662,-2.8737,-2.8798,-2.8846,-2.8905,-2.8917,-2.8952,-2.8994,-2.8987,-2.8987,-2.8987,-2.8987,-2.8987,-2.8987,-2.8987,-2.8987,-2.8987,-2.8987,-2.8987,-2.8987,-2.8987,-2.8987,-2.8987,-2.8987,-2.8987,-2.8987,-2.8987,-2.8987,-2.8987,-2.8987,-2.8987,-2.8987,-2.8987,-2.8987,-2.8987,-2.8987,-2.8987,-2.8987,-2.9017,-2.9051,-2.9108,-2.9112,-2.9175,-2.9222,-2.9225,-2.9946,-3.1531,-3.1698,-3.2383,-3.387,-3.4048,-3.3965,-3.3981,-3.3929,-3.4096,-3.4564,-3.4729,-3.5004,-3.5642,-3.5734,-3.5642,-3.5716,-3.5734,-3.5734,-3.5661,-3.5114,-3.4729,-3.4619,-3.4192,-3.388,-3.388,-3.3807,-3.3807,-3.3807,-3.3807,-3.3807,-3.382,-3.382,-3.3829,-3.3895,-3.3923,-3.3881,-3.384,-3.3776,-3.3464,-3.3056,-3.2907,-3.2815,-3.2356,-3.2219,-3.2193,-3.2109,-3.2231,-3.219,-3.192,-3.0926,-3.0197,-3.0394,-3.1207,-3.2313,-2.7405,-2.7481,-2.7539,-2.7644,-2.7789,-2.8039,-2.8154,-2.8209,-2.8331,-2.8419,-2.8453,-2.8479,-2.8523,-2.8618,-2.8644,-2.8718,-2.8798,-2.8839,-2.8893,-2.8917,-2.8964,-2.8994,-2.8987,-2.8987,-2.8987,-2.8987,-2.8987,-2.8987,-2.8987,-2.8987,-2.8987,-2.8987,-2.8987,-2.8987,-2.8987,-2.8987,-2.8987,-2.8987,-2.8987,-2.8987,-2.8987,-2.8987,-2.8987,-2.8987,-2.8987,-2.8987,-2.8987,-2.8987,-2.8987,-2.8987,-2.8987,-2.8987,-2.9017,-2.9044,-2.9108,-2.9089,-2.9175,-2.9214,-2.9291,-2.9361,-3.011,-3.1728,-3.1933,-3.259,-3.4064,-3.4191,-3.4117,-3.4015,-3.3913,-3.3929,-3.3912,-3.3972,-3.4045,-3.4229,-3.4211,-3.4027,-3.4156,-3.4027,-3.4045,-3.4009,-3.41,-3.3899,-3.399,-3.388,-3.3825,-3.3807,-3.3807,-3.3807,-3.3807,-3.3807,-3.3733,-3.3765,-3.3823,-3.3845,-3.3828,-3.3963,-3.358,-3.2943,-3.2806,-3.2616,-3.2278,-3.2154,-3.2151,-3.1854,-3.2053,-3.1844,-3.1614,-3.1739,-3.1741,-3.0909,-3.0361,-3.0178,-3.0268,-3.0527,-3.116,-2.7526,-2.763,-2.7659,-2.7806,-2.8039,-2.8154,-2.825,-2.8331,-2.8445,-2.8536,-2.8574,-2.865,-2.8675,-2.8657,-2.8755,-2.8846,-2.887,-2.8947,-2.897,-2.8952,-2.8994,-2.8987,-2.8987,-2.8987,-2.8987,-2.8987,-2.8987,-2.8987,-2.8987,-2.8987,-2.8987,-2.8987,-2.8987,-2.8987,-2.8987,-2.8987,-2.8987,-2.8987,-2.8987,-2.8987,-2.8987,-2.8987,-2.8987,-2.8987,-2.8987,-2.8987,-2.8987,-2.8987,-2.8987,-2.9005,-2.9021,-2.9044,-2.9074,-2.9123,-2.9167,-2.9218,-2.9286,-2.9351,-2.9404,-2.9434,-2.9966,-3.1144,-3.1704,-3.2478,-3.3538,-3.4013,-3.4209,-3.4117,-3.4029,-3.3934,-3.3868,-3.3855,-3.3842,-3.382,-3.3807,-3.3807,-3.3807,-3.3807,-3.3807,-3.3807,-3.3807,-3.3807,-3.3807,-3.3807,-3.3807,-3.3807,-3.3807,-3.3807,-3.3788,-3.3807,-3.36,-3.3272,-3.3208,-3.3456,-3.3709,-3.3413,-3.2797,-3.2035,-3.18,-3.173,-3.1473,-3.144,-3.1393,-3.0986,-3.1037,-3.101,-3.0622,-3.0704,-3.0738,-3.015,-3.0173,-3.0233,-3.0336,-3.0337,-3.0695,-2.7659,-2.776,-2.7821,-2.8011,-2.825,-2.8277,-2.8358,-2.8458,-2.8587,-2.8637,-2.8662,-2.8773,-2.881,-2.8767,-2.887,-2.8899,-2.8929,-2.8964,-2.8987,-2.8987,-2.8987,-2.8987,-2.8987,-2.8987,-2.8987,-2.8987,-2.8987,-2.8987,-2.8987,-2.8987,-2.8987,-2.8987,-2.8987,-2.8987,-2.8987,-2.8987,-2.8987,-2.8987,-2.8987,-2.8987,-2.8987,-2.8987,-2.8987,-2.8987,-2.8987,-2.8987,-2.8987,-2.9017,-2.904,-2.9021,-2.9096,-2.9123,-2.9123,-2.9178,-2.9262,-2.9326,-2.9382,-2.9463,-2.9541,-2.956,-2.9925,-3.0712,-3.1405,-3.2152,-3.3093,-3.3732,-3.4104,-3.4233,-3.4136,-3.4049,-3.3908,-3.3895,-3.3868,-3.382,-3.3807,-3.3807,-3.3807,-3.3807,-3.3807,-3.3807,-3.3807,-3.3807,-3.3807,-3.3807,-3.3807,-3.3807,-3.3807,-3.3642,-3.3513,-3.3435,-3.3204,-3.2501,-3.2281,-3.2465,-3.3129,-3.2827,-3.1901,-3.1126,-3.0837,-3.0836,-3.0641,-3.0712,-3.0762,-3.0454,-3.0147,-3.0099,-3.0277,-3.024,-3.0213,-3.0188,-3.0221,-3.028,-3.0369,-3.0356,-3.0336,-2.7864,-2.7996,-2.8109,-2.8264,-2.838,-2.8458,-2.8523,-2.8587,-2.8657,-2.8718,-2.8785,-2.8851,-2.8893,-2.8875,-2.8905,-2.894,-2.8994,-2.9005,-2.8987,-2.8987,-2.8987,-2.8987,-2.8987,-2.8987,-2.8987,-2.8987,-2.8987,-2.8987,-2.8987,-2.8987,-2.8987,-2.8987,-2.8987,-2.8987,-2.8987,-2.8987,-2.8987,-2.8987,-2.8987,-2.8987,-2.8987,-2.8987,-2.8987,-2.9017,-2.9005,-2.9005,-2.8998,-2.9062,-2.9108,-2.9089,-2.9175,-2.9189,-2.92,-2.9251,-2.9318,-2.9392,-2.9463,-2.956,-2.9664,-2.9683,-3.003,-3.079,-3.1016,-3.1685,-3.2958,-3.3387,-3.3724,-3.4204,-3.4244,-3.4173,-3.3959,-3.3921,-3.3868,-3.382,-3.3807,-3.3807,-3.3807,-3.3807,-3.3807,-3.3807,-3.3807,-3.3807,-3.3807,-3.3807,-3.3807,-3.3807,-3.3807,-3.3532,-3.2926,-3.2763,-3.2378,-3.1716,-3.1191,-3.0895,-3.1536,-3.1574,-3.1075,-3.054,-3.0188,-3.0029,-2.9956,-2.9962,-3.001,-3.0072,-3.0113,-3.0164,-3.0192,-3.0245,-3.0292,-3.0318,-3.0337,-3.04,-3.04,-3.0405,-3.0373,-2.8067,-2.8205,-2.8304,-2.8393,-2.8523,-2.8543,-2.8625,-2.8743,-2.8791,-2.8846,-2.887,-2.8947,-2.8952,-2.8952,-2.8952,-2.8982,-2.8987,-2.8987,-2.8987,-2.8987,-2.8987,-2.8987,-2.8987,-2.8987,-2.8987,-2.8987,-2.8987,-2.8987,-2.8987,-2.8987,-2.8987,-2.8987,-2.8987,-2.8987,-2.8987,-2.8987,-2.8987,-2.8987,-2.8987,-2.8987,-2.8998,-2.9051,-2.9074,-2.9055,-2.9074,-2.9074,-2.9055,-2.9141,-2.9175,-2.9156,-2.9229,-2.9265,-2.9259,-2.9361,-2.9471,-2.9569,-2.9617,-2.9673,-2.9756,-2.9755,-2.9886,-3.0214,-3.0732,-3.1195,-3.1892,-3.2784,-3.35,-3.3724,-3.4109,-3.4215,-3.4105,-3.4023,-3.3934,-3.3868,-3.3834,-3.3807,-3.3807,-3.3807,-3.3807,-3.3807,-3.3807,-3.3807,-3.3807,-3.3807,-3.3807,-3.3752,-3.3366,-3.2944,-3.2614,-3.2248,-3.1648,-3.1027,-3.0676,-3.0468,-3.0103,-3.0213,-3.0073,-3.0039,-2.9916,-2.9967,-2.9956,-3.0003,-3.0083,-3.0128,-3.0199,-3.0214,-3.0253,-3.028,-3.0336,-3.0374,-3.0392,-3.0398,-3.0392,-3.0416,-3.041,-2.8273,-2.8393,-2.8463,-2.8536,-2.865,-2.8662,-2.8724,-2.8834,-2.8881,-2.8917,-2.8929,-2.8994,-2.9017,-2.904,-2.9021,-2.9051,-2.9062,-2.901,-2.8987,-2.8987,-2.8987,-2.8987,-2.8987,-2.8987,-2.8987,-2.8987,-2.8987,-2.8987,-2.8987,-2.8987,-2.8987,-2.8987,-2.8987,-2.8987,-2.8987,-2.8987,-2.9005,-2.9028,-2.9021,-2.9051,-2.9055,-2.91,-2.9123,-2.9141,-2.9163,-2.9163,-2.9123,-2.9207,-2.9222,-2.9225,-2.9286,-2.9349,-2.9394,-2.9502,-2.9608,-2.9701,-2.9738,-2.9773,-2.9815,-2.9859,-2.9885,-2.9912,-3.0375,-3.0782,-3.1088,-3.2072,-3.2795,-3.3314,-3.3716,-3.4034,-3.4177,-3.4136,-3.4023,-3.3921,-3.3873,-3.3834,-3.3807,-3.3807,-3.3807,-3.3807,-3.3807,-3.3807,-3.3807,-3.3807,-3.3678,-3.3463,-3.2894,-3.2528,-3.1905,-3.1477,-3.0874,-3.0224,-3.0101,-2.9948,-2.9787,-2.9773,-2.986,-2.9842,-2.9959,-2.9996,-3.001,-3.0072,-3.0138,-3.0187,-3.0234,-3.0267,-3.0286,-3.0328,-3.0352,-3.0394,-3.0406,-3.0392,-3.0425,-3.0444,-3.0439,-2.8471,-2.8605,-2.86,-2.8657,-2.8785,-2.8798,-2.8846,-2.8905,-2.8929,-2.8982,-2.9017,-2.9017,-2.9033,-2.9096,-2.9089,-2.9123,-2.9145,-2.9055,-2.9028,-2.901,-2.9017,-2.9017,-2.9017,-2.9028,-2.9028,-2.901,-2.8998,-2.9017,-2.9017,-2.901,-2.9028,-2.8998,-2.9028,-2.9028,-2.8998,-2.901,-2.9051,-2.9096,-2.9089,-2.9123,-2.9178,-2.9189,-2.92,-2.92,-2.9262,-2.9272,-2.9229,-2.9272,-2.9315,-2.9322,-2.9363,-2.9453,-2.9588,-2.9655,-2.9692,-2.9717,-2.9834,-2.9893,-2.9888,-2.9956,-3.0014,-3.0057,-3.0118,-3.0432,-3.0928,-3.1273,-3.1882,-3.284,-3.3379,-3.3652,-3.4104,-3.4215,-3.4111,-3.3934,-3.3895,-3.3873,-3.382,-3.3807,-3.3807,-3.3807,-3.3807,-3.3788,-3.377,-3.366,-3.3366,-3.2761,-3.2394,-3.1923,-3.09,-3.0535,-3.0076,-2.9617,-2.9564,-2.9619,-2.9559,-2.9533,-2.9664,-2.9793,-2.9962,-3.0062,-3.0087,-3.0138,-3.02,-3.0247,-3.0311,-3.0348,-3.0377,-3.0411,-3.0389,-3.0425,-3.0411,-3.043,-3.0483,-3.0497,-3.0472,-2.863,-2.8724,-2.8737,-2.8785,-2.8851,-2.8905,-2.8994,-2.9044,-2.9108,-2.9123,-2.9134,-2.9152,-2.9145,-2.9156,-2.9167,-2.9178,-2.9207,-2.9145,-2.9152,-2.9134,-2.9134,-2.9141,-2.9123,-2.9152,-2.9134,-2.9152,-2.9134,-2.9123,-2.9152,-2.9123,-2.9152,-2.9152,-2.9141,-2.9134,-2.9123,-2.9134,-2.9145,-2.9156,-2.9167,-2.9197,-2.9218,-2.9251,-2.9265,-2.927,-2.933,-2.9361,-2.9411,-2.939,-2.9392,-2.9443,-2.9511,-2.9579,-2.9664,-2.9737,-2.978,-2.983,-2.9874,-2.994,-3.0022,-3.0072,-3.008,-3.0095,-3.0102,-3.0167,-3.0408,-3.0888,-3.1331,-3.1921,-3.269,-3.3487,-3.359,-3.4025,-3.4111,-3.3998,-3.3921,-3.3887,-3.382,-3.3807,-3.3807,-3.3807,-3.3807,-3.3587,-3.3128,-3.2986,-3.2651,-3.1892,-3.1403,-3.0778,-3.039,-2.9917,-2.9624,-2.9328,-2.9402,-2.9512,-2.9561,-2.9653,-2.9779,-2.9895,-3.0043,-3.0133,-3.0154,-3.0194,-3.0254,-3.0317,-3.0383,-3.0422,-3.0444,-3.0465,-3.0462,-3.0476,-3.0495,-3.0528,-3.0567,-3.0548,-3.0514,-2.8737,-2.8834,-2.8858,-2.8923,-2.8975,-2.9033,-2.9108,-2.9152,-2.9197,-2.9207,-2.9207,-2.9207,-2.9211,-2.9222,-2.9222,-2.9262,-2.9272,-2.9283,-2.9283,-2.9272,-2.9211,-2.9218,-2.9207,-2.9207,-2.9207,-2.9207,-2.9207,-2.9207,-2.9207,-2.9207,-2.9207,-2.9207,-2.9207,-2.9207,-2.9207,-2.9207,-2.92,-2.924,-2.9225,-2.9246,-2.9286,-2.9357,-2.9361,-2.9384,-2.9443,-2.9492,-2.956,-2.9541,-2.9531,-2.9579,-2.9626,-2.9691,-2.977,-2.9823,-2.9874,-2.9948,-2.9988,-3.0019,-3.0091,-3.0113,-3.014,-3.014,-3.0121,-3.0106,-3.0129,-3.0576,-3.0804,-3.1248,-3.1883,-3.2584,-3.2844,-3.3448,-3.3773,-3.3661,-3.3819,-3.3876,-3.3834,-3.3807,-3.3807,-3.3752,-3.3532,-3.3115,-3.2748,-3.2234,-3.1874,-3.1109,-3.0606,-3.0118,-2.9968,-2.9558,-2.941,-2.9363,-2.9501,-2.9589,-2.9663,-2.9779,-2.9907,-3.0026,-3.0152,-3.0185,-3.0192,-3.0273,-3.0336,-3.0414,-3.0479,-3.0491,-3.0535,-3.0545,-3.054,-3.0559,-3.0554,-3.0569,-3.0602,-3.0598,-3.0574,-2.8864,-2.8917,-2.8975,-2.9051,-2.9119,-2.9167,-2.92,-2.9211,-2.924,-2.9232,-2.9232,-2.9243,-2.9272,-2.9304,-2.9315,-2.9347,-2.9396,-2.9407,-2.9388,-2.9368,-2.9286,-2.9243,-2.924,-2.924,-2.924,-2.924,-2.9222,-2.9222,-2.9232,-2.9243,-2.9229,-2.9262,-2.9243,-2.924,-2.9262,-2.924,-2.9265,-2.9315,-2.932,-2.9353,-2.9402,-2.9481,-2.9502,-2.9512,-2.9569,-2.9645,-2.9701,-2.9709,-2.9718,-2.9719,-2.9792,-2.9823,-2.988,-2.9924,-2.9991,-3.0076,-3.0094,-3.0101,-3.0123,-3.0171,-3.0211,-3.0192,-3.0192,-3.0171,-3.0147,-3.0198,-3.0448,-3.0901,-3.1163,-3.1403,-3.2028,-3.2703,-3.3004,-3.3034,-3.3562,-3.3873,-3.3834,-3.3765,-3.36,-3.3513,-3.3073,-3.2485,-3.2333,-3.1709,-3.1103,-3.0452,-3.0162,-2.9887,-2.9595,-2.9373,-2.938,-2.9453,-2.9579,-2.9682,-2.9744,-2.9883,-3.0007,-3.011,-3.0221,-3.029,-3.0292,-3.0349,-3.0408,-3.0485,-3.054,-3.0568,-3.0591,-3.06,-3.0593,-3.0597,-3.0597,-3.061,-3.0621,-3.0628,-3.0619,-2.8975,-2.9055,-2.9112,-2.9145,-2.9178,-2.9257,-2.928,-2.9291,-2.9382,-2.9402,-2.9412,-2.9423,-2.9431,-2.9451,-2.9451,-2.9461,-2.9471,-2.9481,-2.9471,-2.9471,-2.9451,-2.939,-2.9357,-2.9336,-2.9336,-2.9347,-2.9339,-2.9351,-2.9351,-2.9382,-2.9402,-2.9412,-2.9421,-2.9402,-2.9431,-2.9402,-2.9423,-2.9433,-2.9461,-2.9444,-2.9464,-2.954,-2.9607,-2.9655,-2.9673,-2.9746,-2.9844,-2.9883,-2.9899,-2.9857,-2.9866,-2.9924,-3.0011,-3.0038,-3.0076,-3.015,-3.019,-3.0199,-3.024,-3.0253,-3.0279,-3.026,-3.0214,-3.0187,-3.0171,-3.0135,-3.0175,-3.0384,-3.0724,-3.1118,-3.1345,-3.1933,-3.223,-3.2314,-3.3179,-3.3837,-3.371,-3.3353,-3.2978,-3.2884,-3.2542,-3.1937,-3.1256,-3.0894,-3.0524,-2.9813,-2.957,-2.9595,-2.9384,-2.9382,-2.9443,-2.9569,-2.9683,-2.9764,-2.9841,-2.9975,-3.0095,-3.0183,-3.0291,-3.0419,-3.0429,-3.0466,-3.0514,-3.0569,-3.0586,-3.0617,-3.0614,-3.0626,-3.0618,-3.0633,-3.0665,-3.068,-3.0669,-3.0676,-3.0649,-2.9119,-2.9152,-2.9203,-2.9228,-2.9238,-2.9324,-2.9384,-2.9423,-2.9492,-2.9522,-2.9531,-2.9551,-2.9598,-2.9598,-2.9579,-2.9579,-2.9579,-2.9579,-2.9579,-2.9579,-2.9579,-2.9521,-2.947,-2.9421,-2.945,-2.945,-2.9433,-2.9443,-2.9453,-2.9482,-2.9511,-2.9511,-2.9521,-2.9521,-2.9501,-2.9521,-2.9531,-2.954,-2.9588,-2.9589,-2.958,-2.9655,-2.9719,-2.9774,-2.9789,-2.9849,-2.9978,-3.0014,-3.0022,-2.9999,-2.9999,-3.0038,-3.0113,-3.0128,-3.0157,-3.0226,-3.0233,-3.0272,-3.0279,-3.0312,-3.0312,-3.0286,-3.0266,-3.0221,-3.0187,-3.0152,-3.0087,-3.0095,-3.0468,-3.0547,-3.0639,-3.1148,-3.1638,-3.1975,-3.2632,-3.3062,-3.2951,-3.2496,-3.2262,-3.2109,-3.1802,-3.131,-3.0388,-3.0226,-2.9828,-2.9428,-2.936,-2.9386,-2.9373,-2.9463,-2.956,-2.9673,-2.9764,-2.9859,-2.9959,-3.008,-3.0211,-3.0292,-3.038,-3.0513,-3.0523,-3.055,-3.0588,-3.0623,-3.0633,-3.0642,-3.066,-3.0674,-3.0665,-3.0688,-3.072,-3.0736,-3.0713,-3.0718,-3.0672,-2.9211,-2.9203,-2.9291,-2.9332,-2.9363,-2.9463,-2.9522,-2.9531,-2.9598,-2.9636,-2.9645,-2.9683,-2.9701,-2.9701,-2.9701,-2.972,-2.9701,-2.9701,-2.9701,-2.9701,-2.9692,-2.9655,-2.9569,-2.954,-2.9531,-2.954,-2.9522,-2.9531,-2.9522,-2.9541,-2.9541,-2.956,-2.9551,-2.956,-2.957,-2.9551,-2.9569,-2.9636,-2.9683,-2.971,-2.9708,-2.979,-2.9834,-2.9885,-2.9916,-2.998,-3.0061,-3.0117,-3.0098,-3.0125,-3.0136,-3.0128,-3.0185,-3.0199,-3.0233,-3.0279,-3.0292,-3.0299,-3.0324,-3.0331,-3.0324,-3.0324,-3.0324,-3.0286,-3.0227,-3.0194,-3.0164,-3.0101,-2.9984,-3.0035,-3.0063,-3.0498,-3.093,-3.137,-3.1643,-3.1552,-3.1439,-3.1424,-3.1486,-3.1449,-3.0944,-3.0519,-3.0179,-2.9747,-2.9272,-2.9452,-2.9372,-2.9423,-2.9492,-2.9569,-2.9645,-2.9728,-2.9842,-2.994,-3.0053,-3.0169,-3.0299,-3.0398,-3.0502,-3.0588,-3.0607,-3.0623,-3.0653,-3.068,-3.0687,-3.0691,-3.0713,-3.0722,-3.0709,-3.0734,-3.0753,-3.0751,-3.0725,-3.0733,-3.072,-2.9262,-2.9291,-2.9423,-2.9482,-2.954,-2.9626,-2.9664,-2.9663,-2.9727,-2.9755,-2.9764,-2.9773,-2.9782,-2.98,-2.98,-2.9782,-2.979,-2.9809,-2.9773,-2.9773,-2.9773,-2.9773,-2.9728,-2.9701,-2.9664,-2.9664,-2.9664,-2.9644,-2.9644,-2.9672,-2.9727,-2.9718,-2.97,-2.9727,-2.9718,-2.9709,-2.9746,-2.9755,-2.9773,-2.9808,-2.9859,-2.9893,-2.9934,-2.9983,-3.0026,-3.0087,-3.0157,-3.0166,-3.0213,-3.0226,-3.0225,-3.0206,-3.0272,-3.0286,-3.0292,-3.0305,-3.0317,-3.0323,-3.0361,-3.0361,-3.0361,-3.0374,-3.0343,-3.0311,-3.0279,-3.0221,-3.0194,-3.0171,-3.0094,-3.0019,-2.9953,-2.9923,-3.0152,-3.0339,-3.0279,-3.0134,-3.0064,-3.046,-3.0687,-3.0542,-3.0068,-2.9536,-2.9567,-2.9606,-2.9417,-2.9461,-2.9492,-2.954,-2.9598,-2.9664,-2.9737,-2.9816,-2.9926,-3.0019,-3.0116,-3.024,-3.038,-3.0483,-3.0559,-3.0623,-3.0637,-3.0665,-3.071,-3.0733,-3.0752,-3.0753,-3.075,-3.0723,-3.0726,-3.0752,-3.0793,-3.0769,-3.076,-3.0772,-3.0764,-2.9404,-2.9453,-2.956,-2.9617,-2.9664,-2.9765,-2.979,-2.9787,-2.9857,-2.9901,-2.9891,-2.9926,-2.9943,-2.9943,-2.9934,-2.9943,-2.9934,-2.9934,-2.9934,-2.9943,-2.9943,-2.9934,-2.9953,-2.9904,-2.9853,-2.9755,-2.9736,-2.9735,-2.9744,-2.978,-2.9771,-2.9789,-2.9789,-2.9771,-2.9789,-2.9834,-2.9823,-2.9849,-2.9874,-2.9926,-2.9994,-2.9991,-3.003,-3.0091,-3.015,-3.0173,-3.0252,-3.0234,-3.026,-3.0299,-3.0299,-3.0292,-3.0311,-3.0318,-3.0317,-3.0336,-3.0367,-3.0367,-3.0398,-3.0404,-3.0398,-3.0404,-3.0373,-3.0342,-3.0323,-3.0267,-3.0221,-3.02,-3.0145,-3.0098,-2.9932,-2.9876,-2.979,-2.9728,-2.9654,-2.9598,-2.9644,-2.9871,-3.002,-2.9906,-2.9609,-2.9454,-2.9421,-2.9497,-2.9576,-2.9588,-2.9598,-2.9645,-2.9719,-2.9782,-2.9815,-2.9891,-2.9988,-3.0087,-3.0187,-3.0299,-3.0442,-3.053,-3.06,-3.0657,-3.0678,-3.072,-3.0761,-3.0776,-3.0767,-3.0782,-3.0776,-3.0747,-3.0753,-3.0771,-3.079,-3.079,-3.0788,-3.078,-3.0778,-2.956,-2.9608,-2.9692,-2.9737,-2.9753,-2.9868,-2.9929,-2.9926,-2.9991,-3.0007,-3.0022,-3.008,-3.0072,-3.0087,-3.0087,-3.0095,-3.0068,-3.0068,-3.0053,-3.0053,-3.0053,-3.0046,-3.0072,-3.003,-2.9983,-2.9859,-2.9868,-2.9868,-2.9868,-2.9851,-2.9885,-2.9841,-2.9841,-2.9866,-2.9868,-2.9893,-2.9934,-2.9959,-2.9972,-3.003,-3.0087,-3.0083,-3.0147,-3.0211,-3.02,-3.0234,-3.0286,-3.0305,-3.0324,-3.0297,-3.0385,-3.0365,-3.0334,-3.0328,-3.0354,-3.0421,-3.0427,-3.0427,-3.0427,-3.0427,-3.0427,-3.0402,-3.0396,-3.0365,-3.0328,-3.0304,-3.0273,-3.0221,-3.0187,-3.0109,-2.9964,-2.9916,-2.9883,-2.9823,-2.9753,-2.9727,-2.9692,-2.9608,-2.9644,-2.9547,-2.9509,-2.9454,-2.9531,-2.9625,-2.9673,-2.972,-2.9729,-2.9747,-2.9816,-2.9885,-2.9924,-2.9961,-3.0072,-3.0168,-3.026,-3.0377,-3.053,-3.0582,-3.0649,-3.0678,-3.0716,-3.0751,-3.0786,-3.0782,-3.0793,-3.0786,-3.0817,-3.0806,-3.0807,-3.0804,-3.0809,-3.0815,-3.0812,-3.0785,-3.0803,-2.9673,-2.9709,-2.9816,-2.9868,-2.9872,-2.9948,-3.0007,-3.0065,-3.0087,-3.0087,-3.0095,-3.0095,-3.011,-3.011,-3.0083,-3.0102,-3.0117,-3.0125,-3.0098,-3.0117,-3.0117,-3.0098,-3.0125,-3.0125,-3.0076,-3.0065,-3.0049,-3.0049,-3.0041,-3.0057,-3.0007,-3.0022,-3.0022,-3.0022,-3.0014,-3.0038,-3.0038,-3.0053,-3.0068,-3.0091,-3.0128,-3.0157,-3.0206,-3.0279,-3.026,-3.0286,-3.0317,-3.0361,-3.0385,-3.04,-3.0453,-3.0463,-3.0463,-3.0463,-3.0463,-3.0458,-3.0458,-3.0477,-3.0477,-3.0483,-3.0488,-3.0463,-3.0442,-3.0386,-3.0369,-3.034,-3.031,-3.0286,-3.0221,-3.0164,-3.0079,-3.0019,-2.9956,-2.9907,-2.9866,-2.9842,-2.9799,-2.9764,-2.9682,-2.9589,-2.9532,-2.9514,-2.9636,-2.9739,-2.9784,-2.981,-2.9827,-2.9842,-2.9891,-2.9975,-3.0038,-3.0098,-3.0164,-3.026,-3.0346,-3.0479,-3.0588,-3.0645,-3.068,-3.0724,-3.0756,-3.0772,-3.0786,-3.0808,-3.0799,-3.0788,-3.0815,-3.086,-3.0844,-3.0824,-3.0828,-3.0832,-3.0827,-3.0841,-3.0819,-2.9789,-2.9813,-2.9899,-2.9975,-3.0014,-3.0053,-3.0091,-3.0135,-3.0157,-3.0171,-3.0185,-3.0211,-3.0211,-3.0192,-3.0192,-3.0192,-3.0192,-3.0211,-3.0192,-3.0192,-3.0192,-3.0211,-3.0204,-3.0211,-3.0192,-3.0192,-3.0211,-3.0161,-3.0122,-3.0095,-3.0102,-3.0095,-3.0095,-3.0095,-3.0083,-3.0083,-3.0113,-3.0128,-3.015,-3.0152,-3.0187,-3.0233,-3.0273,-3.0286,-3.0317,-3.0361,-3.0371,-3.0406,-3.0442,-3.0463,-3.0519,-3.054,-3.055,-3.054,-3.0521,-3.05,-3.049,-3.0485,-3.0485,-3.0485,-3.0485,-3.0479,-3.0469,-3.0463,-3.0453,-3.0425,-3.0385,-3.0356,-3.0292,-3.0219,-3.0164,-3.0121,-3.0076,-3.003,-3.0018,-2.9978,-2.9945,-2.991,-2.9834,-2.9718,-2.9672,-2.9681,-2.9737,-2.9819,-2.989,-2.9914,-2.9918,-2.9948,-2.9988,-3.0049,-3.0128,-3.0192,-3.0253,-3.0367,-3.0444,-3.0545,-3.0632,-3.0684,-3.0714,-3.0751,-3.0782,-3.078,-3.0819,-3.0855,-3.0841,-3.0803,-3.0847,-3.0889,-3.0873,-3.0855,-3.0874,-3.0874,-3.0874,-3.0871,-3.085,-2.9934,-2.9948,-3.0014,-3.0061,-3.0125,-3.0109,-3.0171,-3.0206,-3.0214,-3.0253,-3.0312,-3.0305,-3.0305,-3.0292,-3.0286,-3.0305,-3.0312,-3.0305,-3.0299,-3.0279,-3.0279,-3.0305,-3.0312,-3.0312,-3.0299,-3.0266,-3.0292,-3.0252,-3.0183,-3.0142,-3.0147,-3.0161,-3.0147,-3.0121,-3.0135,-3.0164,-3.0159,-3.0199,-3.0233,-3.0241,-3.0292,-3.0305,-3.0324,-3.0322,-3.0371,-3.0419,-3.0422,-3.0479,-3.0514,-3.0535,-3.0564,-3.0612,-3.0601,-3.0613,-3.058,-3.054,-3.052,-3.0535,-3.0515,-3.052,-3.0511,-3.053,-3.0525,-3.0519,-3.0509,-3.0502,-3.0483,-3.0424,-3.0349,-3.0286,-3.0226,-3.0206,-3.019,-3.014,-3.0117,-3.0102,-3.003,-3.0007,-2.9991,-2.9907,-2.9836,-2.9839,-2.9876,-2.992,-2.9989,-3.0021,-3.0022,-3.0061,-3.0098,-3.0145,-3.0219,-3.0273,-3.0349,-3.0472,-3.055,-3.0576,-3.0653,-3.0678,-3.0742,-3.0777,-3.0786,-3.0786,-3.0839,-3.0867,-3.0869,-3.085,-3.0894,-3.0915,-3.0896,-3.0896,-3.0916,-3.0918,-3.0898,-3.0898,-3.0894,-3.0022,-3.0061,-3.0098,-3.0135,-3.0197,-3.0187,-3.0221,-3.0292,-3.0279,-3.0299,-3.0299,-3.0312,-3.0299,-3.0318,-3.0299,-3.0312,-3.0318,-3.0318,-3.0324,-3.0324,-3.0324,-3.0324,-3.0318,-3.0312,-3.0318,-3.0324,-3.0318,-3.0305,-3.0279,-3.0253,-3.026,-3.0272,-3.0266,-3.026,-3.024,-3.024,-3.0273,-3.0279,-3.0279,-3.0286,-3.0317,-3.0361,-3.0371,-3.0406,-3.0453,-3.0493,-3.049,-3.0545,-3.0588,-3.0598,-3.0595,-3.0613,-3.0621,-3.0661,-3.0692,-3.0657,-3.0625,-3.0574,-3.0589,-3.058,-3.058,-3.0591,-3.0592,-3.0574,-3.0574,-3.0544,-3.0497,-3.041,-3.0373,-3.0368,-3.0318,-3.0279,-3.0259,-3.0225,-3.019,-3.0161,-3.0106,-3.0113,-3.0098,-3.0091,-3.0015,-2.9984,-3.0014,-3.0057,-3.008,-3.011,-3.0132,-3.0169,-3.0211,-3.024,-3.0305,-3.0355,-3.0419,-3.053,-3.0606,-3.0641,-3.0671,-3.071,-3.0752,-3.0802,-3.0803,-3.08,-3.0829,-3.0854,-3.0855,-3.0876,-3.0897,-3.0917,-3.0917,-3.0918,-3.0918,-3.0918,-3.0918,-3.0918,-3.0918,-3.0164,-3.0142,-3.0152,-3.0187,-3.0246,-3.026,-3.0267,-3.0299,-3.0305,-3.0311,-3.0343,-3.0362,-3.0362,-3.0362,-3.0362,-3.0343,-3.0362,-3.0362,-3.0343,-3.0343,-3.0362,-3.0362,-3.0368,-3.0362,-3.0362,-3.0362,-3.0362,-3.0368,-3.0356,-3.0331,-3.0312,-3.0312,-3.0312,-3.0305,-3.0318,-3.0312,-3.0305,-3.0305,-3.0336,-3.0365,-3.0364,-3.0406,-3.0466,-3.0463,-3.0505,-3.0545,-3.0559,-3.0573,-3.0623,-3.066,-3.0669,-3.0649,-3.066,-3.0678,-3.0707,-3.0707,-3.0681,-3.0667,-3.0668,-3.0657,-3.0649,-3.0641,-3.0636,-3.0606,-3.0583,-3.0579,-3.0563,-3.053,-3.048,-3.0433,-3.038,-3.0362,-3.0324,-3.0273,-3.0246,-3.0226,-3.0225,-3.0206,-3.0206,-3.0206,-3.0173,-3.0145,-3.0128,-3.0159,-3.0173,-3.015,-3.0185,-3.0194,-3.026,-3.0324,-3.0392,-3.0455,-3.0519,-3.0583,-3.0649,-3.0683,-3.0727,-3.0745,-3.0767,-3.0807,-3.0817,-3.0828,-3.0855,-3.0878,-3.0898,-3.0898,-3.0918,-3.0918,-3.0918,-3.0918,-3.0918,-3.0918,-3.0918,-3.0918,-3.0918,-3.0266,-3.0233,-3.024,-3.0247,-3.0305,-3.0305,-3.0324,-3.0336,-3.0316,-3.0348,-3.0379,-3.0398,-3.0398,-3.0404,-3.0398,-3.0398,-3.0398,-3.0404,-3.039,-3.039,-3.0396,-3.0421,-3.0427,-3.0427,-3.0427,-3.0433,-3.0433,-3.0433,-3.0416,-3.0373,-3.0368,-3.0318,-3.0324,-3.0324,-3.0337,-3.0324,-3.0317,-3.0334,-3.0381,-3.0422,-3.0433,-3.0504,-3.0519,-3.052,-3.0569,-3.0616,-3.063,-3.0621,-3.0673,-3.0692,-3.072,-3.0717,-3.0727,-3.0725,-3.0737,-3.0739,-3.072,-3.0737,-3.0716,-3.0714,-3.0706,-3.0695,-3.0657,-3.0629,-3.0615,-3.0621,-3.0612,-3.0582,-3.0544,-3.0488,-3.045,-3.0427,-3.0392,-3.0362,-3.0311,-3.0324,-3.0312,-3.0279,-3.0266,-3.0253,-3.0253,-3.0247,-3.0233,-3.0256,-3.0256,-3.0213,-3.0227,-3.0241,-3.0305,-3.0373,-3.045,-3.0534,-3.0583,-3.0636,-3.0661,-3.0711,-3.0753,-3.0772,-3.0786,-3.0805,-3.0832,-3.0856,-3.0898,-3.0918,-3.0916,-3.0916,-3.0916,-3.0917,-3.0918,-3.0918,-3.0918,-3.0918,-3.0918,-3.0918,-3.0918,-3.0311,-3.0292,-3.0299,-3.0311,-3.0304,-3.0304,-3.0342,-3.0379,-3.0379,-3.0379,-3.0404,-3.0404,-3.0404,-3.0404,-3.039,-3.039,-3.0385,-3.0404,-3.0408,-3.0406,-3.0411,-3.0447,-3.0458,-3.0483,-3.0488,-3.0469,-3.0483,-3.0488,-3.0493,-3.0453,-3.0419,-3.039,-3.0385,-3.0398,-3.0398,-3.0385,-3.0396,-3.0386,-3.0439,-3.0479,-3.0514,-3.0545,-3.0593,-3.0583,-3.0595,-3.0629,-3.0692,-3.0695,-3.0697,-3.0714,-3.0761,-3.0784,-3.0772,-3.0767,-3.0776,-3.0778,-3.0786,-3.0784,-3.0776,-3.0745,-3.07,-3.0707,-3.0691,-3.0664,-3.0638,-3.061,-3.06,-3.0622,-3.0578,-3.055,-3.0514,-3.0474,-3.0461,-3.0427,-3.0379,-3.0355,-3.0343,-3.0318,-3.0305,-3.0318,-3.0299,-3.0311,-3.0311,-3.0318,-3.0298,-3.0254,-3.0292,-3.031,-3.0371,-3.0436,-3.0509,-3.0583,-3.0651,-3.07,-3.069,-3.0716,-3.0765,-3.0794,-3.0799,-3.0832,-3.0878,-3.0898,-3.0877,-3.0895,-3.0872,-3.0893,-3.0913,-3.0892,-3.0872,-3.0894,-3.0915,-3.0916,-3.0916,-3.0917,-3.0917,-3.0359,-3.0373,-3.0359,-3.0354,-3.0373,-3.0348,-3.0379,-3.0404,-3.0404,-3.0404,-3.0404,-3.0404,-3.0404,-3.039,-3.0389,-3.0394,-3.04,-3.0455,-3.0453,-3.0463,-3.0469,-3.0474,-3.0485,-3.049,-3.0485,-3.0509,-3.049,-3.0485,-3.0485,-3.0495,-3.0499,-3.0472,-3.0453,-3.0447,-3.0466,-3.0461,-3.0458,-3.0469,-3.049,-3.051,-3.0579,-3.0583,-3.061,-3.0604,-3.0645,-3.0668,-3.0706,-3.0763,-3.0761,-3.0778,-3.0799,-3.0795,-3.0808,-3.0799,-3.0804,-3.0807,-3.0792,-3.0794,-3.0789,-3.0767,-3.076,-3.0764,-3.077,-3.0752,-3.0672,-3.0667,-3.0657,-3.0649,-3.0608,-3.0582,-3.0564,-3.0569,-3.0549,-3.0488,-3.0455,-3.0419,-3.039,-3.0373,-3.0355,-3.0349,-3.0368,-3.0374,-3.0374,-3.0387,-3.0336,-3.0311,-3.0334,-3.0375,-3.0428,-3.049,-3.055,-3.0601,-3.0661,-3.0713,-3.072,-3.075,-3.0792,-3.0813,-3.0828,-3.0857,-3.0879,-3.0834,-3.0828,-3.0826,-3.0843,-3.0839,-3.0838,-3.0837,-3.0841,-3.0868,-3.0892,-3.0914,-3.0915,-3.0914,-3.0916,-3.0436,-3.0419,-3.0436,-3.0411,-3.0402,-3.0408,-3.0433,-3.0433,-3.0414,-3.0433,-3.0433,-3.0414,-3.0414,-3.0425,-3.0417,-3.0428,-3.0453,-3.0488,-3.0485,-3.0495,-3.0519,-3.051,-3.052,-3.053,-3.0525,-3.053,-3.053,-3.0535,-3.0521,-3.053,-3.0535,-3.0535,-3.0525,-3.052,-3.0504,-3.0539,-3.053,-3.0535,-3.054,-3.0554,-3.0601,-3.0613,-3.0633,-3.0653,-3.0687,-3.0714,-3.073,-3.0776,-3.0777,-3.0795,-3.0792,-3.0785,-3.0815,-3.0821,-3.0824,-3.0826,-3.0828,-3.0828,-3.0807,-3.0792,-3.0792,-3.0802,-3.0791,-3.0777,-3.0759,-3.0716,-3.0711,-3.069,-3.0645,-3.0614,-3.0634,-3.0606,-3.0578,-3.054,-3.053,-3.0509,-3.0453,-3.0406,-3.0389,-3.0383,-3.0396,-3.0398,-3.0392,-3.0392,-3.0379,-3.0354,-3.0358,-3.0398,-3.0455,-3.0515,-3.0583,-3.0632,-3.0665,-3.0711,-3.0728,-3.0776,-3.0788,-3.0787,-3.0817,-3.084,-3.0855,-3.0806,-3.0794,-3.0809,-3.0803,-3.0794,-3.0792,-3.0813,-3.0828,-3.0862,-3.0866,-3.0869,-3.0871,-3.0871,-3.0913,-3.0504,-3.0485,-3.0479,-3.0463,-3.0422,-3.0469,-3.0479,-3.0474,-3.0493,-3.0474,-3.0493,-3.0493,-3.0493,-3.0493,-3.0479,-3.0509,-3.049,-3.0514,-3.051,-3.053,-3.0569,-3.0573,-3.0586,-3.058,-3.0604,-3.0602,-3.0597,-3.0593,-3.0597,-3.0593,-3.0597,-3.0593,-3.0608,-3.0563,-3.0525,-3.0574,-3.0617,-3.0602,-3.058,-3.0617,-3.0633,-3.0645,-3.0683,-3.0701,-3.0724,-3.0748,-3.0767,-3.0784,-3.0784,-3.0783,-3.0815,-3.0823,-3.0829,-3.0853,-3.0875,-3.0897,-3.0877,-3.0859,-3.082,-3.0793,-3.0803,-3.0794,-3.0806,-3.0796,-3.078,-3.0782,-3.0762,-3.0725,-3.0717,-3.0687,-3.0661,-3.0637,-3.0604,-3.0597,-3.0607,-3.0579,-3.0505,-3.0449,-3.0433,-3.0406,-3.0402,-3.0404,-3.0404,-3.0385,-3.0389,-3.0394,-3.0392,-3.0419,-3.0481,-3.053,-3.0591,-3.0665,-3.069,-3.0739,-3.0757,-3.0776,-3.0801,-3.0795,-3.0801,-3.0817,-3.0828,-3.0795,-3.0801,-3.0788,-3.0778,-3.0769,-3.0784,-3.0801,-3.0802,-3.0817,-3.0812,-3.0817,-3.0821,-3.0824,-3.0865,-3.0545,-3.0486,-3.0486,-3.051,-3.0515,-3.0509,-3.0485,-3.0485,-3.0485,-3.0485,-3.0485,-3.0485,-3.0485,-3.0495,-3.054,-3.0574,-3.0559,-3.0573,-3.0567,-3.0567,-3.058,-3.0604,-3.0621,-3.0641,-3.0669,-3.0673,-3.0661,-3.0672,-3.0672,-3.0672,-3.0653,-3.0653,-3.0665,-3.0641,-3.058,-3.06,-3.0604,-3.0608,-3.0633,-3.0677,-3.0672,-3.0697,-3.072,-3.0761,-3.0759,-3.0779,-3.0798,-3.0792,-3.0789,-3.08,-3.0827,-3.0874,-3.0857,-3.0878,-3.0898,-3.0878,-3.0857,-3.0816,-3.0795,-3.0799,-3.082,-3.0817,-3.081,-3.0805,-3.0798,-3.0798,-3.0784,-3.0772,-3.0764,-3.0739,-3.0717,-3.0687,-3.0657,-3.0649,-3.0632,-3.0616,-3.0559,-3.051,-3.0465,-3.0409,-3.04,-3.0396,-3.039,-3.0402,-3.0406,-3.0453,-3.0444,-3.0495,-3.0535,-3.0563,-3.0606,-3.068,-3.0724,-3.0767,-3.0802,-3.0792,-3.0811,-3.0819,-3.0819,-3.0808,-3.0795,-3.0798,-3.078,-3.0779,-3.075,-3.0742,-3.0753,-3.0748,-3.0756,-3.0774,-3.0778,-3.0796,-3.0804,-3.0807,-3.0809,-3.0573,-3.0535,-3.0535,-3.0568,-3.0573,-3.0559,-3.055,-3.0535,-3.0535,-3.0535,-3.054,-3.0516,-3.0521,-3.055,-3.0588,-3.0601,-3.0606,-3.0636,-3.0637,-3.0641,-3.0634,-3.0638,-3.0649,-3.0676,-3.0694,-3.0694,-3.0701,-3.0711,-3.0711,-3.0711,-3.0691,-3.0691,-3.0711,-3.0674,-3.0633,-3.063,-3.0642,-3.0645,-3.0664,-3.0723,-3.072,-3.0736,-3.0753,-3.0774,-3.0793,-3.0788,-3.0799,-3.0795,-3.0807,-3.0831,-3.0875,-3.0918,-3.0898,-3.0878,-3.0857,-3.0832,-3.0825,-3.08,-3.0799,-3.0799,-3.0812,-3.0857,-3.084,-3.0838,-3.0814,-3.0804,-3.0796,-3.0786,-3.0804,-3.0767,-3.075,-3.0722,-3.0711,-3.0706,-3.0677,-3.0645,-3.0597,-3.055,-3.0496,-3.046,-3.0417,-3.0419,-3.0402,-3.0419,-3.0422,-3.0469,-3.0519,-3.0554,-3.0588,-3.0613,-3.0638,-3.0688,-3.0751,-3.0767,-3.0799,-3.0784,-3.0817,-3.084,-3.0832,-3.0792,-3.0771,-3.0767,-3.0767,-3.0764,-3.073,-3.0717,-3.0707,-3.0707,-3.0717,-3.0736,-3.0739,-3.076,-3.0778,-3.0786,-3.079,-3.061,-3.0606,-3.0606,-3.0606,-3.0606,-3.0613,-3.0593,-3.0602,-3.0621,-3.0578,-3.0597,-3.0597,-3.0593,-3.0602,-3.0606,-3.0629,-3.0618,-3.0657,-3.0668,-3.0699,-3.0697,-3.0707,-3.0701,-3.0733,-3.0722,-3.0706,-3.0709,-3.0737,-3.0709,-3.0714,-3.0712,-3.0709,-3.0734,-3.0709,-3.0703,-3.0694,-3.0701,-3.0701,-3.0713,-3.0748,-3.0762,-3.0774,-3.0789,-3.0786,-3.0799,-3.081,-3.082,-3.0809,-3.0836,-3.0858,-3.0879,-3.0878,-3.0875,-3.0832,-3.0807,-3.0798,-3.0785,-3.0799,-3.0774,-3.0774,-3.0801,-3.0816,-3.085,-3.0878,-3.0859,-3.0838,-3.0834,-3.0809,-3.0816,-3.0806,-3.0774,-3.0767,-3.0756,-3.0733,-3.0707,-3.0668,-3.0621,-3.0582,-3.055,-3.051,-3.0488,-3.0461,-3.0425,-3.0417,-3.0449,-3.0476,-3.0525,-3.0592,-3.0623,-3.0657,-3.0683,-3.0713,-3.0752,-3.0784,-3.0794,-3.0814,-3.0801,-3.0836,-3.0799,-3.0771,-3.0762,-3.0753,-3.073,-3.0704,-3.0699,-3.0688,-3.0668,-3.0668,-3.0672,-3.0694,-3.0714,-3.0742,-3.0767,-3.0765,-3.0772,-3.0671,-3.0671,-3.068,-3.068,-3.0671,-3.0681,-3.0637,-3.061,-3.0602,-3.0602,-3.0606,-3.0641,-3.0673,-3.0653,-3.0676,-3.0667,-3.0678,-3.0669,-3.0698,-3.071,-3.0742,-3.0748,-3.0759,-3.0772,-3.0762,-3.0769,-3.0772,-3.0774,-3.0759,-3.0759,-3.0759,-3.078,-3.0754,-3.0776,-3.0774,-3.0754,-3.0757,-3.0767,-3.0777,-3.0784,-3.0793,-3.0784,-3.0796,-3.0809,-3.0817,-3.0825,-3.0852,-3.0876,-3.0879,-3.0879,-3.0837,-3.0813,-3.0807,-3.08,-3.0792,-3.0784,-3.0791,-3.0779,-3.0752,-3.0757,-3.0786,-3.0791,-3.081,-3.0836,-3.0851,-3.0857,-3.084,-3.0839,-3.0815,-3.079,-3.0799,-3.0801,-3.0778,-3.0755,-3.0731,-3.0695,-3.0653,-3.0629,-3.0595,-3.0559,-3.0534,-3.0488,-3.0453,-3.0449,-3.0476,-3.0501,-3.0554,-3.0615,-3.0657,-3.0688,-3.0727,-3.0734,-3.0774,-3.0803,-3.0828,-3.0839,-3.0818,-3.0827,-3.0783,-3.075,-3.0737,-3.0704,-3.069,-3.0657,-3.0649,-3.0629,-3.0614,-3.0633,-3.0645,-3.0657,-3.0661,-3.0697,-3.073,-3.0748,-3.0742,-3.0739,-3.0736,-3.0749,-3.0746,-3.0739,-3.0751,-3.0713,-3.0678,-3.0644,-3.0637,-3.0637,-3.0671,-3.0697,-3.0697,-3.0695,-3.0707,-3.0755,-3.0751,-3.0739,-3.0752,-3.076,-3.0786,-3.0795,-3.0802,-3.0784,-3.079,-3.0794,-3.0794,-3.0801,-3.0799,-3.0798,-3.0796,-3.0799,-3.0799,-3.0798,-3.078,-3.0798,-3.079,-3.0788,-3.0794,-3.0799,-3.0806,-3.0816,-3.0846,-3.0849,-3.0874,-3.0877,-3.0898,-3.0897,-3.0857,-3.0809,-3.0801,-3.0788,-3.0773,-3.0756,-3.0742,-3.0748,-3.0736,-3.071,-3.0733,-3.0758,-3.0761,-3.0767,-3.0777,-3.0794,-3.0815,-3.0829,-3.0838,-3.082,-3.08,-3.0814,-3.0824,-3.0809,-3.0788,-3.0765,-3.0734,-3.0698,-3.068,-3.0629,-3.0588,-3.0545,-3.05,-3.049,-3.0486,-3.0506,-3.0545,-3.0577,-3.0621,-3.0665,-3.0697,-3.0739,-3.0777,-3.0792,-3.0816,-3.0836,-3.0839,-3.0813,-3.0777,-3.0749,-3.0711,-3.0694,-3.0671,-3.0626,-3.0589,-3.0554,-3.0577,-3.0577,-3.0612,-3.0626,-3.0625,-3.0623,-3.0637,-3.0672,-3.0697,-3.0711,-3.0799,-3.0791,-3.0789,-3.0791,-3.0791,-3.0801,-3.0804,-3.0782,-3.072,-3.0706,-3.0725,-3.0706,-3.0709,-3.0728,-3.0717,-3.0745,-3.0772,-3.0782,-3.0772,-3.0802,-3.079,-3.0796,-3.0798,-3.0803,-3.0827,-3.0804,-3.0806,-3.0813,-3.0825,-3.0828,-3.0812,-3.0803,-3.0807,-3.083,-3.0833,-3.0819,-3.0839,-3.0838,-3.0813,-3.0813,-3.0819,-3.0823,-3.0827,-3.0894,-3.0897,-3.0918,-3.0898,-3.0877,-3.0851,-3.0805,-3.0794,-3.0785,-3.0776,-3.0747,-3.0716,-3.0691,-3.0694,-3.0664,-3.0656,-3.0656,-3.066,-3.066,-3.0667,-3.0688,-3.0709,-3.0754,-3.0803,-3.0823,-3.0793,-3.0799,-3.082,-3.0818,-3.0793,-3.0798,-3.0778,-3.0752,-3.0739,-3.0695,-3.0649,-3.0615,-3.0578,-3.053,-3.0535,-3.0545,-3.0545,-3.0564,-3.0595,-3.0618,-3.0667,-3.0704,-3.0745,-3.08,-3.0809,-3.0828,-3.0859,-3.0856,-3.0785,-3.0742,-3.0709,-3.0709,-3.0704,-3.0653,-3.0595,-3.0564,-3.053,-3.0554,-3.0568,-3.0573,-3.0564,-3.0559,-3.0559,-3.0573,-3.0604,-3.0633,-3.0657,-3.079,-3.0788,-3.0788,-3.0788,-3.0788,-3.079,-3.079,-3.079,-3.0786,-3.0774,-3.0796,-3.0765,-3.0767,-3.0767,-3.0754,-3.078,-3.0786,-3.0788,-3.0792,-3.0798,-3.0806,-3.0813,-3.0816,-3.0839,-3.0864,-3.0868,-3.0869,-3.0866,-3.0866,-3.0867,-3.0868,-3.0889,-3.0888,-3.0886,-3.0886,-3.0871,-3.0871,-3.0871,-3.0871,-3.087,-3.0872,-3.0874,-3.0875,-3.0898,-3.0898,-3.0898,-3.0876,-3.085,-3.0825,-3.0799,-3.0794,-3.0762,-3.0739,-3.0717,-3.0667,-3.0638,-3.0633,-3.0597,-3.0561,-3.0557,-3.0557,-3.0557,-3.0561,-3.0582,-3.061,-3.0694,-3.074,-3.0773,-3.0794,-3.0807,-3.0816,-3.08,-3.0801,-3.0795,-3.0803,-3.0781,-3.0772,-3.0719,-3.0672,-3.0633,-3.0595,-3.0588,-3.0588,-3.0588,-3.0583,-3.0582,-3.0604,-3.0626,-3.0707,-3.0748,-3.0747,-3.0799,-3.0784,-3.0817,-3.0859,-3.085,-3.0792,-3.0722,-3.0678,-3.0675,-3.0692,-3.0608,-3.0545,-3.052,-3.049,-3.0513,-3.0507,-3.0504,-3.0519,-3.0505,-3.051,-3.0545,-3.0525,-3.0554,-3.0572,-3.0837,-3.0795,-3.0791,-3.0789,-3.0809,-3.0833,-3.0834,-3.0854,-3.0838,-3.0834,-3.0842,-3.0815,-3.079,-3.0788,-3.0796,-3.0804,-3.0806,-3.0788,-3.0812,-3.0836,-3.0839,-3.0846,-3.0868,-3.0889,-3.0891,-3.0894,-3.0914,-3.0913,-3.0914,-3.0914,-3.0913,-3.0914,-3.0914,-3.0914,-3.0914,-3.0915,-3.0916,-3.0916,-3.0917,-3.0918,-3.0898,-3.0898,-3.0898,-3.0898,-3.0876,-3.0874,-3.085,-3.082,-3.0809,-3.0792,-3.0774,-3.0745,-3.0701,-3.068,-3.0649,-3.0615,-3.0568,-3.0521,-3.0477,-3.0442,-3.0456,-3.0451,-3.0462,-3.0492,-3.054,-3.0618,-3.0669,-3.0695,-3.0723,-3.0747,-3.0795,-3.0788,-3.0798,-3.0801,-3.0796,-3.0783,-3.0769,-3.0734,-3.0707,-3.0688,-3.0629,-3.0591,-3.0597,-3.0597,-3.0591,-3.0589,-3.061,-3.0676,-3.073,-3.0772,-3.0786,-3.0795,-3.0793,-3.08,-3.0838,-3.0824,-3.0774,-3.0716,-3.0646,-3.0637,-3.0625,-3.0559,-3.0495,-3.0474,-3.0453,-3.0455,-3.0461,-3.0453,-3.0458,-3.0444,-3.0463,-3.0488,-3.0488,-3.0474,-3.0515,-3.0872,-3.0811,-3.0824,-3.0804,-3.0824,-3.0867,-3.0908,-3.0909,-3.0912,-3.0914,-3.0891,-3.0836,-3.0806,-3.0806,-3.0806,-3.0812,-3.0817,-3.0822,-3.0846,-3.0868,-3.0911,-3.0892,-3.0893,-3.0914,-3.0915,-3.0915,-3.0916,-3.0916,-3.0916,-3.0916,-3.0916,-3.0915,-3.0915,-3.0916,-3.0916,-3.0917,-3.0918,-3.0918,-3.0917,-3.0896,-3.0877,-3.0878,-3.0897,-3.0874,-3.0847,-3.08,-3.0794,-3.0803,-3.0784,-3.0777,-3.0758,-3.0697,-3.0661,-3.0632,-3.0602,-3.055,-3.0495,-3.0439,-3.0406,-3.0369,-3.0371,-3.0385,-3.0383,-3.0406,-3.0458,-3.0501,-3.0546,-3.0603,-3.0646,-3.0695,-3.0737,-3.0785,-3.0784,-3.0798,-3.0801,-3.0793,-3.0762,-3.0733,-3.0739,-3.072,-3.0661,-3.0621,-3.0604,-3.0604,-3.0617,-3.0614,-3.0653,-3.0717,-3.0759,-3.0772,-3.0781,-3.0806,-3.0818,-3.082,-3.0834,-3.0794,-3.0774,-3.0675,-3.0623,-3.0603,-3.0558,-3.0496,-3.0444,-3.0411,-3.0414,-3.0408,-3.0421,-3.0427,-3.0394,-3.04,-3.0361,-3.0381,-3.045,-3.0436,-3.0453,-3.0894,-3.0874,-3.0873,-3.0873,-3.0892,-3.0893,-3.0913,-3.0913,-3.0914,-3.0914,-3.0914,-3.0893,-3.0871,-3.089,-3.0871,-3.0871,-3.0869,-3.0871,-3.0873,-3.0894,-3.0914,-3.0915,-3.0916,-3.0916,-3.0917,-3.0918,-3.0918,-3.0918,-3.0918,-3.0918,-3.0918,-3.0918,-3.0918,-3.0917,-3.0897,-3.0897,-3.0897,-3.0895,-3.0894,-3.0872,-3.0848,-3.085,-3.0851,-3.0827,-3.0801,-3.0789,-3.0794,-3.0798,-3.0784,-3.0778,-3.072,-3.068,-3.0632,-3.0583,-3.053,-3.0477,-3.0419,-3.0373,-3.0343,-3.0267,-3.026,-3.0273,-3.0267,-3.0286,-3.0317,-3.0354,-3.0425,-3.0516,-3.0561,-3.0625,-3.0681,-3.0757,-3.079,-3.0786,-3.08,-3.0795,-3.0788,-3.0776,-3.0762,-3.0727,-3.0687,-3.0653,-3.0606,-3.061,-3.0633,-3.0634,-3.066,-3.0724,-3.0786,-3.0784,-3.0794,-3.0814,-3.082,-3.0854,-3.088,-3.0813,-3.0769,-3.0668,-3.0595,-3.0561,-3.0516,-3.046,-3.0417,-3.0408,-3.0396,-3.041,-3.0398,-3.0392,-3.0386,-3.0373,-3.029,-3.0271,-3.034,-3.0385,-3.0396]},{"header":{"parameterUnit":"m.s-1","parameterCategory":1,"la1":31.0,"la2":29.5877,"lo1":-88.7671,"lo2":-86.6584,"dy":0.0162,"dx":0.0185,"nx":115,"ny":88,"refTime":"2024-07-22T00:00:00:Z","depth":0,"parameterNumber":3,"parameterNumberName":"V-component_of_WINDS"},"data":[0.0,0.0,0.0,0.0,0.0,0.0,0.0,0.0,0.0,0.0,0.0,0.0,0.0,0.0,0.0,0.0,0.0,0.0,0.0,0.0,0.0,0.0,0.0,0.0,0.0,0.0,0.0,0.0,0.0,0.0,0.0,0.0,0.0,0.0,0.0,0.0,0.0,0.0,0.0,0.0,0.0,0.0,0.0,0.0,0.0,0.0,0.0,0.0,0.0,0.0,0.0,0.0,0.0,0.0,0.0,0.0,0.0,0.0,0.0,0.0,0.0,0.0,0.0,0.0,0.0,0.0,0.0,0.0,0.0,0.0,0.0,0.0,0.0,0.0,0.0,0.0,0.0,0.0,0.0,0.0,0.0,0.0,0.0,0.0,0.0,0.0,0.0,0.0,0.0,0.0,0.0,0.0,0.0,0.0,0.0,0.0,0.0,0.0,0.0,0.0,0.0,0.0,0.0,0.0,0.0,0.0,0.0,0.0,0.0,0.0,0.0,0.0,0.0,0.0,0.0,0.0,0.0,0.0,0.0,0.0,0.0,0.0,0.0,0.0,0.0,0.0,0.0,0.0,0.0,0.0,0.0,0.0,0.0,0.0,0.0,0.0,0.0,0.0,0.0,0.0,0.0,0.0,0.0,0.0,0.0,0.0,0.0,0.0,0.0,0.0,0.0,0.0,0.0,0.0,0.0,0.0,0.0,0.0,0.0,0.0,0.0,0.0,0.0,0.0,0.0,0.0,0.0,0.0,0.0,0.0,0.0,0.0,0.0,0.0,0.0,0.0,0.0,0.0,0.0,0.0,0.0,0.0,0.0,0.0,0.0,0.0,0.0,0.0,0.0,0.0,0.0,0.0,0.0,0.0,0.0,0.0,0.0,0.0,0.0,0.0,0.0,0.0,0.0,0.0,0.0,0.0,0.0,0.0,0.0,0.0,0.0,0.0,0.0,0.0,0.0,0.0,0.0,0.0,0.0,0.0,0.0,0.0,0.0,0.0,0.0,0.0,0.0,0.0,0.0,0.0,0.0,0.0,0.0,0.0,0.0,0.0,0.0,0.0,0.0,0.0,0.0,0.0,0.0,0.0,0.0,0.0,0.0,0.0,0.0,0.0,0.0,0.0,0.0,0.0,0.0,0.0,0.0,0.0,0.0,0.0,0.0,0.0,0.0,0.0,0.0,0.0,0.0,0.0,0.0,0.0,0.0,0.0,0.0,0.0,0.0,0.0,0.0,0.0,0.0,0.0,0.0,0.0,0.0,0.0,0.0,0.0,0.0,0.0,0.0,0.0,0.0,0.0,0.0,0.0,0.0,0.0,0.0,0.0,0.0,0.0,0.0,0.0,0.0,0.0,0.0,0.0,0.0,0.0,0.0,0.0,0.0,0.0,0.0,0.0,0.0,0.0,0.0,0.0,0.0,0.0,0.0,0.0,0.0,0.0,0.0,0.0,0.0,0.0,0.0,0.0,0.0,0.0,0.0,0.0,0.0,0.0,0.0,0.0,0.0,0.0,0.0,0.0,0.0,0.0,0.0,0.0,0.0,0.0,0.0,0.0,0.0,0.0,0.0,0.0,0.0,0.0,0.0,0.0,0.0,0.0,0.0,0.0,0.0,0.0,0.0,0.0,0.0,0.0,0.0,0.0,0.0,0.0,0.0,0.0,0.0,0.0,0.0,0.0,0.0,0.0,0.0,0.0,0.0,0.0,0.0,0.0,0.0,0.0,0.0,0.0,0.0,0.0,0.0,0.0,0.0,0.0,0.0,0.0,0.0,0.0,0.0,0.0,0.0,0.0,0.0,0.0,0.0,0.0,0.0,0.0,0.0,0.0,0.0,0.0,0.0,0.0,0.0,0.0,0.0,0.0,0.0,0.0,0.0,0.0,0.0,0.0,0.0,0.0,0.0,0.0,0.0,0.0,0.0,0.0,0.0,0.0,0.0,0.0,0.0,0.0,0.0,0.0,0.0,0.0,0.0,0.0,0.0,0.0,0.0,0.0,0.0,0.0,0.0,0.0,0.0,0.0,0.0,0.0,0.0,0.0,0.0,0.0,0.0,0.0,0.0,0.0,0.0,0.0,0.0,0.0,0.0,0.0,0.0,0.0,0.0,0.0,0.0,0.0,0.0,0.0,0.0,0.0,0.0,0.0,0.0,0.0,0.0,0.0,0.0,0.0,0.0,0.0,0.0,0.0,0.0,0.0,0.0,0.0,0.0,0.0,0.0,0.0,0.0,0.0,0.0,0.0,0.0,0.0,0.0,0.0,0.0,0.0,0.0,0.0,0.0,0.0,0.0,0.0,0.0,0.0,0.0,0.0,0.0,0.0,0.0,0.0,0.0,0.0,0.0,0.0,0.0,0.0,0.0,0.0,0.0,0.0,0.0,0.0,0.0,0.0,0.0,0.0,0.0,0.0,0.0,0.0,0.0,0.0,0.0,0.0,0.0,0.0,0.0,0.0,0.0,0.0,0.0,0.0,0.0,0.0,0.0,0.0,0.0,0.0,0.0,0.0,0.0,0.0,0.0,0.0,0.0,0.0,0.0,0.0,0.0,0.0,0.0,0.0,0.0,0.0,0.0,0.0,0.0,0.0,0.0,0.0,0.0,0.0,0.0,0.0,0.0,0.0,0.0,0.0,0.0,0.0,0.0,0.0,0.0,0.0,0.0,0.0,0.0,0.0,0.0,0.0,0.0,0.0,0.0,0.0,0.0,0.0,0.0,0.0,0.0,0.0,0.0,0.0,0.0,0.0,0.0,0.0,0.0,0.0,0.0,0.0,0.0,0.0,0.0,0.0,0.0,0.0,0.0,0.0,0.0,0.0,0.0,0.0,0.0,0.0,0.0,0.0,0.0,0.0,0.0,0.0,0.0,0.0,0.0,0.0,0.0,0.0,0.0,0.0,0.0,0.0,0.0,0.0,0.0,0.0,0.0,0.0,0.0,0.0,0.0,0.0,0.0,0.0,0.0,0.0,0.0,0.0,0.0,0.0,0.0,0.0,0.0,0.0,0.0,0.0,0.0,0.0,0.0,0.0,0.0,0.0,0.0,0.0,0.0,0.0,0.0,0.0,0.0,0.0,0.0,0.0,0.0,0.0,0.0,0.0,0.0,0.0,0.0,0.0,0.0,0.0,0.0,0.0,0.0,0.0,0.0,0.0,0.0,0.0,0.0,0.0,0.0,0.0,0.0,0.0,0.0,0.0,0.0,0.0,0.0,0.0,0.0,0.0,0.0,0.0,0.0,0.0,0.0,0.0,0.0,0.0,0.0,0.0,0.0,0.0,0.0,0.0,0.0,0.0,0.0,0.0,0.0,0.0,0.0,0.0,0.0,0.0,0.0,0.0,0.0,0.0,0.0,0.0,0.0,0.0,0.0,0.0,0.0,0.0,0.0,0.0,0.0,0.0,0.0,0.0,0.0,0.0,0.0,0.0,0.0,0.0,0.0,0.0,0.0,0.0,0.0,0.0,0.0,0.0,0.0,0.0,0.0,0.0,0.0,0.0,0.0,0.0,0.0,0.0,0.0,0.0,0.0,0.0,0.0,0.0,0.0,0.0,0.0,0.0,0.0,0.0,0.0,0.0,0.0,0.0,0.0,0.0,0.0,0.0,0.0,0.0,0.0,0.0,0.0,0.0,0.0,0.0,0.0,0.0,0.0,0.0,0.0,0.0,0.0,0.0,0.0,0.0,0.0,0.0,0.0,0.0,0.0,0.0,0.0,0.0,0.0,0.0,0.0,0.0,0.0,0.0,0.0,0.0,0.0,0.0,0.0,0.0,0.0,0.0,0.0,0.0,0.0,0.0,0.0,0.0,0.0,0.0,0.0,0.0,0.0,0.0,0.0,0.0,0.0,0.0,0.0,0.0,0.0,0.0,0.0,0.0,0.0,0.0,0.0,0.0,0.0,0.0,0.0,0.0,0.0,0.0,0.0,0.0,0.0,0.0,0.0,0.0,0.0,0.0,0.0,0.0,0.0,0.0,0.0,0.0,0.0,0.0,0.0,0.0,0.0,0.0,0.0,0.0,0.0,0.0,0.0,0.0,0.0,0.0,0.0,0.0,0.0,0.0,0.0,0.0,0.0,0.0,0.0,0.0,0.0,0.0,0.0,0.0,0.0,0.0,0.0,0.0,0.0,0.0,0.0,0.0,0.0,0.0,0.0,0.0,0.0,0.0,0.0,0.0,0.0,0.0,0.0,0.0,0.0,0.0,0.0,0.0,0.0,0.0,0.0,0.0,0.0,0.0,0.0,0.0,0.0,0.0,0.0,0.0,0.0,0.0,-0.8818,0.0,0.0,0.0,0.0,0.0,0.0,0.0,0.0,0.0,0.0,0.0,0.0,0.0,0.0,0.0,0.0,0.0,0.0,0.0,0.0,0.0,0.0,0.0,0.0,0.0,0.0,0.0,0.0,0.0,0.0,0.0,0.0,0.0,0.0,0.0,0.0,0.0,0.0,0.0,0.0,0.0,0.0,0.0,0.0,0.0,0.0,0.0,0.0,0.0,0.0,0.0,0.0,0.0,0.0,0.0,0.0,0.0,0.0,0.0,0.0,0.0,0.0,0.0,0.0,0.0,0.0,0.0,0.0,0.0,0.0,0.0,0.0,0.0,0.0,0.0,0.0,0.0,0.0,0.0,0.0,0.0,0.0,0.0,0.0,0.0,0.0,0.0,0.0,0.0,0.0,0.0,0.0,0.0,0.0,0.0,0.0,0.0,0.0,0.0,0.0,0.0,0.0,0.0,0.0,0.0,0.0,0.0,0.0,0.0,0.0,-1.0516,-1.0497,-1.0456,-1.0104,-0.9367,0.0,0.0,0.0,0.0,0.0,0.0,0.0,0.0,0.0,0.0,0.0,0.0,0.0,0.0,0.0,0.0,0.0,0.0,0.0,0.0,0.0,0.0,0.0,0.0,0.0,0.0,0.0,0.0,0.0,0.0,0.0,0.0,0.0,0.0,0.0,0.0,0.0,0.0,0.0,0.0,0.0,0.0,0.0,0.0,0.0,0.0,0.0,0.0,0.0,0.0,0.0,0.0,0.0,0.0,0.0,0.0,0.0,0.0,0.0,0.0,0.0,0.0,0.0,0.0,0.0,0.0,0.0,0.0,0.0,0.0,0.0,0.0,0.0,0.0,0.0,0.0,0.0,0.0,0.0,0.0,0.0,0.0,0.0,0.0,0.0,0.0,0.0,0.0,0.0,0.0,0.0,0.0,0.0,0.0,0.0,0.0,0.0,0.0,0.0,0.0,0.0,0.0,0.0,0.0,0.0,0.0,0.0,0.0,0.0,0.0,0.0,0.0,-1.0593,-1.0268,-0.9779,0.0,0.0,0.0,0.0,0.0,0.0,0.0,0.0,0.0,0.0,0.0,0.0,0.0,0.0,0.0,0.0,0.0,0.0,0.0,0.0,0.0,0.0,0.0,0.0,0.0,0.0,0.0,0.0,0.0,0.0,0.0,0.0,0.0,0.0,0.0,0.0,0.0,0.0,0.0,0.0,0.0,0.0,0.0,0.0,0.0,0.0,0.0,0.0,0.0,0.0,0.0,0.0,0.0,0.0,0.0,0.0,0.0,0.0,0.0,0.0,0.0,0.0,0.0,0.0,0.0,0.0,0.0,0.0,0.0,0.0,0.0,0.0,0.0,0.0,0.0,0.0,0.0,0.0,0.0,0.0,0.0,0.0,0.0,0.0,0.0,0.0,0.0,0.0,0.0,0.0,0.0,0.0,0.0,0.0,0.0,0.0,0.0,0.0,0.0,0.0,0.0,0.0,0.0,0.0,0.0,0.0,0.0,0.0,0.0,0.0,-1.0854,-1.0798,-1.0925,0.0,-0.9757,0.0,0.0,0.0,0.0,0.0,0.0,0.0,0.0,0.0,0.0,0.0,0.0,0.0,0.0,0.0,0.0,0.0,0.0,0.0,0.0,0.0,0.0,0.0,0.0,0.0,0.0,0.0,0.0,0.0,0.0,0.0,0.0,0.0,0.0,0.0,0.0,0.0,0.0,0.0,0.0,0.0,0.0,0.0,0.0,0.0,0.0,0.0,0.0,0.0,0.0,0.0,0.0,0.0,0.0,0.0,0.0,0.0,0.0,0.0,0.0,0.0,0.0,0.0,0.0,0.0,0.0,0.0,0.0,0.0,0.0,0.0,0.0,0.0,0.0,0.0,0.0,0.0,0.0,0.0,0.0,0.0,0.0,0.0,0.0,0.0,0.0,0.0,0.0,0.0,0.0,0.0,0.0,0.0,0.0,0.0,0.0,0.0,0.0,0.0,0.0,0.0,0.0,0.0,0.0,0.0,0.0,0.0,0.0,0.0,0.0,-1.0787,-1.096,-1.0783,-1.0374,0.0,0.0,0.0,0.0,0.0,0.0,0.0,0.0,0.0,0.0,0.0,0.0,0.0,0.0,0.0,0.0,0.0,0.0,0.0,0.0,0.0,0.0,0.0,0.0,0.0,0.0,0.0,0.0,0.0,0.0,0.0,0.0,0.0,0.0,0.0,0.0,0.0,0.0,0.0,0.0,0.0,0.0,0.0,0.0,0.0,0.0,0.0,0.0,0.0,0.0,0.0,0.0,0.0,0.0,0.0,0.0,0.0,0.0,0.0,0.0,0.0,0.0,0.0,0.0,0.0,0.0,0.0,0.0,0.0,0.0,0.0,0.0,0.0,0.0,0.0,0.0,0.0,0.0,0.0,0.0,0.0,0.0,0.0,0.0,0.0,0.0,0.0,0.0,0.0,0.0,0.0,0.0,0.0,0.0,0.0,0.0,0.0,0.0,0.0,0.0,0.0,0.0,0.0,0.0,0.0,0.0,0.0,0.0,0.0,0.0,-1.0736,-1.079,-1.1028,-1.072,-1.0213,-0.9625,0.0,0.0,0.0,0.0,0.0,0.0,0.0,0.0,0.0,0.0,0.0,0.0,0.0,0.0,0.0,0.0,0.0,0.0,0.0,0.0,0.0,0.0,0.0,0.0,0.0,0.0,0.0,0.0,0.0,0.0,0.0,0.0,0.0,0.0,0.0,0.0,0.0,0.0,0.0,0.0,0.0,0.0,0.0,0.0,0.0,0.0,0.0,0.0,0.0,0.0,0.0,0.0,0.0,0.0,0.0,0.0,0.0,0.0,0.0,0.0,0.0,0.0,0.0,0.0,0.0,0.0,0.0,0.0,0.0,0.0,0.0,0.0,0.0,0.0,0.0,0.0,0.0,0.0,0.0,0.0,0.0,0.0,0.0,0.0,0.0,0.0,0.0,0.0,0.0,0.0,0.0,0.0,0.0,0.0,0.0,0.0,0.0,0.0,0.0,0.0,0.0,0.0,0.0,0.0,0.0,0.0,0.0,0.0,-1.1041,-1.0955,-1.0899,-1.0896,-1.0845,-1.0339,0.0,0.0,0.0,0.0,0.0,0.0,0.0,0.0,0.0,0.0,0.0,0.0,0.0,0.0,0.0,0.0,0.0,0.0,0.0,0.0,0.0,0.0,0.0,0.0,0.0,0.0,0.0,0.0,0.0,0.0,0.0,0.0,0.0,0.0,0.0,0.0,0.0,0.0,0.0,0.0,0.0,0.0,0.0,0.0,0.0,0.0,0.0,0.0,0.0,0.0,0.0,0.0,0.0,0.0,0.0,0.0,0.0,0.0,0.0,0.0,0.0,0.0,0.0,0.0,0.0,0.0,0.0,0.0,0.0,0.0,0.0,0.0,0.0,0.0,0.0,0.0,0.0,0.0,0.0,0.0,0.0,0.0,0.0,0.0,0.0,0.0,0.0,0.0,0.0,0.0,0.0,0.0,0.0,0.0,0.0,0.0,0.0,0.0,0.0,0.0,0.0,0.0,0.0,0.0,0.0,0.0,0.0,0.0,0.0,-1.0882,-1.0806,-1.0742,-1.0714,-1.0504,-1.0077,0.0,0.0,0.0,0.0,0.0,0.0,0.0,0.0,0.0,0.0,0.0,0.0,0.0,0.0,0.0,0.0,0.0,0.0,0.0,0.0,0.0,0.0,0.0,0.0,0.0,0.0,0.0,0.0,0.0,0.0,0.0,0.0,0.0,0.0,0.0,0.0,0.0,0.0,0.0,0.0,0.0,0.0,0.0,0.0,0.0,0.0,0.0,0.0,0.0,0.0,0.0,0.0,0.0,0.0,0.0,0.0,0.0,0.0,0.0,0.0,0.0,0.0,0.0,0.0,0.0,0.0,0.0,0.0,0.0,0.0,0.0,0.0,0.0,0.0,0.0,0.0,0.0,0.0,0.0,0.0,0.0,0.0,0.0,0.0,0.0,0.0,0.0,0.0,0.0,0.0,0.0,0.0,0.0,0.0,0.0,0.0,0.0,0.0,0.0,0.0,0.0,0.0,0.0,0.0,0.0,0.0,0.0,0.0,0.0,-1.0723,0.0,-1.0683,0.0,-1.0294,-0.991,0.0,0.0,0.0,0.0,0.0,0.0,0.0,0.0,0.0,0.0,0.0,0.0,0.0,0.0,0.0,0.0,0.0,0.0,0.0,0.0,0.0,0.0,0.0,0.0,0.0,0.0,0.0,0.0,0.0,0.0,0.0,0.0,0.0,0.0,0.0,0.0,0.0,0.0,0.0,0.0,0.0,0.0,0.0,0.0,0.0,0.0,0.0,0.0,0.0,0.0,0.0,0.0,0.0,0.0,0.0,0.0,0.0,0.0,0.0,0.0,0.0,0.0,0.0,0.0,0.0,0.0,0.0,0.0,0.0,0.0,0.0,0.0,0.0,0.0,0.0,0.0,0.0,0.0,0.0,0.0,0.0,0.0,0.0,0.0,0.0,0.0,0.0,0.0,0.0,0.0,0.0,0.0,0.0,0.0,0.0,0.0,0.0,0.0,0.0,0.0,0.0,0.0,0.0,0.0,0.0,0.0,0.0,0.0,-1.0398,-1.0591,-1.0888,-1.0719,-1.0119,-1.0199,-0.9847,0.0,0.0,0.0,0.0,0.0,0.0,0.0,0.0,0.0,0.0,0.0,0.0,0.0,0.0,0.0,0.0,0.0,0.0,0.0,0.0,0.0,0.0,0.0,0.0,0.0,0.0,0.0,0.0,0.0,0.0,0.0,0.0,0.0,0.0,0.0,0.0,0.0,0.0,0.0,0.0,0.0,0.0,0.0,0.0,0.0,0.0,0.0,0.0,0.0,0.0,0.0,0.0,0.0,0.0,0.0,0.0,0.0,0.0,0.0,0.0,0.0,0.0,0.0,0.0,0.0,0.0,0.0,0.0,0.0,0.0,0.0,0.0,0.0,0.0,0.0,0.0,0.0,0.0,0.0,0.0,0.0,0.0,0.0,0.0,0.0,0.0,0.0,0.0,0.0,0.0,0.0,0.0,0.0,0.0,0.0,0.0,0.0,0.0,0.0,0.0,0.0,0.0,0.0,0.0,0.0,0.0,0.0,0.0,0.0,-0.9988,-0.9997,-0.9925,-0.9695,-0.9495,-0.9432,0.0,0.0,0.0,0.0,0.0,0.0,0.0,0.0,0.0,0.0,0.0,0.0,0.0,0.0,0.0,0.0,0.0,0.0,0.0,0.0,0.0,0.0,0.0,0.0,0.0,0.0,0.0,0.0,0.0,0.0,0.0,0.0,0.0,0.0,0.0,0.0,0.0,0.0,0.0,0.0,0.0,0.0,0.0,0.0,0.0,0.0,0.0,0.0,0.0,0.0,0.0,0.0,0.0,0.0,0.0,0.0,0.0,0.0,0.0,0.0,0.0,0.0,0.0,0.0,0.0,0.0,0.0,0.0,0.0,0.0,0.0,0.0,0.0,0.0,0.0,0.0,0.0,0.0,0.0,0.0,0.0,0.0,0.0,0.0,0.0,0.0,0.0,0.0,0.0,0.0,0.0,0.0,0.0,0.0,0.0,0.0,0.0,0.0,0.0,0.0,0.0,0.0,0.0,0.0,0.0,0.0,0.0,0.0,0.0,-0.9203,-0.9267,-0.9257,-0.9206,-0.9036,-0.9146,-0.9562,0.0,0.0,0.0,0.0,0.0,0.0,0.0,0.0,0.0,0.0,0.0,0.0,0.0,0.0,0.0,0.0,0.0,0.0,0.0,0.0,0.0,0.0,0.0,0.0,0.0,0.0,0.0,0.0,0.0,0.0,0.0,0.0,0.0,0.0,0.0,0.0,0.0,0.0,0.0,0.0,0.0,0.0,0.0,0.0,0.0,0.0,0.0,0.0,0.0,0.0,0.0,0.0,0.0,0.0,0.0,0.0,0.0,0.0,0.0,0.0,0.0,0.0,0.0,0.0,0.0,0.0,0.0,0.0,0.0,0.0,0.0,0.0,0.0,0.0,0.0,0.0,0.0,0.0,0.0,0.0,0.0,0.0,0.0,0.0,0.0,0.0,0.0,0.0,0.0,0.0,0.0,0.0,0.0,0.0,0.0,0.0,0.0,0.0,0.0,0.0,0.0,0.0,0.0,0.0,0.0,0.0,0.0,0.0,-0.8297,-0.8695,-0.881,-0.8695,-0.8798,-0.9014,0.0,0.0,0.0,0.0,0.0,0.0,0.0,0.0,0.0,0.0,0.0,0.0,0.0,0.0,0.0,0.0,0.0,0.0,0.0,0.0,0.0,0.0,0.0,0.0,0.0,0.0,0.0,0.0,0.0,0.0,0.0,0.0,0.0,0.0,0.0,0.0,0.0,0.0,0.0,0.0,0.0,0.0,0.0,0.0,0.0,0.0,0.0,0.0,0.0,0.0,0.0,0.0,0.0,0.0,0.0,0.0,0.0,0.0,0.0,0.0,0.0,0.0,0.0,0.0,0.0,0.0,0.0,0.0,0.0,0.0,0.0,0.0,0.0,0.0,0.0,0.0,0.0,0.0,0.0,0.0,0.0,0.0,0.0,0.0,0.0,0.0,0.0,0.0,0.0,0.0,0.0,0.0,0.0,0.0,0.0,0.0,0.0,0.0,0.0,0.0,0.0,0.0,0.0,0.0,0.0,0.0,0.0,0.0,0.0,-0.8249,-0.7753,-0.7745,-0.8247,-0.8337,-0.8765,0.0,0.0,0.0,0.0,0.0,0.0,0.0,0.0,0.0,0.0,0.0,0.0,0.0,0.0,0.0,0.0,0.0,0.0,0.0,0.0,0.0,0.0,0.0,0.0,0.0,0.0,0.0,0.0,0.0,0.0,0.0,0.0,0.0,0.0,0.0,0.0,0.0,0.0,0.0,0.0,0.0,0.0,0.0,0.0,0.0,0.0,0.0,0.0,0.0,0.0,0.0,0.0,0.0,0.0,0.0,0.0,0.0,0.0,0.0,0.0,0.0,0.0,0.0,0.0,0.0,0.0,0.0,0.0,0.0,0.0,0.0,0.0,0.0,0.0,0.0,0.0,0.0,0.0,0.0,0.0,0.0,0.0,0.0,0.0,0.0,0.0,0.0,0.0,0.0,0.0,0.0,0.0,0.0,0.0,0.0,0.0,0.0,0.0,0.0,0.0,0.0,0.0,0.0,0.0,0.0,0.0,0.0,0.0,-0.8503,-0.7938,-0.7333,-0.7186,-0.7634,-0.8053,-0.8708,0.0,0.0,0.0,0.0,0.0,0.0,0.0,0.0,0.0,0.0,0.0,0.0,0.0,0.0,0.0,0.0,0.0,0.0,0.0,0.0,0.0,0.0,0.0,0.0,0.0,0.0,0.0,0.0,0.0,0.0,0.0,0.0,0.0,0.0,0.0,0.0,0.0,0.0,0.0,0.0,0.0,0.0,0.0,0.0,0.0,0.0,0.0,0.0,0.0,0.0,0.0,0.0,0.0,0.0,0.0,0.0,0.0,0.0,0.0,0.0,0.0,0.0,0.0,0.0,0.0,0.0,0.0,0.0,0.0,0.0,0.0,0.0,0.0,0.0,0.0,0.0,0.0,0.0,0.0,0.0,0.0,0.0,0.0,0.0,0.0,0.0,0.0,0.0,0.0,0.0,0.0,0.0,0.0,0.0,0.0,0.0,0.0,0.0,0.0,0.0,0.0,0.0,0.0,0.0,0.0,0.0,0.0,0.0,-0.8187,-0.7548,-0.7125,-0.6903,-0.6971,-0.786,-0.8682,0.0,0.0,0.0,0.0,0.0,0.0,0.0,0.0,0.0,0.0,0.0,0.0,0.0,0.0,0.0,0.0,0.0,0.0,0.0,0.0,0.0,0.0,0.0,0.0,0.0,0.0,0.0,0.0,0.0,0.0,0.0,0.0,0.0,0.0,0.0,0.0,0.0,0.0,0.0,0.0,0.0,0.0,0.0,0.0,0.0,0.0,0.0,0.0,0.0,0.0,0.0,0.0,0.0,0.0,0.0,0.0,0.0,0.0,0.0,0.0,0.0,0.0,0.0,0.0,0.0,0.0,0.0,0.0,0.0,0.0,0.0,0.0,0.0,0.0,0.0,0.0,0.0,0.0,0.0,0.0,0.0,0.0,0.0,0.0,0.0,0.0,0.0,0.0,0.0,0.0,0.0,0.0,0.0,0.0,0.0,0.0,0.0,0.0,0.0,0.0,0.0,0.0,0.0,0.0,0.0,0.0,0.0,0.0,-0.7761,-0.7138,-0.6495,-0.6273,-0.651,-0.7587,-0.8417,0.0,0.0,0.0,0.0,0.0,0.0,0.0,0.0,0.0,0.0,0.0,0.0,0.0,0.0,0.0,0.0,0.0,0.0,0.0,0.0,0.0,0.0,0.0,0.0,0.0,0.0,0.0,0.0,0.0,0.0,0.0,0.0,0.0,0.0,0.0,0.0,0.0,0.0,0.0,0.0,0.0,0.0,0.0,0.0,0.0,0.0,0.0,0.0,-1.6243,0.0,0.0,0.0,0.0,0.0,0.0,0.0,0.0,0.0,0.0,0.0,0.0,0.0,0.0,0.0,0.0,0.0,0.0,0.0,0.0,0.0,0.0,0.0,0.0,0.0,0.0,0.0,0.0,0.0,0.0,0.0,0.0,0.0,0.0,0.0,0.0,0.0,0.0,0.0,0.0,0.0,0.0,0.0,0.0,0.0,0.0,0.0,0.0,0.0,0.0,0.0,0.0,0.0,0.0,0.0,0.0,0.0,0.0,0.0,-0.7527,-0.6779,-0.6305,-0.6119,-0.6325,-0.7419,-0.8171,0.0,0.0,0.0,0.0,0.0,0.0,0.0,0.0,0.0,0.0,0.0,0.0,0.0,0.0,0.0,0.0,0.0,0.0,0.0,0.0,0.0,0.0,0.0,0.0,0.0,0.0,0.0,0.0,0.0,0.0,0.0,0.0,0.0,0.0,0.0,0.0,0.0,0.0,0.0,0.0,0.0,0.0,0.0,0.0,0.0,0.0,0.0,0.0,0.0,0.0,0.0,0.0,0.0,0.0,0.0,0.0,0.0,0.0,0.0,0.0,0.0,0.0,0.0,0.0,0.0,0.0,0.0,0.0,0.0,0.0,0.0,0.0,0.0,0.0,0.0,0.0,0.0,0.0,0.0,0.0,0.0,0.0,0.0,0.0,0.0,0.0,0.0,0.0,0.0,0.0,0.0,0.0,0.0,0.0,0.0,0.0,0.0,0.0,0.0,0.0,0.0,0.0,0.0,0.0,0.0,0.0,0.0,-0.8043,-0.7355,-0.6511,-0.626,-0.6181,-0.6251,-0.7289,-0.7961,-0.8197,0.0,0.0,0.0,0.0,0.0,0.0,0.0,0.0,0.0,0.0,0.0,0.0,0.0,0.0,0.0,0.0,0.0,0.0,0.0,0.0,0.0,0.0,0.0,0.0,0.0,0.0,0.0,0.0,0.0,0.0,0.0,0.0,0.0,0.0,0.0,0.0,0.0,0.0,-1.2639,-1.3789,0.0,0.0,0.0,0.0,0.0,0.0,0.0,0.0,-1.5969,0.0,0.0,0.0,0.0,0.0,0.0,0.0,0.0,0.0,0.0,0.0,0.0,0.0,0.0,0.0,0.0,0.0,0.0,0.0,0.0,0.0,0.0,0.0,0.0,0.0,0.0,0.0,0.0,0.0,0.0,0.0,0.0,0.0,0.0,0.0,0.0,0.0,0.0,0.0,0.0,0.0,0.0,0.0,0.0,0.0,0.0,0.0,0.0,0.0,0.0,0.0,0.0,0.0,0.0,0.0,0.0,-0.8261,-0.7645,-0.7017,-0.6432,-0.6102,-0.6086,-0.6358,-0.7191,-0.7808,-0.824,0.0,0.0,0.0,0.0,0.0,0.0,0.0,0.0,0.0,0.0,0.0,0.0,0.0,0.0,0.0,0.0,0.0,0.0,0.0,0.0,0.0,0.0,0.0,0.0,0.0,0.0,0.0,0.0,0.0,0.0,0.0,0.0,0.0,0.0,0.0,0.0,0.0,0.0,0.0,-1.4044,-1.4739,0.0,0.0,0.0,0.0,0.0,0.0,0.0,0.0,-1.5209,0.0,0.0,0.0,0.0,0.0,0.0,0.0,0.0,0.0,0.0,0.0,0.0,0.0,0.0,0.0,0.0,0.0,0.0,0.0,0.0,0.0,0.0,0.0,0.0,0.0,0.0,0.0,0.0,0.0,0.0,0.0,0.0,0.0,0.0,0.0,0.0,0.0,0.0,0.0,0.0,0.0,0.0,0.0,0.0,0.0,0.0,0.0,0.0,0.0,0.0,0.0,0.0,0.0,0.0,0.0,-0.8214,-0.7829,-0.7267,-0.6585,-0.6416,-0.6412,-0.6552,-0.7295,-0.7836,0.0,0.0,0.0,0.0,0.0,0.0,0.0,0.0,0.0,0.0,0.0,0.0,0.0,0.0,0.0,0.0,0.0,0.0,0.0,0.0,0.0,0.0,0.0,0.0,0.0,0.0,0.0,0.0,0.0,0.0,0.0,0.0,0.0,0.0,0.0,0.0,0.0,0.0,0.0,0.0,-1.4035,-1.4572,-1.5377,0.0,0.0,0.0,0.0,0.0,0.0,-1.4893,-1.4873,0.0,0.0,0.0,0.0,0.0,0.0,0.0,0.0,0.0,0.0,0.0,0.0,0.0,0.0,0.0,0.0,0.0,0.0,0.0,0.0,0.0,0.0,0.0,0.0,0.0,0.0,0.0,0.0,0.0,0.0,0.0,0.0,0.0,0.0,0.0,0.0,0.0,0.0,0.0,0.0,0.0,0.0,0.0,0.0,0.0,0.0,0.0,0.0,0.0,0.0,0.0,0.0,0.0,0.0,0.0,-0.8349,-0.8121,-0.7693,-0.6946,-0.6872,-0.6872,-0.6905,-0.7521,-0.8031,0.0,0.0,0.0,0.0,0.0,0.0,0.0,0.0,0.0,0.0,0.0,0.0,0.0,0.0,0.0,0.0,0.0,0.0,0.0,0.0,0.0,0.0,0.0,0.0,0.0,0.0,0.0,0.0,0.0,0.0,0.0,0.0,0.0,0.0,0.0,0.0,0.0,0.0,0.0,0.0,0.0,-1.451,-1.5269,-1.5432,0.0,0.0,0.0,0.0,-1.4713,-1.4615,0.0,0.0,0.0,0.0,0.0,0.0,0.0,0.0,0.0,0.0,0.0,0.0,0.0,0.0,0.0,0.0,0.0,0.0,0.0,0.0,0.0,0.0,0.0,0.0,0.0,0.0,0.0,0.0,0.0,0.0,0.0,0.0,0.0,0.0,0.0,0.0,0.0,0.0,0.0,0.0,0.0,0.0,0.0,0.0,0.0,0.0,0.0,0.0,0.0,0.0,0.0,0.0,0.0,0.0,0.0,0.0,-0.8738,-0.836,-0.797,-0.7596,-0.7466,-0.7456,-0.7596,-0.7942,-0.8392,0.0,0.0,0.0,0.0,0.0,0.0,0.0,0.0,0.0,0.0,0.0,0.0,0.0,0.0,0.0,0.0,0.0,0.0,0.0,0.0,0.0,0.0,0.0,0.0,0.0,0.0,0.0,0.0,0.0,0.0,0.0,0.0,0.0,0.0,0.0,0.0,0.0,0.0,0.0,0.0,0.0,-1.4517,-1.4916,-1.5191,-1.5318,0.0,0.0,-1.4824,-1.4592,-1.4313,0.0,0.0,0.0,0.0,0.0,0.0,0.0,0.0,0.0,0.0,0.0,0.0,0.0,0.0,0.0,0.0,0.0,0.0,0.0,0.0,0.0,0.0,0.0,0.0,0.0,0.0,0.0,0.0,0.0,0.0,0.0,0.0,0.0,0.0,0.0,0.0,0.0,0.0,0.0,0.0,0.0,0.0,0.0,0.0,0.0,0.0,0.0,0.0,0.0,0.0,0.0,0.0,0.0,0.0,0.0,-0.9632,-0.9119,-0.8791,-0.8474,-0.816,-0.8084,-0.809,-0.8155,-0.8468,-0.8818,0.0,0.0,0.0,0.0,0.0,0.0,0.0,0.0,0.0,0.0,0.0,0.0,0.0,0.0,0.0,0.0,0.0,0.0,0.0,0.0,0.0,0.0,0.0,0.0,0.0,0.0,0.0,0.0,0.0,0.0,0.0,0.0,0.0,0.0,0.0,0.0,0.0,0.0,0.0,0.0,0.0,0.0,-1.493,-1.521,0.0,0.0,0.0,-1.4798,-1.4345,0.0,0.0,0.0,0.0,0.0,0.0,0.0,0.0,0.0,0.0,0.0,0.0,0.0,0.0,0.0,0.0,0.0,0.0,0.0,0.0,0.0,0.0,0.0,0.0,0.0,0.0,0.0,0.0,0.0,0.0,0.0,0.0,0.0,0.0,0.0,0.0,0.0,0.0,0.0,0.0,0.0,0.0,0.0,0.0,0.0,0.0,0.0,0.0,0.0,0.0,0.0,0.0,0.0,0.0,0.0,0.0,0.0,-0.9434,-0.9274,-0.9055,-0.8765,-0.8738,-0.8765,-0.8765,-0.9055,0.0,0.0,0.0,0.0,0.0,0.0,0.0,0.0,0.0,0.0,0.0,0.0,0.0,0.0,0.0,0.0,0.0,0.0,0.0,0.0,0.0,0.0,0.0,0.0,0.0,0.0,0.0,-1.4689,0.0,0.0,0.0,0.0,0.0,0.0,0.0,0.0,0.0,0.0,0.0,0.0,0.0,0.0,-1.4706,-1.4986,-1.5211,-1.5324,0.0,0.0,-1.4796,-1.4259,-1.4148,-1.4088,0.0,0.0,0.0,0.0,0.0,0.0,0.0,0.0,0.0,0.0,0.0,0.0,0.0,0.0,0.0,0.0,0.0,0.0,0.0,0.0,0.0,0.0,0.0,0.0,0.0,0.0,0.0,0.0,0.0,0.0,0.0,0.0,0.0,0.0,0.0,0.0,0.0,0.0,0.0,0.0,0.0,0.0,0.0,0.0,0.0,0.0,0.0,0.0,0.0,0.0,0.0,0.0,0.0,0.0,-1.011,-0.9772,-0.974,-0.9664,-0.9454,-0.9422,-0.9428,-0.9428,-0.9638,-0.9798,0.0,0.0,0.0,0.0,0.0,0.0,0.0,0.0,0.0,0.0,0.0,0.0,0.0,0.0,0.0,0.0,0.0,0.0,0.0,0.0,0.0,0.0,0.0,0.0,0.0,0.0,0.0,0.0,0.0,0.0,0.0,0.0,0.0,0.0,0.0,0.0,0.0,0.0,0.0,0.0,0.0,-1.5113,-1.5006,-1.5211,-1.5391,0.0,-1.5137,-1.4877,-1.4518,-1.4272,-1.4088,-1.4088,0.0,0.0,0.0,0.0,0.0,0.0,0.0,0.0,0.0,0.0,0.0,0.0,0.0,0.0,0.0,0.0,0.0,0.0,0.0,0.0,0.0,0.0,0.0,0.0,0.0,0.0,0.0,0.0,0.0,0.0,0.0,0.0,0.0,0.0,0.0,0.0,0.0,0.0,0.0,0.0,0.0,0.0,0.0,0.0,0.0,0.0,0.0,0.0,0.0,0.0,0.0,0.0,0.0,-1.0244,-1.0117,-0.9983,-0.9888,-0.9817,-0.9817,-0.9817,-0.9817,-1.0021,-1.0149,0.0,0.0,0.0,0.0,0.0,0.0,0.0,0.0,0.0,0.0,0.0,0.0,0.0,0.0,0.0,0.0,0.0,0.0,0.0,0.0,0.0,0.0,0.0,0.0,0.0,0.0,0.0,0.0,-1.6934,-1.7305,-1.7715,0.0,0.0,0.0,0.0,0.0,0.0,0.0,0.0,0.0,0.0,-1.5071,-1.4764,-1.5097,0.0,0.0,-1.5082,-1.487,-1.4566,-1.4252,-1.4088,-1.4088,-1.4088,0.0,0.0,0.0,0.0,0.0,0.0,0.0,0.0,0.0,0.0,0.0,0.0,0.0,0.0,0.0,0.0,0.0,0.0,0.0,0.0,0.0,0.0,0.0,0.0,0.0,0.0,0.0,0.0,0.0,0.0,0.0,0.0,0.0,0.0,0.0,0.0,0.0,0.0,0.0,0.0,0.0,0.0,0.0,0.0,0.0,0.0,0.0,0.0,0.0,0.0,0.0,0.0,-1.0371,-1.0371,-1.0244,-1.018,-1.018,-1.0174,-1.0174,-1.018,-1.0333,-1.0403,0.0,0.0,0.0,0.0,0.0,0.0,0.0,0.0,0.0,0.0,0.0,0.0,0.0,0.0,0.0,0.0,0.0,0.0,0.0,0.0,0.0,0.0,0.0,0.0,0.0,0.0,0.0,0.0,-1.7457,-1.7686,-1.7978,0.0,0.0,0.0,0.0,0.0,0.0,0.0,0.0,0.0,0.0,-1.4926,-1.4553,-1.495,-1.519,-1.5035,-1.5082,-1.4957,-1.4576,-1.4425,-1.4341,-1.4222,0.0,0.0,0.0,0.0,0.0,0.0,0.0,0.0,0.0,0.0,0.0,0.0,0.0,0.0,0.0,0.0,0.0,0.0,0.0,0.0,0.0,0.0,0.0,0.0,0.0,0.0,0.0,-1.3712,0.0,0.0,-1.3936,0.0,0.0,0.0,0.0,0.0,0.0,0.0,0.0,0.0,0.0,0.0,0.0,0.0,0.0,0.0,0.0,0.0,0.0,0.0,0.0,0.0,0.0,-1.0593,-1.0586,-1.0561,-1.0593,-1.0593,-1.0586,-1.0555,-1.0561,-1.0593,-1.0586,-1.0586,0.0,0.0,0.0,0.0,0.0,0.0,0.0,0.0,0.0,0.0,0.0,0.0,0.0,0.0,0.0,0.0,0.0,0.0,0.0,0.0,0.0,0.0,0.0,0.0,0.0,0.0,-1.7133,-1.7643,-1.7988,0.0,0.0,0.0,0.0,0.0,0.0,0.0,0.0,0.0,-1.57,-1.511,-1.4648,-1.4519,-1.4783,-1.5022,-1.5015,-1.5204,-1.519,-1.4629,-1.4747,-1.4869,0.0,0.0,0.0,0.0,0.0,0.0,0.0,0.0,0.0,0.0,0.0,0.0,0.0,0.0,0.0,0.0,0.0,0.0,0.0,0.0,0.0,0.0,0.0,0.0,0.0,0.0,0.0,-1.4858,-1.4573,0.0,0.0,0.0,0.0,0.0,0.0,0.0,0.0,0.0,0.0,0.0,-1.2521,-1.2172,0.0,0.0,0.0,0.0,0.0,0.0,0.0,0.0,0.0,0.0,0.0,0.0,-1.0586,-1.0586,-1.0586,-1.0586,-1.0586,-1.0586,-1.0586,-1.0586,-1.0586,-1.0586,-1.0586,0.0,0.0,0.0,0.0,0.0,0.0,0.0,0.0,0.0,0.0,0.0,0.0,0.0,0.0,0.0,0.0,0.0,0.0,0.0,0.0,0.0,0.0,0.0,0.0,0.0,-1.6952,0.0,0.0,0.0,0.0,0.0,0.0,0.0,0.0,0.0,0.0,0.0,-1.628,-1.5579,-1.5026,-1.4608,-1.4258,-1.4649,-1.5015,0.0,0.0,0.0,0.0,0.0,0.0,0.0,0.0,0.0,0.0,0.0,0.0,0.0,0.0,-1.4055,-1.3955,-1.3924,-1.3931,-1.3834,0.0,0.0,0.0,0.0,0.0,0.0,0.0,0.0,0.0,0.0,0.0,0.0,0.0,0.0,-1.5111,-1.493,-1.4849,0.0,0.0,0.0,0.0,0.0,0.0,0.0,0.0,-1.313,-1.2552,-1.2065,-1.1796,-1.1512,0.0,-1.1196,-1.1157,0.0,0.0,0.0,0.0,0.0,0.0,0.0,0.0,-1.0586,-1.0586,-1.0586,-1.0586,-1.0586,-1.0586,-1.0586,-1.0586,-1.0586,-1.0586,-1.0586,-1.0586,-1.0586,0.0,0.0,0.0,0.0,0.0,0.0,0.0,0.0,0.0,0.0,0.0,0.0,0.0,0.0,0.0,0.0,0.0,0.0,0.0,0.0,0.0,0.0,0.0,-1.6768,0.0,0.0,0.0,0.0,0.0,0.0,0.0,0.0,0.0,-1.7507,-1.7049,-1.6553,-1.595,-1.5396,-1.4859,-1.4442,0.0,0.0,0.0,0.0,0.0,0.0,0.0,-1.4643,-1.4536,-1.4456,-1.4362,-1.4255,-1.4242,-1.4202,-1.4102,0.0,0.0,-1.4088,-1.4088,-1.4088,-1.4088,-1.4088,-1.4088,-1.4088,-1.4088,-1.4088,0.0,0.0,0.0,0.0,0.0,0.0,0.0,0.0,-1.477,-1.4656,0.0,-1.4604,0.0,0.0,0.0,0.0,0.0,-1.4511,0.0,0.0,-1.292,-1.2174,-1.1613,-1.1707,-1.1539,-1.1118,-1.1191,-1.1088,-1.0848,-1.1076,0.0,0.0,0.0,0.0,0.0,0.0,-1.06,-1.0593,-1.0586,-1.0586,-1.0586,-1.0586,-1.0586,-1.0586,-1.0586,-1.0586,-1.0586,-1.0586,-1.0586,-1.0586,-1.0586,0.0,0.0,0.0,0.0,0.0,0.0,0.0,0.0,0.0,0.0,0.0,0.0,0.0,0.0,0.0,0.0,0.0,0.0,0.0,0.0,-1.5745,0.0,0.0,0.0,0.0,0.0,0.0,0.0,0.0,0.0,0.0,-1.7479,-1.7145,-1.6831,-1.672,0.0,0.0,0.0,0.0,-1.4797,-1.4529,-1.4776,-1.4914,-1.4589,-1.477,-1.4888,-1.4563,0.0,0.0,-1.4549,-1.4459,-1.4402,-1.4135,-1.4088,-1.4088,-1.4088,-1.4088,-1.4088,-1.4088,-1.4088,-1.4088,-1.4088,-1.4046,-1.4046,-1.5596,0.0,0.0,0.0,0.0,-1.6256,-1.5944,-1.5484,-1.5219,-1.4888,-1.4571,-1.4522,0.0,0.0,0.0,0.0,0.0,0.0,-1.3549,-1.3229,-1.2538,-1.1934,-1.1373,-1.1175,-1.0953,-1.0758,-1.0807,-1.0845,-1.0934,-1.1014,-1.0954,-1.0727,0.0,0.0,0.0,0.0,-1.0801,-1.0606,-1.0586,-1.0586,-1.0586,-1.0586,-1.0586,-1.0586,-1.0586,-1.0586,-1.0586,-1.0586,-1.0586,-1.0586,-1.0586,0.0,0.0,0.0,0.0,0.0,0.0,0.0,0.0,0.0,0.0,0.0,0.0,0.0,0.0,0.0,0.0,0.0,0.0,0.0,-1.4867,-1.5409,-1.6131,0.0,0.0,0.0,0.0,0.0,0.0,0.0,0.0,0.0,-1.6614,-1.6647,-1.6646,0.0,0.0,-1.5433,-1.4979,-1.4913,-1.479,-1.4522,-1.477,0.0,-1.485,-1.473,-1.4616,-1.4492,-1.4422,-1.4309,-1.4229,-1.4208,-1.4188,-1.4102,-1.4088,-1.4088,-1.4088,-1.4088,-1.4088,-1.4088,-1.4088,-1.4046,-1.3841,-1.3799,-1.3763,-1.5576,-1.584,-1.5831,-1.5957,-1.6171,-1.5986,-1.5754,-1.5454,-1.5132,-1.4808,-1.4532,-1.4369,-1.4348,-1.4419,-1.435,0.0,0.0,0.0,-1.32,-1.3039,-1.2305,-1.1716,-1.1216,-1.0933,-1.0744,-1.0586,-1.0586,-1.0687,-1.0815,-1.0822,-1.0767,-1.0613,0.0,0.0,-1.0606,-1.0767,-1.0774,-1.06,-1.0586,-1.0586,-1.0586,-1.0586,-1.0586,-1.0586,-1.0586,-1.0586,-1.0586,-1.0586,-1.0586,-1.0586,-1.0586,-1.0719,0.0,0.0,0.0,0.0,0.0,0.0,0.0,0.0,0.0,0.0,0.0,-1.3244,-1.3362,0.0,0.0,0.0,-1.3557,-1.3869,-1.441,-1.4852,0.0,0.0,0.0,0.0,0.0,0.0,0.0,-1.722,-1.6652,-1.6221,-1.6011,-1.6022,-1.6074,-1.6212,-1.6038,-1.5691,-1.5087,0.0,-1.4735,-1.4385,-1.4502,-1.466,-1.466,-1.4462,-1.4349,-1.4349,-1.4202,-1.4088,-1.4088,-1.4088,-1.4088,-1.4075,-1.3995,-1.3908,-1.3915,-1.3765,-1.3753,-1.4039,-1.4033,-1.3864,-1.3721,-1.3649,-1.3557,-1.542,-1.542,-1.542,-1.542,-1.5391,-1.5264,-1.5228,-1.5235,-1.4733,-1.4517,-1.4533,-1.4169,-1.401,-1.398,-1.383,0.0,-1.4266,-1.3384,-1.299,-1.2996,-1.2156,-1.1522,-1.1097,-1.0902,-1.0713,-1.0586,-1.0586,-1.0586,-1.0593,-1.0593,-1.0586,-1.06,-1.0861,-1.0854,-1.0606,-1.062,-1.0613,-1.0586,-1.0586,-1.0586,-1.0586,-1.0586,-1.0586,-1.0586,-1.0586,-1.0586,-1.0586,-1.0586,-1.0586,-1.0586,-1.0586,-1.0649,-1.0769,0.0,0.0,0.0,0.0,0.0,0.0,0.0,0.0,0.0,0.0,0.0,0.0,0.0,0.0,0.0,-1.29,0.0,-1.3725,-1.4178,0.0,0.0,0.0,-1.7013,-1.7038,-1.7185,-1.7017,-1.6394,0.0,0.0,-1.5519,-1.5312,-1.5369,-1.5803,-1.6095,-1.6045,-1.5281,-1.4901,-1.4531,-1.4186,-1.4095,-1.4095,-1.4142,-1.4122,-1.4095,-1.4062,-1.4055,-1.4021,-1.3988,-1.3988,-1.4008,-1.3981,-1.3746,-1.3526,-1.3526,-1.3211,-1.3077,-1.3807,-1.3762,-1.3613,-1.3539,-1.3377,-1.3195,-1.542,-1.542,-1.542,-1.542,-1.5381,-1.5254,-1.5155,-1.5014,-1.4664,-1.4453,-1.4372,-1.4114,-1.395,-1.383,-1.3549,-1.3471,-1.3517,-1.2952,-1.263,-1.2445,-1.1746,-1.131,-1.109,-1.0782,-1.0624,-1.0586,-1.0586,-1.0586,-1.0586,-1.0586,-1.0586,-1.06,-1.066,-1.0667,-1.0631,-1.0807,-1.0814,-1.0586,-1.0586,-1.0586,-1.0586,-1.0586,-1.0586,-1.0586,-1.0586,-1.0586,-1.0586,-1.0586,-1.0586,-1.0586,-1.0586,-1.0649,-1.0807,-1.0807,0.0,0.0,0.0,0.0,0.0,0.0,0.0,0.0,0.0,-1.3078,-1.282,0.0,-1.2673,0.0,-1.2826,-1.3101,-1.3604,-1.3878,0.0,0.0,-1.5866,-1.6141,-1.6718,-1.638,-1.5974,-1.5684,-1.5211,-1.4886,-1.4705,-1.486,-1.493,-1.483,-1.5204,-1.5373,-1.4979,-1.4675,-1.4405,-1.4166,-1.4082,-1.4088,-1.4068,-1.4088,-1.4001,-1.3746,-1.3706,-1.3633,-1.346,-1.342,-1.342,-1.338,-1.3247,-1.3074,-1.3067,-1.2846,-1.2745,-1.2902,-1.2911,-1.2835,-1.2672,-1.2488,-1.229,-1.542,-1.542,-1.542,-1.5362,-1.5284,-1.5244,-1.5098,-1.497,-1.4656,-1.4398,-1.4139,-1.3838,-1.3588,-1.3437,-1.3194,-1.3042,-1.2942,-1.2552,-1.2243,-1.2058,-1.1498,-1.1153,-1.109,-1.0751,-1.0586,-1.0586,-1.0586,-1.0586,-1.0586,-1.0586,-1.0586,-1.0586,-1.0586,-1.0586,-1.06,-1.0754,-1.0754,-1.0593,-1.0586,-1.0586,-1.0586,-1.0586,-1.0586,-1.0586,-1.0586,-1.0586,-1.0586,-1.0586,-1.0586,-1.0586,-1.0586,-1.0656,-1.0713,-1.0713,-1.0776,0.0,0.0,0.0,0.0,0.0,0.0,0.0,0.0,0.0,0.0,0.0,-1.2489,-1.2452,-1.2685,-1.2985,-1.3296,-1.3677,-1.4302,-1.5243,-1.5342,-1.5498,-1.5959,-1.565,-1.5318,-1.4977,-1.4733,-1.4476,-1.4279,-1.4404,-1.4467,-1.4286,-1.4513,-1.4701,-1.468,-1.4494,-1.4321,-1.4124,-1.3975,-1.3841,-1.3721,-1.3701,-1.3647,-1.3494,-1.3413,-1.3353,-1.324,-1.3134,-1.3048,-1.3041,-1.2792,-1.2583,-1.2576,-1.2286,-1.203,-1.1958,-1.1882,-1.19,-1.2128,-1.2,-1.1718,-1.542,-1.542,-1.5381,-1.5313,-1.5205,-1.5156,-1.5059,-1.4941,-1.4597,-1.4249,-1.389,-1.3454,-1.315,-1.295,-1.2805,-1.2683,-1.2537,-1.222,-1.1965,-1.1747,-1.131,-1.109,-1.1059,-1.0744,-1.0586,-1.0586,-1.0586,-1.0586,-1.0586,-1.0586,-1.0586,-1.0586,-1.0586,-1.0586,-1.0586,-1.0586,-1.0586,-1.0586,-1.0586,-1.0586,-1.0586,-1.0586,-1.0586,-1.0586,-1.0586,-1.0586,-1.0586,-1.0586,-1.0586,-1.0586,-1.0586,-1.0586,-1.0586,-1.0586,-1.0649,0.0,-1.0769,0.0,0.0,0.0,0.0,0.0,0.0,0.0,0.0,-1.2409,-1.2305,-1.2305,-1.261,-1.2874,-1.2984,-1.3579,-1.413,-1.4552,-1.4794,-1.4964,-1.4999,-1.4999,-1.479,-1.4398,-1.4384,-1.43,-1.4124,-1.4088,-1.4088,-1.4063,-1.4057,-1.4079,-1.4205,-1.4261,-1.4197,-1.407,-1.3781,-1.3473,-1.3313,-1.324,-1.322,-1.318,-1.3153,-1.3094,-1.3027,-1.287,-1.2765,-1.27,-1.2363,-1.2107,-1.2069,-1.1646,-1.1285,-1.1105,-1.0901,-1.1009,-1.1533,-1.1489,-1.127,-1.542,-1.5381,-1.5284,-1.5235,-1.5186,-1.4902,-1.4775,-1.4715,-1.4309,-1.386,-1.3424,-1.318,-1.2958,-1.2836,-1.2529,-1.2398,-1.2336,-1.1996,-1.1771,-1.1622,-1.1247,-1.0996,-1.087,-1.0681,-1.0586,-1.0586,-1.0586,-1.0586,-1.0586,-1.0586,-1.0586,-1.0586,-1.0586,-1.0586,-1.0586,0.0,0.0,0.0,-1.0586,-1.0586,-1.0586,-1.0586,-1.0586,-1.0586,-1.0586,0.0,-1.0586,-1.0586,-1.0586,-1.0586,-1.0586,0.0,0.0,0.0,0.0,0.0,0.0,0.0,0.0,0.0,0.0,0.0,-1.1888,-1.213,-1.2352,-1.2335,-1.2305,-1.2311,-1.261,-1.2884,-1.3139,-1.3474,-1.3851,-1.4372,-1.4342,-1.4377,-1.4489,-1.4377,-1.425,-1.4166,-1.4159,-1.4159,-1.4117,-1.4088,-1.3988,-1.372,-1.3686,-1.3627,-1.3454,-1.3628,-1.3714,-1.3707,-1.3467,-1.328,-1.3227,-1.3186,-1.3073,-1.2958,-1.2878,-1.2707,-1.2326,-1.2236,-1.211,-1.1973,-1.1708,-1.1496,-1.1346,-1.1086,-1.0852,-1.0648,-1.0472,-1.042,-1.0703,-1.0477,-1.0209,-1.5313,-1.5284,-1.5176,-1.502,0.0,-1.4715,-1.4567,-1.4488,-1.416,-1.3688,-1.315,-1.2989,-1.2775,-1.2552,-1.2367,-1.2212,-1.205,-1.1864,-1.1677,-1.1428,-1.1216,-1.0965,-1.0807,-1.0649,-1.0586,-1.0586,-1.0586,-1.0586,-1.0586,-1.0586,-1.0586,-1.0586,-1.0586,-1.0586,-1.0586,-1.0586,-1.0586,-1.0586,-1.0586,-1.0586,-1.0586,-1.0586,-1.0586,-1.0586,-1.0586,0.0,0.0,0.0,0.0,0.0,0.0,0.0,0.0,0.0,0.0,-1.0586,-1.0586,-1.072,-1.0962,-1.0995,-1.1122,-1.1369,-1.1697,-1.1991,-1.2278,-1.2305,-1.2305,-1.2311,-1.261,-1.2911,-1.318,-1.3433,-1.3795,-1.4196,-1.4166,-1.4124,-1.4243,-1.4166,-1.4088,-1.4062,-1.3963,-1.3862,-1.3868,-1.3736,-1.3608,-1.3447,-1.3387,-1.3333,-1.326,-1.3333,-1.338,-1.3227,-1.3132,-1.2926,-1.2792,-1.2766,-1.2694,-1.2483,-1.2412,-1.2241,-1.1918,-1.1781,-1.1632,-1.1446,-1.126,-1.1037,-1.0856,-1.0732,-1.0571,-1.0291,-1.0127,-0.9981,-0.9943,-0.983,-0.9635,-1.5156,-1.5156,-1.5029,-1.4843,-1.4656,-1.4529,-1.4369,-1.4139,0.0,0.0,0.0,-1.2836,-1.2582,-1.2305,-1.2243,-1.205,-1.1802,-1.174,-1.1553,-1.1272,-1.1122,-1.0965,-1.0782,-1.0649,-1.0586,-1.0586,-1.0586,-1.0586,-1.0586,-1.0586,-1.0586,-1.0586,-1.0586,-1.0586,-1.0586,-1.0586,-1.0586,-1.0586,-1.0586,-1.0586,-1.0586,-1.0586,-1.0586,-1.0586,-1.0586,-1.0586,-1.0586,-1.0586,-1.0586,-1.0586,-1.0586,-1.0586,-1.0586,-1.0586,-1.0586,-1.0586,-1.0586,-1.0693,-1.0863,-1.0883,-1.1002,-1.1294,-1.1587,-1.1901,-1.2271,-1.2305,-1.2305,-1.2305,-1.261,-1.2891,-1.3106,-1.3353,-1.3661,-1.3908,-1.3935,-1.3928,-1.3928,-1.3935,-1.3908,-1.3901,-1.3674,-1.3514,-1.3507,-1.3352,-1.318,-1.3139,-1.3126,-1.31,-1.3073,-1.308,-1.3019,-1.2797,-1.2717,-1.2616,-1.2385,-1.2264,-1.2194,-1.2072,-1.1985,-1.1892,-1.1669,-1.1484,-1.1298,-1.1111,-1.0893,-1.0645,-1.043,-1.0323,-1.0185,-0.9755,-0.9622,-0.9504,-0.9198,-0.915,-0.9113,-1.5029,-1.5009,-1.4834,-1.4656,-1.4529,-1.4378,-1.4049,-1.3631,-1.3601,-1.3277,-1.2836,-1.2683,-1.2498,-1.2274,-1.2019,-1.1833,-1.1802,-1.1498,-1.1279,-1.1122,-1.0926,-1.0776,-1.0624,-1.0624,-1.0586,-1.0586,-1.0586,-1.0586,-1.0586,-1.0586,-1.0586,-1.0586,-1.0586,-1.0586,-1.0586,-1.0586,-1.0586,-1.0586,-1.0586,-1.0586,-1.0586,-1.0586,-1.0586,-1.0586,-1.0586,-1.0586,-1.0586,-1.0586,-1.0586,-1.0586,-1.0586,-1.0586,-1.0586,-1.0586,-1.0586,-1.0586,-1.0586,-1.055,-1.0398,-1.0398,-1.0562,-1.0925,-1.1022,-1.14,-1.2215,-1.2305,-1.2305,-1.2318,-1.2603,-1.2835,-1.2864,-1.3093,-1.3293,-1.3347,-1.3347,-1.334,-1.336,-1.3367,-1.3373,-1.3373,-1.3313,-1.328,-1.3267,-1.3223,-1.3072,-1.2909,-1.2851,-1.277,-1.2579,-1.2683,-1.2703,-1.2445,-1.2358,-1.2345,-1.2281,-1.2157,-1.204,-1.2003,-1.1818,-1.1657,-1.1415,-1.123,-1.1001,-1.087,-1.0611,-1.0293,-0.9853,-0.9718,-0.9494,-0.903,-0.8705,-0.8437,-0.8325,-0.814,-0.8093,-1.4775,-1.4725,-1.4547,-1.4389,-1.421,-1.398,-1.3588,-1.3133,-1.3042,-1.2889,-1.2683,-1.2498,-1.2274,-1.2027,-1.1778,-1.1622,-1.1522,-1.131,-1.1083,-1.0933,-1.0832,-1.0713,-1.0593,-1.0586,-1.0586,-1.0586,-1.0586,-1.0586,-1.0586,-1.0586,-1.0586,-1.0586,-1.0586,-1.0586,-1.0586,-1.0586,-1.0586,-1.0586,-1.0586,-1.0586,-1.0586,-1.0586,-1.0586,-1.0586,-1.0586,-1.0586,-1.0586,-1.0586,-1.0586,-1.0586,-1.0586,-1.0586,-1.0586,-1.0586,-1.0561,-1.0428,-1.0434,-1.0339,-1.018,-1.0142,-1.0354,-1.0863,-1.088,-1.1192,-1.1903,-1.2083,-1.2157,-1.2133,-1.2364,-1.261,-1.2802,-1.2918,-1.3026,-1.32,-1.3206,-1.3206,-1.3206,-1.3206,-1.3206,-1.32,-1.3048,-1.3007,-1.2973,-1.2829,-1.2698,-1.2556,-1.2549,-1.2482,-1.2325,-1.2418,-1.2465,-1.2338,-1.2305,-1.2261,-1.2157,-1.2077,-1.1929,-1.1706,-1.1521,-1.1273,-1.0985,-1.076,-1.0481,-1.0064,-0.9896,-0.9672,-0.921,-0.9006,-0.8793,-0.8505,-0.8198,-0.7991,-0.784,-0.7525,-0.7404,-1.4538,-1.4359,-1.4228,-1.4049,-1.3821,-1.3459,-1.3094,-1.2744,-1.2567,-1.2467,-1.2406,-1.2243,-1.2027,-1.1747,-1.1622,-1.1435,-1.1247,-1.109,-1.0965,-1.0807,-1.0776,-1.0681,-1.0624,-1.0586,-1.0586,-1.0586,-1.0586,-1.0586,-1.0586,-1.0586,-1.0586,-1.0586,-1.0586,-1.0586,-1.0586,-1.0586,-1.0586,-1.0586,-1.0586,-1.0586,-1.0586,-1.0586,-1.0586,-1.0586,-1.0586,-1.0586,-1.0586,-1.0586,-1.0586,-1.0586,-1.0586,-1.0586,-1.0586,-1.0561,-1.0466,-1.0308,-1.0238,-1.0117,-0.9919,-0.9849,-1.0093,-1.0588,-1.0644,-1.0874,-1.1415,-1.1682,-1.1861,-1.1992,-1.214,-1.2368,-1.2623,-1.2683,-1.2784,-1.2973,-1.3006,-1.2973,-1.2999,-1.3006,-1.3006,-1.2979,-1.2824,-1.2683,-1.2643,-1.2445,-1.2331,-1.2331,-1.2305,-1.2305,-1.2305,-1.2305,-1.2305,-1.2268,-1.2268,-1.2187,-1.2003,-1.1805,-1.1625,-1.1323,-1.1015,-1.0712,-1.0383,-1.0139,-0.9837,-0.9393,-0.9162,-0.8966,-0.8604,-0.8373,-0.8138,-0.7848,-0.7639,-0.7494,-0.7262,-0.6954,-0.6832,-1.4228,-1.404,-1.3881,-1.367,-1.3329,-1.2889,-1.2683,-1.256,-1.2282,-1.2027,-1.1895,-1.1833,-1.1778,-1.1599,-1.1428,-1.124,-1.109,-1.0926,-1.0839,-1.0776,-1.0649,-1.0624,-1.0586,-1.0586,-1.0586,-1.0586,-1.0586,-1.0586,-1.0586,-1.0586,-1.0586,-1.0586,-1.0586,-1.0586,-1.0586,-1.0586,-1.0586,-1.0586,-1.0586,-1.0586,-1.0586,-1.0586,-1.0586,-1.0586,-1.0586,-1.0586,-1.0586,-1.0586,-1.0586,-1.0586,-1.0586,-1.0586,-1.0561,-1.0428,-1.0308,-1.0301,-1.0117,-0.9881,-0.9588,-0.9434,-0.953,-0.9852,-0.9916,-1.0237,-1.0822,-1.1068,-1.1416,-1.1837,-1.2009,-1.214,-1.2301,-1.2365,-1.2392,-1.2458,-1.2452,-1.2385,-1.2432,-1.2385,-1.2392,-1.2378,-1.2412,-1.2338,-1.2371,-1.2331,-1.2311,-1.2305,-1.2305,-1.2305,-1.2305,-1.2305,-1.2278,-1.2248,-1.2144,-1.2027,-1.1896,-1.1446,-1.1114,-1.0863,-1.0462,-1.0089,-0.9791,-0.9524,-0.9257,-0.8871,-0.8664,-0.831,-0.8029,-0.7767,-0.751,-0.7207,-0.6975,-0.6725,-0.6399,-0.6211,-0.6233,-1.395,-1.37,-1.364,-1.3338,-1.2889,-1.2683,-1.2467,-1.2282,-1.1965,-1.1747,-1.1654,-1.1466,-1.1404,-1.1397,-1.1146,-1.0965,-1.0902,-1.0751,-1.0688,-1.0681,-1.0624,-1.0586,-1.0586,-1.0586,-1.0586,-1.0586,-1.0586,-1.0586,-1.0586,-1.0586,-1.0586,-1.0586,-1.0586,-1.0586,-1.0586,-1.0586,-1.0586,-1.0586,-1.0586,-1.0586,-1.0586,-1.0586,-1.0586,-1.0586,-1.0586,-1.0586,-1.0586,-1.0586,-1.0586,-1.0593,-1.0491,-1.0428,-1.0403,-1.0206,-1.0079,-0.9989,-0.9728,-0.9466,-0.9236,-0.9139,-0.9269,-0.9559,-0.9731,-1.0007,-1.0414,-1.0724,-1.1074,-1.1416,-1.1676,-1.1892,-1.2077,-1.2114,-1.215,-1.2268,-1.2305,-1.2305,-1.2305,-1.2305,-1.2305,-1.2305,-1.2305,-1.2305,-1.2305,-1.2305,-1.2305,-1.2305,-1.2305,-1.2305,-1.2298,-1.2305,-1.2188,-1.1946,-1.1719,-1.1601,-1.1525,-1.1058,-1.0617,-1.037,-0.995,-0.9512,-0.9211,-0.883,-0.8485,-0.8194,-0.7918,-0.7624,-0.7316,-0.7053,-0.6814,-0.6581,-0.6379,-0.6185,-0.6069,-0.5863,-0.5862,-1.364,-1.339,-1.3307,-1.295,-1.2467,-1.2406,-1.222,-1.1934,-1.1622,-1.1498,-1.1435,-1.1153,-1.1059,-1.1115,-1.0902,-1.0769,-1.0744,-1.0649,-1.0586,-1.0586,-1.0586,-1.0586,-1.0586,-1.0586,-1.0586,-1.0586,-1.0586,-1.0586,-1.0586,-1.0586,-1.0586,-1.0586,-1.0586,-1.0586,-1.0586,-1.0586,-1.0586,-1.0586,-1.0586,-1.0586,-1.0586,-1.0586,-1.0586,-1.0586,-1.0586,-1.0586,-1.0586,-1.0561,-1.0498,-1.0491,-1.0339,-1.0206,-1.0206,-1.0047,-0.9862,-0.967,-0.937,-0.9113,-0.8856,-0.8861,-0.8935,-0.9097,-0.9303,-0.96,-0.9999,-1.0313,-1.063,-1.0999,-1.1298,-1.1558,-1.1966,-1.2003,-1.2077,-1.2268,-1.2305,-1.2305,-1.2305,-1.2305,-1.2305,-1.2305,-1.2305,-1.2305,-1.2305,-1.2305,-1.2305,-1.2305,-1.2305,-1.2245,-1.2198,-1.2128,-1.1962,-1.1549,-1.1233,-1.106,-1.1045,-1.0587,-1.0212,-0.9814,-0.9428,-0.8951,-0.8642,-0.8158,-0.7812,-0.7593,-0.7203,-0.6983,-0.6816,-0.6531,-0.6284,-0.621,-0.6046,-0.5851,-0.58,-0.566,-0.5554,-1.3216,-1.2981,-1.2736,-1.2436,-1.212,-1.1934,-1.1778,-1.1622,-1.1397,-1.124,-1.1122,-1.0895,-1.0839,-1.0832,-1.0807,-1.0713,-1.0624,-1.0593,-1.0586,-1.0586,-1.0586,-1.0586,-1.0586,-1.0586,-1.0586,-1.0586,-1.0586,-1.0586,-1.0586,-1.0586,-1.0586,-1.0586,-1.0586,-1.0586,-1.0586,-1.0586,-1.0586,-1.0586,-1.0586,-1.0586,-1.0586,-1.0586,-1.0586,-1.0561,-1.0593,-1.0593,-1.0555,-1.0434,-1.0308,-1.0301,-1.0117,-1.0015,-0.9983,-0.9894,-0.9632,-0.9338,-0.9113,-0.8861,-0.8576,-0.8511,-0.8505,-0.8394,-0.8456,-0.875,-0.9489,-0.9692,-1.007,-1.0703,-1.0838,-1.1186,-1.1818,-1.1929,-1.2077,-1.2268,-1.2305,-1.2305,-1.2305,-1.2305,-1.2305,-1.2305,-1.2305,-1.2305,-1.2305,-1.2305,-1.2305,-1.2305,-1.2305,-1.2204,-1.1984,-1.1803,-1.1545,-1.1192,-1.074,-1.0337,-1.0513,-1.0145,-0.9649,-0.9264,-0.8871,-0.8363,-0.7887,-0.747,-0.7274,-0.7012,-0.6745,-0.6515,-0.6383,-0.6222,-0.5991,-0.5859,-0.576,-0.5634,-0.5634,-0.5498,-0.5458,-1.2828,-1.2521,-1.2344,-1.2089,-1.1778,-1.1677,-1.1529,-1.1286,-1.1052,-1.0965,-1.0902,-1.0751,-1.0681,-1.0681,-1.0681,-1.0656,-1.0586,-1.0586,-1.0586,-1.0586,-1.0586,-1.0586,-1.0586,-1.0586,-1.0586,-1.0586,-1.0586,-1.0586,-1.0586,-1.0586,-1.0586,-1.0586,-1.0586,-1.0586,-1.0586,-1.0586,-1.0586,-1.0586,-1.0586,-1.0586,-1.0555,-1.0466,-1.0403,-1.0396,-1.0403,-1.0403,-1.0396,-1.0212,-1.0117,-1.011,-0.9958,-0.9792,-0.9684,-0.9434,-0.9151,-0.8829,-0.8738,-0.8544,-0.8252,-0.8182,-0.8148,-0.8131,-0.8235,-0.8395,-0.8807,-0.9246,-0.9725,-1.007,-1.055,-1.0993,-1.1329,-1.1632,-1.1892,-1.2077,-1.2231,-1.2305,-1.2305,-1.2305,-1.2305,-1.2305,-1.2305,-1.2305,-1.2305,-1.2305,-1.2305,-1.2285,-1.2144,-1.1991,-1.187,-1.1618,-1.1207,-1.0797,-1.0376,-1.001,-0.9745,-0.9526,-0.9122,-0.8756,-0.8332,-0.7995,-0.7573,-0.7134,-0.6876,-0.6679,-0.635,-0.6181,-0.6086,-0.5851,-0.5657,-0.5561,-0.5462,-0.5428,-0.5462,-0.5329,-0.5362,-1.2367,-1.2089,-1.1972,-1.1747,-1.1466,-1.1435,-1.1279,-1.0996,-1.087,-1.0776,-1.0744,-1.0624,-1.0561,-1.0498,-1.0491,-1.0466,-1.0434,-1.0523,-1.0586,-1.0586,-1.0586,-1.0586,-1.0586,-1.0586,-1.0586,-1.0586,-1.0586,-1.0586,-1.0586,-1.0586,-1.0586,-1.0586,-1.0586,-1.0586,-1.0586,-1.0586,-1.0593,-1.053,-1.0491,-1.0466,-1.0396,-1.0269,-1.0206,-1.0212,-1.0149,-1.0149,-1.0206,-1.0021,-0.9919,-0.9849,-0.9728,-0.9536,-0.9268,-0.8985,-0.87,-0.8447,-0.8317,-0.8117,-0.7884,-0.7792,-0.7694,-0.7666,-0.7749,-0.7889,-0.8112,-0.8669,-0.9133,-0.9592,-1.0027,-1.0527,-1.0981,-1.1298,-1.1632,-1.1929,-1.212,-1.2231,-1.2305,-1.2305,-1.2305,-1.2305,-1.2305,-1.2305,-1.2305,-1.2305,-1.2258,-1.2221,-1.2013,-1.1879,-1.1534,-1.1224,-1.0819,-1.037,-0.9999,-0.9587,-0.932,-0.9032,-0.881,-0.8451,-0.8027,-0.7653,-0.7274,-0.6839,-0.6544,-0.6313,-0.6083,-0.5918,-0.5716,-0.5484,-0.5352,-0.5223,-0.5156,-0.512,-0.516,-0.5163,-0.5196,-1.1903,-1.163,-1.1591,-1.1397,-1.1122,-1.109,-1.0965,-1.0807,-1.0744,-1.0656,-1.0561,-1.0561,-1.046,-1.0339,-1.0301,-1.0206,-1.0142,-1.0396,-1.053,-1.0523,-1.0561,-1.0561,-1.0561,-1.053,-1.053,-1.0523,-1.0555,-1.0561,-1.0561,-1.0523,-1.053,-1.0555,-1.053,-1.053,-1.0555,-1.0523,-1.0466,-1.0339,-1.0301,-1.0206,-1.0047,-1.0015,-0.9983,-0.9983,-0.9862,-0.983,-0.9958,-0.983,-0.9702,-0.9492,-0.9364,-0.9145,-0.8835,-0.8608,-0.8409,-0.8172,-0.7889,-0.7661,-0.7521,-0.733,-0.7171,-0.7077,-0.6988,-0.7271,-0.7711,-0.7942,-0.8394,-0.9262,-0.965,-0.9968,-1.063,-1.0993,-1.1372,-1.1892,-1.2003,-1.212,-1.2268,-1.2305,-1.2305,-1.2305,-1.2305,-1.2298,-1.2291,-1.2251,-1.2144,-1.1924,-1.179,-1.154,-1.098,-1.0663,-1.0319,-0.991,-0.957,-0.9268,-0.8931,-0.8608,-0.8436,-0.8192,-0.7784,-0.7391,-0.6946,-0.6544,-0.6247,-0.6017,-0.5686,-0.5488,-0.5322,-0.5123,-0.5017,-0.4921,-0.4885,-0.4888,-0.493,-0.4967,-0.4997,-1.1567,-1.1279,-1.1247,-1.1122,-1.0895,-1.0807,-1.0624,-1.0428,-1.0308,-1.0206,-1.0174,-1.018,-1.0142,-1.011,-1.0079,-1.0047,-1.0021,-1.0142,-1.018,-1.0174,-1.0174,-1.0212,-1.0206,-1.018,-1.0174,-1.018,-1.0174,-1.0206,-1.018,-1.0206,-1.018,-1.018,-1.0212,-1.0174,-1.0206,-1.0174,-1.0142,-1.011,-1.0079,-1.0053,-0.9989,-0.9894,-0.9792,-0.9652,-0.953,-0.9434,-0.9344,-0.9408,-0.9338,-0.9177,-0.9022,-0.8797,-0.8436,-0.8247,-0.8014,-0.7749,-0.7657,-0.7396,-0.7138,-0.7012,-0.6979,-0.6913,-0.6881,-0.7034,-0.7371,-0.763,-0.803,-0.8703,-0.9219,-0.984,-1.031,-1.0687,-1.1124,-1.1706,-1.1929,-1.2083,-1.2268,-1.2305,-1.2305,-1.2305,-1.2305,-1.2225,-1.2058,-1.2047,-1.1884,-1.1568,-1.1314,-1.0975,-1.0724,-1.0301,-0.9948,-0.96,-0.9306,-0.8952,-0.8651,-0.8258,-0.7944,-0.7731,-0.7386,-0.7095,-0.6651,-0.628,-0.5984,-0.5653,-0.5289,-0.5057,-0.4924,-0.4791,-0.4688,-0.4725,-0.4728,-0.4767,-0.4773,-0.477,-0.4731,-1.1247,-1.0996,-1.0933,-1.0814,-1.0618,-1.046,-1.0308,-1.018,-1.0053,-1.0021,-1.0021,-1.0021,-0.9951,-0.9919,-0.9919,-0.9862,-0.983,-0.9798,-0.9798,-0.983,-0.9951,-0.9989,-1.0021,-1.0021,-1.0021,-1.0021,-1.0021,-1.0021,-1.0021,-1.0021,-1.0021,-1.0021,-1.0021,-1.0021,-1.0021,-1.0021,-0.9983,-0.9926,-0.9849,-0.9786,-0.9728,-0.9574,-0.9434,-0.93,-0.9177,-0.9017,-0.8861,-0.8856,-0.8888,-0.8797,-0.8635,-0.8339,-0.7977,-0.7852,-0.7657,-0.7363,-0.7199,-0.7068,-0.6843,-0.6745,-0.6716,-0.6716,-0.6712,-0.6778,-0.7025,-0.7341,-0.7645,-0.8118,-0.8692,-0.9305,-0.9807,-1.0306,-1.077,-1.1303,-1.1686,-1.1996,-1.2231,-1.2305,-1.2305,-1.2285,-1.2204,-1.2094,-1.196,-1.1772,-1.1562,-1.1208,-1.0876,-1.0555,-1.0392,-0.9962,-0.9663,-0.9364,-0.9055,-0.8694,-0.8366,-0.7944,-0.7526,-0.7209,-0.6927,-0.6692,-0.6383,-0.5987,-0.5657,-0.5226,-0.4827,-0.4625,-0.4461,-0.4395,-0.4292,-0.4431,-0.4464,-0.4364,-0.4267,-0.43,-0.4331,-1.0972,-1.0776,-1.0618,-1.0466,-1.0276,-1.0079,-0.9983,-0.9951,-0.9926,-0.9888,-0.9888,-0.9856,-0.983,-0.9734,-0.9702,-0.9606,-0.9516,-0.9484,-0.9478,-0.9542,-0.9728,-0.9856,-0.9926,-0.9926,-0.9926,-0.9926,-0.9919,-0.9919,-0.9888,-0.9856,-0.9958,-0.9862,-0.9856,-0.9926,-0.9862,-0.9926,-0.9792,-0.9702,-0.9562,-0.9396,-0.9306,-0.9119,-0.8985,-0.8952,-0.8829,-0.8641,-0.8447,-0.8274,-0.8242,-0.8382,-0.8122,-0.7852,-0.7554,-0.7461,-0.7269,-0.6909,-0.6741,-0.6708,-0.6609,-0.6482,-0.6387,-0.6383,-0.6383,-0.6482,-0.6683,-0.6902,-0.7205,-0.774,-0.8132,-0.8598,-0.926,-0.9804,-1.0288,-1.0773,-1.1352,-1.1829,-1.2231,-1.2248,-1.2188,-1.2198,-1.2037,-1.1824,-1.1728,-1.1502,-1.1167,-1.0784,-1.0607,-1.0327,-0.9974,-0.965,-0.944,-0.9145,-0.8797,-0.8441,-0.8074,-0.7624,-0.7204,-0.6848,-0.6527,-0.6197,-0.5991,-0.5591,-0.5259,-0.4794,-0.4428,-0.4228,-0.4061,-0.3995,-0.3892,-0.3859,-0.3859,-0.3758,-0.3828,-0.393,-0.3997,-1.0618,-1.0396,-1.0238,-1.0142,-1.0047,-0.9754,-0.962,-0.9588,-0.937,-0.9306,-0.9274,-0.9242,-0.928,-0.9215,-0.9215,-0.9183,-0.9151,-0.9119,-0.9151,-0.9151,-0.9215,-0.9408,-0.9574,-0.9638,-0.9638,-0.9606,-0.9568,-0.9466,-0.9466,-0.937,-0.9306,-0.9274,-0.9312,-0.9306,-0.928,-0.9306,-0.9242,-0.921,-0.9183,-0.9107,-0.9043,-0.8926,-0.877,-0.8608,-0.8474,-0.8214,-0.7927,-0.7624,-0.7559,-0.7722,-0.7689,-0.7461,-0.7101,-0.7073,-0.6909,-0.6581,-0.6486,-0.635,-0.6152,-0.6086,-0.6057,-0.6053,-0.6181,-0.6313,-0.6482,-0.6646,-0.7001,-0.747,-0.7803,-0.8229,-0.8877,-0.9308,-0.9815,-1.046,-1.1142,-1.1692,-1.1937,-1.1893,-1.184,-1.1928,-1.1724,-1.1388,-1.1145,-1.094,-1.0697,-1.0302,-1.0109,-0.9974,-0.9618,-0.937,-0.9177,-0.8829,-0.8511,-0.8149,-0.7787,-0.7335,-0.6913,-0.6519,-0.6094,-0.5638,-0.5365,-0.503,-0.4731,-0.4364,-0.4095,-0.3861,-0.3725,-0.3625,-0.3522,-0.3389,-0.346,-0.3496,-0.3596,-0.3699,-0.3763,-1.0276,-1.018,-0.9913,-0.9779,-0.9748,-0.9422,-0.93,-0.9242,-0.9017,-0.892,-0.8888,-0.8823,-0.8802,-0.8802,-0.8797,-0.8797,-0.8797,-0.8797,-0.8797,-0.8797,-0.8797,-0.899,-0.9221,-0.9312,-0.9285,-0.9285,-0.921,-0.9177,-0.9145,-0.9049,-0.9022,-0.9022,-0.899,-0.899,-0.9055,-0.899,-0.8958,-0.8926,-0.8835,-0.8765,-0.8657,-0.8538,-0.8382,-0.8187,-0.7982,-0.7754,-0.7405,-0.7171,-0.7138,-0.7237,-0.7237,-0.7073,-0.6745,-0.6679,-0.6548,-0.6218,-0.6185,-0.609,-0.5954,-0.5892,-0.5892,-0.5921,-0.602,-0.6148,-0.6313,-0.6478,-0.6773,-0.7086,-0.7456,-0.7864,-0.8281,-0.8785,-0.9409,-1.0043,-1.0682,-1.1183,-1.1507,-1.1388,-1.1346,-1.137,-1.1184,-1.0934,-1.0612,-1.0482,-1.0198,-0.9918,-0.9753,-0.9548,-0.9332,-0.9113,-0.8861,-0.8544,-0.8149,-0.7792,-0.74,-0.6979,-0.6387,-0.5991,-0.5528,-0.5106,-0.48,-0.4498,-0.4231,-0.3964,-0.3727,-0.3491,-0.3324,-0.319,-0.3088,-0.3056,-0.3127,-0.3163,-0.3194,-0.333,-0.3393,-0.9951,-0.9913,-0.9588,-0.946,-0.9364,-0.9113,-0.892,-0.8888,-0.8732,-0.8673,-0.8641,-0.8511,-0.8447,-0.8447,-0.8447,-0.8452,-0.8447,-0.8447,-0.8447,-0.8447,-0.8479,-0.8608,-0.8829,-0.8926,-0.8958,-0.8926,-0.892,-0.8888,-0.885,-0.8856,-0.8856,-0.8791,-0.8823,-0.8861,-0.8759,-0.8823,-0.8829,-0.8673,-0.8511,-0.8344,-0.8204,-0.8052,-0.7889,-0.7694,-0.7493,-0.7232,-0.6975,-0.6815,-0.6811,-0.6782,-0.6819,-0.6679,-0.6416,-0.635,-0.6185,-0.5954,-0.5888,-0.5855,-0.5826,-0.5793,-0.5826,-0.5826,-0.5826,-0.5921,-0.6115,-0.628,-0.6515,-0.6708,-0.7129,-0.7419,-0.7705,-0.8351,-0.8979,-0.9553,-0.9863,-1.0214,-1.0557,-1.0782,-1.0842,-1.0829,-1.0617,-1.0471,-1.0318,-1.0134,-0.983,-0.9534,-0.9402,-0.9242,-0.9017,-0.8829,-0.8571,-0.8279,-0.7857,-0.7396,-0.7007,-0.6585,-0.5958,-0.5428,-0.4933,-0.4503,-0.4233,-0.3964,-0.373,-0.3496,-0.3259,-0.3023,-0.2788,-0.2688,-0.2619,-0.2554,-0.2555,-0.2589,-0.2654,-0.279,-0.2924,-0.9614,-0.9588,-0.9242,-0.9049,-0.8926,-0.8705,-0.8506,-0.8366,-0.8209,-0.8182,-0.8149,-0.8117,-0.8084,-0.809,-0.809,-0.8084,-0.8052,-0.8057,-0.8117,-0.8117,-0.8117,-0.8117,-0.8279,-0.8447,-0.8576,-0.8576,-0.8436,-0.8361,-0.8361,-0.8333,-0.8209,-0.8242,-0.8306,-0.8209,-0.8242,-0.8274,-0.8214,-0.8182,-0.8117,-0.7987,-0.7792,-0.7661,-0.7498,-0.7302,-0.7036,-0.6773,-0.6548,-0.6412,-0.6284,-0.6218,-0.6321,-0.6317,-0.609,-0.6024,-0.5888,-0.5719,-0.5653,-0.562,-0.5524,-0.5524,-0.5524,-0.5561,-0.5624,-0.5686,-0.5749,-0.6046,-0.628,-0.6482,-0.6741,-0.7068,-0.7503,-0.8158,-0.8575,-0.8843,-0.9113,-0.9321,-0.9479,-0.9971,-1.0342,-1.0405,-1.028,-1.0026,-0.975,-0.9691,-0.9452,-0.9183,-0.9017,-0.8926,-0.8732,-0.8506,-0.8247,-0.7954,-0.7531,-0.7068,-0.6642,-0.6152,-0.5528,-0.493,-0.4431,-0.3964,-0.3694,-0.346,-0.3228,-0.2993,-0.2792,-0.2555,-0.2353,-0.2182,-0.2149,-0.2049,-0.2018,-0.2084,-0.2218,-0.2321,-0.2421,-0.9236,-0.9145,-0.8861,-0.8668,-0.8506,-0.822,-0.8052,-0.7912,-0.7722,-0.7629,-0.7591,-0.7531,-0.7466,-0.7466,-0.7498,-0.7466,-0.7498,-0.7498,-0.7498,-0.7466,-0.7466,-0.7498,-0.7503,-0.7699,-0.7894,-0.8182,-0.8177,-0.8107,-0.8074,-0.8014,-0.8047,-0.7982,-0.7982,-0.8047,-0.7982,-0.7889,-0.7852,-0.7754,-0.7657,-0.7531,-0.7339,-0.7269,-0.7106,-0.6843,-0.6581,-0.6379,-0.6189,-0.6083,-0.5951,-0.5855,-0.5855,-0.5888,-0.5789,-0.5756,-0.5653,-0.5554,-0.5491,-0.5491,-0.5428,-0.5395,-0.5428,-0.5395,-0.5458,-0.5521,-0.562,-0.5815,-0.6046,-0.6247,-0.6511,-0.6811,-0.7428,-0.7727,-0.8052,-0.8279,-0.8468,-0.8662,-0.8851,-0.9311,-0.9682,-0.9717,-0.9621,-0.9464,-0.9312,-0.9265,-0.9077,-0.8835,-0.8732,-0.8641,-0.8312,-0.8084,-0.7884,-0.7591,-0.7199,-0.6773,-0.6313,-0.5752,-0.506,-0.4495,-0.3995,-0.3527,-0.3157,-0.2924,-0.2691,-0.2523,-0.2388,-0.2186,-0.1983,-0.1813,-0.1713,-0.1747,-0.1748,-0.1748,-0.1782,-0.1916,-0.195,-0.8861,-0.87,-0.8479,-0.8247,-0.8042,-0.7759,-0.7601,-0.7531,-0.7269,-0.7204,-0.7138,-0.6979,-0.7012,-0.6946,-0.6946,-0.6913,-0.6942,-0.6942,-0.7007,-0.7007,-0.7007,-0.704,-0.7012,-0.7106,-0.7302,-0.7792,-0.7759,-0.7759,-0.7759,-0.7824,-0.7694,-0.7787,-0.7787,-0.7689,-0.7759,-0.7661,-0.7498,-0.74,-0.7265,-0.7106,-0.6946,-0.6876,-0.6683,-0.6387,-0.6247,-0.6083,-0.5921,-0.5822,-0.5723,-0.5547,-0.5392,-0.5388,-0.5451,-0.5484,-0.5455,-0.5296,-0.5263,-0.5263,-0.5263,-0.5263,-0.5263,-0.5292,-0.5326,-0.5388,-0.5484,-0.5617,-0.5782,-0.6046,-0.6313,-0.6675,-0.7297,-0.7493,-0.7624,-0.7852,-0.8042,-0.8209,-0.8409,-0.87,-0.8851,-0.9104,-0.9163,-0.9075,-0.8958,-0.8846,-0.8684,-0.8522,-0.842,-0.8284,-0.7954,-0.7694,-0.7461,-0.7228,-0.6839,-0.6309,-0.5848,-0.5322,-0.4631,-0.4128,-0.3594,-0.3157,-0.2755,-0.2589,-0.2389,-0.2186,-0.2018,-0.1816,-0.1615,-0.1446,-0.1412,-0.148,-0.1379,-0.1244,-0.1312,-0.1479,-0.1513,-0.8474,-0.8274,-0.7954,-0.7759,-0.7587,-0.7363,-0.7204,-0.7045,-0.6946,-0.6946,-0.6913,-0.6913,-0.6848,-0.6848,-0.6876,-0.6881,-0.6815,-0.6782,-0.6811,-0.6815,-0.6815,-0.6811,-0.6782,-0.6782,-0.6909,-0.7045,-0.711,-0.711,-0.7143,-0.7077,-0.7204,-0.7138,-0.7138,-0.7138,-0.7171,-0.7073,-0.7073,-0.7007,-0.6942,-0.6843,-0.6679,-0.6548,-0.6317,-0.6057,-0.5951,-0.5818,-0.5653,-0.5524,-0.5392,-0.519,-0.4994,-0.4927,-0.4927,-0.4927,-0.4927,-0.496,-0.496,-0.4964,-0.4964,-0.493,-0.4897,-0.4927,-0.506,-0.5153,-0.5253,-0.5418,-0.5583,-0.5818,-0.6148,-0.6515,-0.6806,-0.7068,-0.733,-0.7526,-0.7689,-0.7857,-0.8019,-0.8149,-0.8371,-0.8694,-0.8748,-0.8742,-0.8603,-0.8457,-0.8295,-0.8127,-0.7992,-0.7857,-0.7591,-0.7335,-0.7073,-0.6811,-0.6515,-0.5951,-0.5385,-0.4827,-0.4231,-0.3797,-0.3326,-0.2891,-0.2522,-0.2321,-0.2119,-0.1783,-0.158,-0.1412,-0.1244,-0.1078,-0.0976,-0.0975,-0.0841,-0.0706,-0.0875,-0.1077,-0.1144,-0.7982,-0.7814,-0.7559,-0.7335,-0.7171,-0.7007,-0.6843,-0.6646,-0.6548,-0.6482,-0.6416,-0.6387,-0.6387,-0.6383,-0.6383,-0.6383,-0.6383,-0.6387,-0.6383,-0.6383,-0.6383,-0.6387,-0.642,-0.6387,-0.6383,-0.6383,-0.6387,-0.6618,-0.6885,-0.6913,-0.6881,-0.6913,-0.6913,-0.6913,-0.6876,-0.6876,-0.6745,-0.6679,-0.6581,-0.6478,-0.6313,-0.6185,-0.5987,-0.5818,-0.5653,-0.5524,-0.5355,-0.5156,-0.506,-0.4927,-0.4697,-0.4564,-0.4498,-0.4428,-0.4425,-0.4694,-0.4761,-0.4794,-0.4794,-0.4794,-0.4794,-0.4827,-0.4894,-0.4927,-0.4994,-0.516,-0.5392,-0.566,-0.5888,-0.6251,-0.6515,-0.6712,-0.6909,-0.7106,-0.7241,-0.7405,-0.7536,-0.7596,-0.7889,-0.8242,-0.8264,-0.8231,-0.8247,-0.8095,-0.7904,-0.7736,-0.7563,-0.7363,-0.7199,-0.6937,-0.6679,-0.6383,-0.6086,-0.5491,-0.4924,-0.4395,-0.3897,-0.3462,-0.2991,-0.2589,-0.2186,-0.1916,-0.1581,-0.1212,-0.1077,-0.1042,-0.0875,-0.0741,-0.0606,-0.0539,-0.0539,-0.0573,-0.0573,-0.0674,-0.0774,-0.7498,-0.7363,-0.7171,-0.6975,-0.6782,-0.6675,-0.6482,-0.6317,-0.6181,-0.6086,-0.5892,-0.5925,-0.5925,-0.5888,-0.5921,-0.5925,-0.5892,-0.5925,-0.5958,-0.5954,-0.5954,-0.5925,-0.5892,-0.5892,-0.5958,-0.602,-0.5991,-0.6189,-0.6519,-0.6613,-0.6683,-0.6618,-0.6683,-0.6712,-0.6646,-0.6515,-0.6445,-0.635,-0.6185,-0.605,-0.5888,-0.5822,-0.5723,-0.5517,-0.5355,-0.5193,-0.5057,-0.4827,-0.4731,-0.4597,-0.4398,-0.42,-0.4131,-0.3894,-0.3992,-0.4428,-0.4561,-0.4597,-0.4595,-0.4561,-0.4492,-0.4495,-0.4664,-0.4697,-0.4764,-0.4933,-0.5169,-0.5502,-0.5693,-0.5921,-0.6218,-0.6317,-0.6486,-0.6716,-0.6815,-0.6881,-0.7106,-0.7204,-0.7269,-0.7526,-0.7647,-0.7717,-0.7727,-0.7634,-0.7442,-0.7311,-0.7138,-0.6975,-0.6811,-0.6511,-0.6251,-0.5987,-0.5591,-0.4997,-0.4498,-0.4025,-0.356,-0.3157,-0.269,-0.2253,-0.1816,-0.1445,-0.1111,-0.0842,-0.0775,-0.074,-0.0539,-0.0438,-0.0404,-0.0371,-0.0371,0.0,0.0,0.0,-0.0539,-0.7138,-0.6975,-0.6811,-0.6646,-0.6453,-0.6313,-0.6148,-0.5991,-0.5954,-0.5958,-0.5855,-0.5892,-0.5855,-0.5859,-0.5855,-0.5892,-0.5859,-0.5859,-0.5826,-0.5826,-0.5826,-0.5826,-0.5859,-0.5892,-0.5859,-0.5826,-0.5859,-0.5925,-0.6057,-0.6086,-0.6053,-0.609,-0.6123,-0.6053,-0.6152,-0.6152,-0.5987,-0.5954,-0.5954,-0.5818,-0.5653,-0.5524,-0.5355,-0.5156,-0.4994,-0.4864,-0.4761,-0.4531,-0.4367,-0.43,-0.4028,-0.3894,-0.3828,-0.3663,-0.3565,-0.3696,-0.3794,-0.3889,-0.3925,-0.3992,-0.3992,-0.4061,-0.4197,-0.4331,-0.4467,-0.4667,-0.4967,-0.5362,-0.5458,-0.5594,-0.5859,-0.5954,-0.6156,-0.6321,-0.6486,-0.6618,-0.6778,-0.6745,-0.6811,-0.6843,-0.6999,-0.7129,-0.7171,-0.7077,-0.6979,-0.6848,-0.6749,-0.6585,-0.6387,-0.6152,-0.5822,-0.5557,-0.5193,-0.4631,-0.4097,-0.3661,-0.3224,-0.2822,-0.2319,-0.1884,-0.1513,-0.1109,-0.0807,-0.0572,-0.0505,-0.0404,-0.0236,-0.0169,-0.0202,0.0,0.0,0.0,0.0,0.0,0.0,-0.6515,-0.6613,-0.6478,-0.6313,-0.6119,-0.6053,-0.5918,-0.5752,-0.5719,-0.5686,-0.5624,-0.5627,-0.5627,-0.5627,-0.5627,-0.5624,-0.5627,-0.5627,-0.5624,-0.5624,-0.5627,-0.5627,-0.5594,-0.5627,-0.5627,-0.5627,-0.5627,-0.5594,-0.566,-0.5793,-0.5892,-0.5892,-0.5892,-0.5925,-0.5859,-0.5892,-0.5822,-0.5719,-0.5554,-0.5388,-0.5286,-0.5156,-0.503,-0.4927,-0.4661,-0.4531,-0.4431,-0.4195,-0.3964,-0.3832,-0.3596,-0.3424,-0.3324,-0.3157,-0.3058,-0.3058,-0.3123,-0.3257,-0.3426,-0.3527,-0.3594,-0.3661,-0.3863,-0.4097,-0.4264,-0.4434,-0.467,-0.5006,-0.5066,-0.5229,-0.5528,-0.5627,-0.5826,-0.5987,-0.6119,-0.6218,-0.6321,-0.6317,-0.6317,-0.6317,-0.6379,-0.6511,-0.6679,-0.6721,-0.6655,-0.6581,-0.6416,-0.628,-0.6053,-0.5826,-0.5462,-0.5096,-0.4697,-0.4264,-0.3763,-0.3293,-0.2857,-0.242,-0.1814,-0.1412,-0.1177,-0.0841,-0.0505,-0.0202,-0.0034,0.0067,0.0101,0.0034,-0.0034,0.0,0.0,0.0,0.0,0.0,-0.0135,-0.602,-0.6185,-0.6152,-0.6017,-0.5822,-0.5822,-0.5723,-0.5554,-0.555,-0.5488,-0.5425,-0.5428,-0.5428,-0.5395,-0.5428,-0.5428,-0.5428,-0.5395,-0.5359,-0.5359,-0.5326,-0.5296,-0.5263,-0.5263,-0.5263,-0.5229,-0.5229,-0.5229,-0.5329,-0.5458,-0.5594,-0.5756,-0.5723,-0.5723,-0.576,-0.5723,-0.5653,-0.5451,-0.5186,-0.5057,-0.499,-0.4797,-0.4697,-0.4561,-0.4364,-0.4167,-0.4066,-0.3828,-0.3563,-0.3395,-0.3127,-0.2958,-0.2857,-0.2654,-0.252,-0.2487,-0.2485,-0.252,-0.2755,-0.2991,-0.3261,-0.3362,-0.3527,-0.3761,-0.403,-0.4133,-0.4336,-0.4673,-0.4667,-0.4897,-0.513,-0.5263,-0.5462,-0.5627,-0.5789,-0.5826,-0.5892,-0.5954,-0.602,-0.6086,-0.6086,-0.6017,-0.6185,-0.6362,-0.6362,-0.6284,-0.6115,-0.5947,-0.5719,-0.5458,-0.513,-0.4734,-0.4264,-0.3863,-0.3493,-0.3025,-0.2555,-0.2051,-0.1445,-0.0975,-0.0706,-0.0471,-0.0135,0.0135,0.0371,0.0337,0.0304,0.0202,0.0,0.0,0.0,0.0,0.0,0.0101,0.0034,-0.5789,-0.5683,-0.5855,-0.5789,-0.5617,-0.5617,-0.5521,-0.5425,-0.5425,-0.5425,-0.5395,-0.5395,-0.5395,-0.5395,-0.5359,-0.5359,-0.5392,-0.5395,-0.5259,-0.5156,-0.5123,-0.5027,-0.496,-0.493,-0.4897,-0.4894,-0.493,-0.4897,-0.4864,-0.4994,-0.5193,-0.5359,-0.5392,-0.5428,-0.5428,-0.5392,-0.5326,-0.5153,-0.4957,-0.4827,-0.4731,-0.4531,-0.4334,-0.4264,-0.4028,-0.3761,-0.3565,-0.3362,-0.3159,-0.2991,-0.2691,-0.2423,-0.2321,-0.2118,-0.1983,-0.195,-0.1816,-0.1849,-0.1983,-0.242,-0.272,-0.2855,-0.3023,-0.3291,-0.3525,-0.3758,-0.3995,-0.427,-0.4298,-0.4498,-0.4731,-0.4861,-0.5063,-0.5263,-0.5425,-0.5557,-0.5624,-0.5756,-0.5822,-0.5859,-0.5855,-0.5789,-0.5789,-0.5962,-0.6061,-0.5984,-0.5785,-0.5583,-0.5355,-0.5093,-0.4764,-0.44,-0.3899,-0.3498,-0.3226,-0.2755,-0.2151,-0.1681,-0.1143,-0.0673,-0.0269,0.0,0.0303,0.0438,0.064,0.0573,0.054,0.0607,0.064,0.0506,0.0438,0.0337,0.0304,0.027,0.0202,-0.5422,-0.5458,-0.5422,-0.5455,-0.5458,-0.5488,-0.5425,-0.5395,-0.5395,-0.5395,-0.5395,-0.5395,-0.5395,-0.5359,-0.5256,-0.5223,-0.519,-0.5096,-0.4994,-0.4927,-0.4894,-0.4861,-0.4794,-0.4761,-0.4794,-0.4764,-0.4761,-0.4794,-0.4794,-0.4728,-0.4831,-0.4997,-0.4994,-0.5027,-0.503,-0.5063,-0.496,-0.4894,-0.4761,-0.4628,-0.4434,-0.4264,-0.4064,-0.3961,-0.3627,-0.3426,-0.3261,-0.2894,-0.2691,-0.249,-0.2221,-0.1985,-0.1783,-0.158,-0.148,-0.1412,-0.1311,-0.1277,-0.1378,-0.1814,-0.2218,-0.2421,-0.2591,-0.2792,-0.3021,-0.3257,-0.3527,-0.3763,-0.3928,-0.4128,-0.4398,-0.45,-0.4634,-0.4897,-0.5096,-0.5193,-0.5359,-0.5458,-0.5557,-0.5591,-0.5594,-0.5561,-0.5561,-0.5598,-0.5657,-0.5686,-0.5451,-0.5219,-0.5024,-0.4761,-0.4498,-0.4131,-0.3663,-0.3194,-0.2924,-0.2353,-0.1715,-0.1278,-0.0841,-0.0337,0.0135,0.0572,0.0841,0.0908,0.101,0.1111,0.1144,0.1178,0.1077,0.0808,0.0607,0.0472,0.0438,0.0472,0.0371,-0.5093,-0.5193,-0.5093,-0.5123,-0.5292,-0.5259,-0.5229,-0.5229,-0.5226,-0.5229,-0.5229,-0.5226,-0.5226,-0.516,-0.509,-0.5024,-0.4994,-0.4897,-0.4794,-0.4728,-0.4697,-0.4628,-0.4561,-0.4495,-0.4392,-0.4495,-0.4495,-0.4461,-0.4425,-0.4495,-0.4461,-0.4461,-0.4528,-0.4561,-0.4797,-0.47,-0.4631,-0.4597,-0.4428,-0.4328,-0.4131,-0.3894,-0.3727,-0.356,-0.3259,-0.2991,-0.2824,-0.2523,-0.2253,-0.1985,-0.1715,-0.1479,-0.1244,-0.1076,-0.0975,-0.0908,-0.0841,-0.0841,-0.0908,-0.1311,-0.1715,-0.1884,-0.2052,-0.2253,-0.2488,-0.2755,-0.3025,-0.3226,-0.3458,-0.3725,-0.4033,-0.4097,-0.4298,-0.4564,-0.4631,-0.4764,-0.4994,-0.5156,-0.5256,-0.5289,-0.5326,-0.5428,-0.5462,-0.5462,-0.5425,-0.5455,-0.5319,-0.5087,-0.4858,-0.4595,-0.4264,-0.3897,-0.346,-0.3025,-0.2621,-0.1983,-0.1412,-0.0907,-0.0471,0.0034,0.0505,0.0941,0.1277,0.1379,0.1513,0.1681,0.1715,0.1682,0.138,0.101,0.0876,0.0775,0.0707,0.0707,0.0573,-0.4797,-0.4794,-0.4827,-0.4927,-0.5057,-0.4894,-0.4827,-0.4861,-0.4864,-0.4861,-0.4864,-0.4864,-0.4864,-0.4864,-0.4827,-0.4764,-0.4761,-0.4731,-0.4628,-0.4495,-0.4364,-0.4195,-0.4095,-0.3992,-0.3961,-0.3825,-0.3859,-0.3892,-0.3859,-0.3892,-0.3859,-0.3892,-0.3928,-0.4125,-0.4664,-0.4467,-0.4303,-0.4267,-0.3992,-0.3861,-0.3727,-0.3458,-0.3293,-0.3125,-0.2891,-0.2622,-0.2388,-0.2153,-0.1849,-0.1512,-0.1244,-0.1009,-0.0807,-0.064,-0.0505,-0.0337,-0.0303,-0.0202,-0.0101,-0.0706,-0.1042,-0.1277,-0.1446,-0.1648,-0.1916,-0.2186,-0.2455,-0.2654,-0.2958,-0.3259,-0.3493,-0.3694,-0.3961,-0.4164,-0.4233,-0.4434,-0.4661,-0.4891,-0.499,-0.5156,-0.5292,-0.5395,-0.5395,-0.5392,-0.5256,-0.5223,-0.512,-0.4954,-0.4691,-0.4359,-0.4061,-0.3629,-0.3226,-0.2723,-0.2252,-0.1647,-0.1076,-0.0571,-0.0067,0.0437,0.0841,0.1244,0.1547,0.1782,0.195,0.2084,0.2153,0.2188,0.1884,0.1615,0.1312,0.1177,0.1076,0.0975,0.0909,-0.4531,-0.4658,-0.4658,-0.4628,-0.4595,-0.4764,-0.4794,-0.4794,-0.4794,-0.4794,-0.4794,-0.4794,-0.4794,-0.4728,-0.4564,-0.4467,-0.4431,-0.4195,-0.4092,-0.4092,-0.3992,-0.3961,-0.3828,-0.3661,-0.3596,-0.3563,-0.3493,-0.3393,-0.3393,-0.3393,-0.3391,-0.3391,-0.346,-0.3661,-0.3992,-0.3995,-0.3961,-0.3928,-0.3727,-0.3529,-0.3393,-0.3159,-0.2924,-0.2691,-0.2488,-0.222,-0.1951,-0.1715,-0.1378,-0.1109,-0.0875,-0.0573,-0.0337,-0.0168,-0.0034,0.0202,0.0337,0.0538,0.0605,0.0302,-0.0101,-0.0471,-0.0807,-0.0975,-0.1176,-0.1614,-0.1849,-0.2051,-0.2421,-0.2723,-0.2958,-0.3259,-0.3527,-0.3763,-0.3897,-0.4167,-0.4431,-0.4628,-0.4791,-0.502,-0.519,-0.5326,-0.5359,-0.5292,-0.5156,-0.4994,-0.4924,-0.4728,-0.4461,-0.4125,-0.3792,-0.3326,-0.2891,-0.2388,-0.1884,-0.1311,-0.0773,-0.0235,0.0303,0.0874,0.1244,0.1614,0.1916,0.222,0.2353,0.2453,0.2555,0.2622,0.2522,0.2287,0.195,0.1648,0.148,0.1412,0.1379,-0.4195,-0.4325,-0.4325,-0.4228,-0.4195,-0.4431,-0.4498,-0.4461,-0.4461,-0.4461,-0.4428,-0.4459,-0.4425,-0.4361,-0.4231,-0.4131,-0.4097,-0.3863,-0.3694,-0.3661,-0.3558,-0.3525,-0.3424,-0.336,-0.3192,-0.3192,-0.3125,-0.3025,-0.3025,-0.3025,-0.3023,-0.3023,-0.3025,-0.319,-0.3389,-0.3422,-0.3491,-0.3458,-0.3291,-0.3094,-0.2924,-0.2757,-0.2555,-0.2287,-0.2018,-0.1782,-0.158,-0.1244,-0.0908,-0.074,-0.0472,-0.0135,0.0067,0.0269,0.0404,0.0673,0.0942,0.1109,0.1143,0.1143,0.0706,0.037,0.0,-0.0336,-0.0605,-0.1008,-0.121,-0.1445,-0.185,-0.2118,-0.2353,-0.2688,-0.3025,-0.3261,-0.3529,-0.3797,-0.4164,-0.4361,-0.4592,-0.4824,-0.509,-0.5193,-0.5292,-0.5193,-0.5057,-0.4894,-0.4697,-0.4464,-0.4231,-0.3894,-0.3525,-0.3056,-0.2589,-0.2118,-0.158,-0.1008,-0.0437,0.0101,0.0673,0.1311,0.1747,0.2118,0.2388,0.2658,0.2824,0.2958,0.3058,0.3058,0.2958,0.2757,0.2487,0.2218,0.195,0.1816,0.1748,-0.3758,-0.3792,-0.3792,-0.3792,-0.3792,-0.3894,-0.3892,-0.3825,-0.3828,-0.3856,-0.3859,-0.3859,-0.3892,-0.3825,-0.3792,-0.3761,-0.3692,-0.3527,-0.3426,-0.3328,-0.3159,-0.3058,-0.2922,-0.279,-0.2688,-0.2653,-0.2619,-0.252,-0.2619,-0.2552,-0.2586,-0.2619,-0.2554,-0.2619,-0.2686,-0.2787,-0.2922,-0.2922,-0.2788,-0.2622,-0.2455,-0.2287,-0.2085,-0.1816,-0.158,-0.1345,-0.111,-0.084,-0.0505,-0.0236,0.0,0.0236,0.0472,0.0706,0.0908,0.1176,0.1479,0.158,0.168,0.168,0.1547,0.1211,0.0774,0.0269,-0.0135,-0.037,-0.0572,-0.084,-0.1211,-0.1446,-0.168,-0.2118,-0.2522,-0.279,-0.3058,-0.3426,-0.3828,-0.4128,-0.4361,-0.4628,-0.4897,-0.5063,-0.516,-0.509,-0.4891,-0.4725,-0.4528,-0.4197,-0.3964,-0.3696,-0.3293,-0.2788,-0.2319,-0.1849,-0.1277,-0.0639,-0.0067,0.0471,0.1143,0.1747,0.2185,0.2555,0.2824,0.3092,0.3328,0.3429,0.3426,0.3426,0.3393,0.3192,0.2991,0.269,0.2388,0.2151,0.2051,-0.3224,-0.3224,-0.3326,-0.3326,-0.3224,-0.3123,-0.3355,-0.3758,-0.3825,-0.3825,-0.3792,-0.3661,-0.3563,-0.356,-0.336,-0.3257,-0.3157,-0.3054,-0.2956,-0.2822,-0.269,-0.2622,-0.2488,-0.2321,-0.2185,-0.2084,-0.2051,-0.2017,-0.1949,-0.1949,-0.1949,-0.1916,-0.2016,-0.1983,-0.2017,-0.2016,-0.2252,-0.2388,-0.2253,-0.2153,-0.2018,-0.1849,-0.1648,-0.1379,-0.1177,-0.0942,-0.0673,-0.0404,-0.0101,0.0,0.0404,0.0672,0.0908,0.1109,0.1311,0.1849,0.2052,0.222,0.2319,0.2252,0.2119,0.2052,0.1749,0.1212,0.0707,0.0337,0.0101,-0.0269,-0.0572,-0.0806,-0.1143,-0.1547,-0.195,-0.2285,-0.2587,-0.2989,-0.3391,-0.3761,-0.4028,-0.4431,-0.4734,-0.4897,-0.4994,-0.4891,-0.4725,-0.4558,-0.4328,-0.403,-0.3696,-0.3429,-0.306,-0.2554,-0.2017,-0.1513,-0.0841,-0.0202,0.0336,0.0875,0.1512,0.2083,0.252,0.2889,0.3226,0.3527,0.3763,0.3761,0.3725,0.3727,0.3797,0.3696,0.3493,0.3159,0.2824,0.2622,0.2453,-0.2723,-0.2757,-0.2825,-0.2859,-0.2723,-0.2589,-0.2788,-0.3157,-0.3288,-0.3355,-0.3355,-0.3224,-0.3159,-0.3159,-0.2989,-0.2855,-0.2758,-0.2589,-0.2487,-0.2319,-0.2218,-0.2119,-0.1985,-0.1884,-0.1849,-0.1748,-0.1681,-0.1681,-0.1547,-0.158,-0.1614,-0.1648,-0.158,-0.158,-0.1614,-0.1579,-0.1614,-0.1748,-0.1782,-0.1681,-0.158,-0.1446,-0.1211,-0.0909,-0.0808,-0.0539,-0.0303,0.0,0.0236,0.0404,0.084,0.1076,0.1412,0.1714,0.1982,0.2453,0.2622,0.2757,0.2822,0.279,0.2725,0.2691,0.2624,0.2253,0.1681,0.1244,0.0807,0.037,0.0067,-0.0235,-0.0605,-0.0975,-0.1379,-0.1782,-0.2151,-0.2554,-0.2956,-0.3326,-0.3761,-0.4231,-0.4531,-0.4694,-0.4761,-0.4658,-0.4525,-0.4395,-0.4161,-0.3828,-0.346,-0.3159,-0.2723,-0.2253,-0.1715,-0.1211,-0.0505,0.0168,0.0672,0.1209,0.178,0.235,0.2787,0.3224,0.3625,0.3925,0.4192,0.4161,0.4161,0.42,0.4236,0.41,0.3964,0.3694,0.3393,0.3159,0.3025,-0.2221,-0.2322,-0.2356,-0.2322,-0.2322,-0.2188,-0.2154,-0.2186,-0.2485,-0.2653,-0.2654,-0.2653,-0.2619,-0.2621,-0.2519,-0.242,-0.2321,-0.2186,-0.2051,-0.1884,-0.1748,-0.1648,-0.1614,-0.1513,-0.1413,-0.148,-0.1446,-0.1278,-0.1447,-0.138,-0.1312,-0.1513,-0.1412,-0.1346,-0.1279,-0.1144,-0.1111,-0.1144,-0.1278,-0.1278,-0.1144,-0.1009,-0.0875,-0.0506,-0.027,-0.0034,0.0101,0.0371,0.0707,0.0975,0.1277,0.1479,0.1983,0.2386,0.2755,0.3023,0.3192,0.3291,0.3357,0.3357,0.3324,0.3324,0.3257,0.3056,0.2619,0.2016,0.1513,0.1009,0.0672,0.0336,-0.0034,-0.0336,-0.0706,-0.1176,-0.1613,-0.2049,-0.2487,-0.2989,-0.3594,-0.403,-0.4298,-0.4495,-0.4597,-0.4531,-0.4395,-0.4261,-0.4028,-0.3692,-0.3257,-0.2889,-0.242,-0.1918,-0.1379,-0.0841,-0.0202,0.0438,0.0974,0.1544,0.2114,0.2619,0.3092,0.356,0.4028,0.4261,0.4495,0.46,0.4637,0.4603,0.4534,0.4431,0.4295,0.4195,0.3961,0.3727,0.3527,-0.1748,-0.1782,-0.1782,-0.1782,-0.1782,-0.1748,-0.1748,-0.1748,-0.1816,-0.2017,-0.2255,-0.2151,-0.2118,-0.2118,-0.2016,-0.1916,-0.1816,-0.1782,-0.1715,-0.1614,-0.1446,-0.1278,-0.1211,-0.1111,-0.0943,-0.0808,-0.0775,-0.0876,-0.0876,-0.0842,-0.0808,-0.0775,-0.0809,-0.0876,-0.0876,-0.0707,-0.0674,-0.0674,-0.0674,-0.0741,-0.064,-0.0573,-0.0472,-0.0202,0.0034,0.0202,0.0404,0.074,0.0942,0.1143,0.1681,0.2185,0.2723,0.2958,0.3257,0.3525,0.3727,0.3859,0.399,0.4023,0.4023,0.4023,0.399,0.3823,0.342,0.2787,0.2217,0.1714,0.1277,0.0908,0.0538,0.0269,-0.0101,-0.0571,-0.1042,-0.1546,-0.2051,-0.2721,-0.3393,-0.3727,-0.4028,-0.4231,-0.4367,-0.4367,-0.4264,-0.4128,-0.3961,-0.3625,-0.3058,-0.2622,-0.2116,-0.158,-0.1008,-0.0437,0.0135,0.074,0.1311,0.1913,0.2515,0.2987,0.3395,0.3928,0.4395,0.4561,0.4761,0.4867,0.49,0.4797,0.4697,0.4661,0.4628,0.4531,0.4528,0.4328,0.4059,-0.1178,-0.1244,-0.1344,-0.1378,-0.1379,-0.1279,-0.1245,-0.1246,-0.1144,-0.1245,-0.1515,-0.1649,-0.1748,-0.1782,-0.1648,-0.148,-0.1446,-0.1412,-0.1312,-0.1212,-0.1111,-0.0909,-0.0808,-0.0741,-0.0674,-0.0506,-0.0506,-0.054,-0.0472,-0.0506,-0.054,-0.0472,-0.0472,-0.0472,-0.0472,-0.0438,-0.0337,-0.0304,-0.0202,-0.0135,-0.0135,-0.0135,-0.0067,0.0135,0.0404,0.0573,0.0774,0.111,0.1379,0.1715,0.2287,0.2656,0.3125,0.3496,0.3763,0.403,0.4228,0.4425,0.4589,0.4686,0.4722,0.4755,0.4688,0.4489,0.4292,0.3692,0.3054,0.2551,0.2182,0.1813,0.1244,0.0873,0.0437,-0.0034,-0.0538,-0.1041,-0.1781,-0.2554,-0.3058,-0.3429,-0.3761,-0.4061,-0.4164,-0.4164,-0.4061,-0.3925,-0.3758,-0.336,-0.2824,-0.2321,-0.1816,-0.1244,-0.0672,-0.0168,0.0336,0.0975,0.168,0.2283,0.2883,0.3355,0.3794,0.4295,0.4728,0.4861,0.4994,0.5096,0.5063,0.4994,0.496,0.4924,0.4927,0.4897,0.4897,0.4861,0.4595,-0.064,-0.0773,-0.0975,-0.1008,-0.0975,-0.0842,-0.0776,-0.0742,-0.0607,-0.0506,-0.0674,-0.1212,-0.1446,-0.1446,-0.1446,-0.1312,-0.1177,-0.1043,-0.0909,-0.0808,-0.0641,-0.0607,-0.0573,-0.0472,-0.0438,-0.0405,-0.0371,-0.0371,-0.0371,-0.0371,-0.0371,-0.0405,-0.0405,-0.0371,-0.0337,-0.0236,-0.0067,0.0067,0.0202,0.0404,0.0371,0.0269,0.0337,0.0573,0.0875,0.1109,0.1277,0.1513,0.1849,0.2253,0.2725,0.3159,0.3493,0.3897,0.4267,0.4498,0.4728,0.4957,0.5156,0.5253,0.5355,0.5392,0.5289,0.5156,0.496,0.4558,0.3954,0.3487,0.3086,0.2551,0.1981,0.1479,0.1008,0.0437,-0.0067,-0.0706,-0.1545,-0.2318,-0.2723,-0.3127,-0.3493,-0.3828,-0.3961,-0.3961,-0.3861,-0.3725,-0.3391,-0.2958,-0.2488,-0.2051,-0.1546,-0.0941,-0.0336,0.0134,0.0605,0.1277,0.2017,0.2549,0.3117,0.3656,0.4159,0.4592,0.4924,0.5123,0.5226,0.5259,0.5296,0.5263,0.5223,0.519,0.5183,0.5186,0.513,0.5093,0.4994,-0.0539,-0.0573,-0.0606,-0.0606,-0.0607,-0.0573,-0.054,-0.0573,-0.0506,-0.0472,-0.0506,-0.0573,-0.0707,-0.0708,-0.0707,-0.0707,-0.0775,-0.0674,-0.0606,-0.0539,-0.0472,-0.0405,-0.0371,-0.0304,-0.0236,0.0,0.0,-0.0101,-0.0135,-0.0101,-0.0034,0.0101,0.0101,0.0169,0.027,0.0337,0.0337,0.0438,0.0506,0.064,0.0841,0.0774,0.0707,0.0875,0.1076,0.1378,0.1681,0.1951,0.2153,0.249,0.2924,0.3496,0.3897,0.4264,0.4631,0.4964,0.5193,0.5458,0.5624,0.5815,0.5951,0.5987,0.5918,0.5818,0.5653,0.5455,0.4921,0.4459,0.399,0.3286,0.2718,0.2252,0.1748,0.0941,0.0269,-0.0571,-0.1412,-0.1983,-0.2455,-0.2857,-0.3259,-0.356,-0.3792,-0.3758,-0.3727,-0.3558,-0.3324,-0.2891,-0.2389,-0.1849,-0.1277,-0.0639,-0.0034,0.0572,0.1078,0.1682,0.2354,0.2852,0.3384,0.399,0.4459,0.4824,0.509,0.5259,0.5326,0.5362,0.5428,0.5462,0.5495,0.5458,0.5477,0.5474,0.5418,0.5392,0.5326]}]]